[[{"header":{"parameterUnit":"m.s-1","parameterCategory":1,"la1":30.6,"la2":29.2853,"lo1":-89.7004,"lo2":-87.6739,"dx":0.0162,"dy":0.0183,"nx":112,"ny":82,"refTime":"2022-11-08T06:00:00:Z","depth":0,"parameterNumber":2,"parameterNumberName":"U-component_of_WINDS"},"data":[0.0,0.0,0.0,0.0,0.0,0.0,0.0,0.0,0.0,0.0,0.0,0.0,0.0,0.0,0.0,0.0,0.0,0.0,0.0,0.0,0.0,0.0,0.0,0.0,0.0,0.0,0.0,0.0,0.0,0.0,0.0,0.0,0.0,0.0,0.0,0.0,0.0,0.0,0.0,0.0,0.0,0.0,0.0,0.0,0.0,0.0,0.0,0.0,0.0,0.0,0.0,0.0,0.0,0.0,0.0,0.0,0.0,0.0,0.0,0.0,0.0,0.0,0.0,0.0,0.0,0.0,0.0,0.0,0.0,0.0,0.0,0.0,0.0,0.0,0.0,0.0,0.0,0.0,0.0,0.0,0.0,0.0,0.0,0.0,0.0,0.0,0.0,0.0,0.0,0.0,0.0,6.9412,7.1358,7.2275,7.1725,7.2202,7.044,6.5595,0.0,0.0,0.0,0.0,0.0,0.0,0.0,0.0,0.0,0.0,0.0,0.0,0.0,0.0,0.0,0.0,0.0,0.0,0.0,0.0,0.0,0.0,0.0,0.0,0.0,0.0,0.0,0.0,0.0,0.0,0.0,0.0,0.0,0.0,0.0,0.0,0.0,0.0,0.0,0.0,0.0,0.0,0.0,0.0,0.0,0.0,0.0,0.0,0.0,0.0,0.0,0.0,0.0,0.0,0.0,0.0,0.0,0.0,0.0,0.0,0.0,0.0,0.0,0.0,0.0,0.0,0.0,0.0,0.0,0.0,0.0,0.0,0.0,0.0,0.0,0.0,0.0,0.0,0.0,0.0,0.0,0.0,0.0,0.0,0.0,0.0,0.0,0.0,0.0,0.0,0.0,0.0,0.0,0.0,0.0,0.0,0.0,0.0,0.0,0.0,0.0,0.0,0.0,0.0,6.6623,7.2349,7.2679,7.2716,7.3303,7.2826,7.044,6.5595,0.0,0.0,0.0,0.0,0.0,0.0,0.0,0.0,0.0,0.0,0.0,0.0,0.0,0.0,0.0,0.0,0.0,0.0,0.0,0.0,0.0,0.0,0.0,0.0,0.0,0.0,0.0,0.0,0.0,0.0,0.0,0.0,0.0,0.0,0.0,0.0,0.0,0.0,0.0,0.0,0.0,0.0,0.0,0.0,0.0,0.0,0.0,0.0,0.0,0.0,0.0,0.0,0.0,0.0,0.0,0.0,0.0,0.0,0.0,0.0,0.0,0.0,0.0,0.0,0.0,0.0,0.0,0.0,0.0,0.0,0.0,0.0,0.0,0.0,0.0,0.0,0.0,0.0,0.0,0.0,0.0,0.0,0.0,0.0,0.0,0.0,0.0,0.0,0.0,0.0,0.0,0.0,0.0,0.0,0.0,0.0,0.0,0.0,0.0,0.0,0.0,0.0,0.0,6.5338,6.8972,7.323,7.3744,7.378,7.3707,7.334,7.0917,6.5632,6.4971,0.0,0.0,0.0,0.0,0.0,0.0,0.0,0.0,0.0,0.0,0.0,0.0,0.0,0.0,0.0,0.0,0.0,0.0,0.0,0.0,0.0,0.0,0.0,0.0,0.0,0.0,0.0,0.0,0.0,0.0,0.0,0.0,0.0,0.0,0.0,0.0,0.0,0.0,0.0,0.0,0.0,0.0,0.0,0.0,0.0,0.0,0.0,0.0,0.0,0.0,0.0,0.0,0.0,0.0,0.0,0.0,0.0,0.0,0.0,0.0,0.0,0.0,0.0,0.0,0.0,0.0,0.0,0.0,0.0,0.0,0.0,0.0,0.0,0.0,0.0,0.0,0.0,0.0,0.0,0.0,0.0,0.0,0.0,0.0,0.0,0.0,0.0,0.0,0.0,0.0,0.0,0.0,0.0,0.0,0.0,0.0,0.0,0.0,0.0,0.0,0.0,0.0,6.8605,7.1725,7.378,7.4551,7.4735,7.4294,7.3377,7.077,6.5888,6.4861,0.0,0.0,0.0,0.0,0.0,0.0,0.0,0.0,0.0,0.0,0.0,0.0,0.0,0.0,0.0,0.0,0.0,0.0,0.0,0.0,0.0,0.0,0.0,0.0,0.0,0.0,0.0,0.0,0.0,0.0,0.0,0.0,0.0,0.0,0.0,0.0,0.0,0.0,0.0,0.0,0.0,0.0,0.0,0.0,0.0,0.0,0.0,0.0,0.0,0.0,0.0,0.0,0.0,0.0,0.0,0.0,0.0,0.0,0.0,0.0,0.0,0.0,0.0,0.0,0.0,0.0,0.0,0.0,0.0,0.0,0.0,0.0,0.0,0.0,0.0,0.0,0.0,0.0,0.0,0.0,0.0,0.0,0.0,0.0,0.0,0.0,0.0,0.0,0.0,0.0,0.0,0.0,0.0,0.0,0.0,0.0,0.0,0.0,0.0,0.0,0.0,0.0,7.0073,7.378,7.4735,7.4882,7.5175,7.5873,7.2496,6.9229,6.6586,6.3539,0.0,0.0,0.0,0.0,0.0,0.0,0.0,0.0,0.0,0.0,0.0,0.0,0.0,0.0,0.0,0.0,0.0,0.0,0.0,0.0,0.0,0.0,0.0,0.0,0.0,0.0,0.0,0.0,0.0,0.0,0.0,0.0,0.0,0.0,0.0,0.0,0.0,0.0,0.0,0.0,0.0,0.0,0.0,0.0,0.0,0.0,0.0,0.0,0.0,0.0,0.0,0.0,0.0,0.0,0.0,0.0,0.0,0.0,0.0,0.0,0.0,0.0,0.0,0.0,0.0,0.0,0.0,0.0,0.0,0.0,0.0,0.0,0.0,0.0,0.0,0.0,0.0,0.0,0.0,0.0,0.0,0.0,0.0,0.0,0.0,0.0,0.0,0.0,0.0,0.0,0.0,0.0,0.0,0.0,0.0,0.0,0.0,0.0,0.0,0.0,0.0,0.0,6.9669,7.3083,0.0,7.613,7.635,7.613,7.4698,7.1725,6.6806,0.0,0.0,0.0,0.0,0.0,0.0,0.0,0.0,0.0,0.0,0.0,0.0,0.0,0.0,0.0,0.0,0.0,0.0,0.0,0.0,0.0,0.0,0.0,0.0,0.0,0.0,0.0,0.0,0.0,0.0,0.0,0.0,0.0,0.0,0.0,0.0,0.0,0.0,0.0,0.0,0.0,0.0,0.0,0.0,0.0,0.0,0.0,0.0,0.0,0.0,0.0,0.0,0.0,0.0,0.0,0.0,0.0,0.0,0.0,0.0,0.0,0.0,0.0,0.0,0.0,0.0,0.0,0.0,0.0,0.0,0.0,0.0,0.0,0.0,0.0,0.0,0.0,0.0,0.0,0.0,0.0,0.0,0.0,0.0,0.0,0.0,0.0,0.0,0.0,0.0,0.0,0.0,0.0,0.0,0.0,0.0,0.0,0.0,0.0,0.0,0.0,0.0,6.6549,7.0367,7.3891,0.0,7.7157,7.7304,7.7268,7.6093,7.3046,6.7614,0.0,0.0,0.0,0.0,0.0,0.0,0.0,0.0,0.0,0.0,0.0,0.0,0.0,0.0,0.0,0.0,0.0,0.0,0.0,0.0,0.0,0.0,0.0,0.0,0.0,0.0,0.0,0.0,0.0,0.0,0.0,0.0,0.0,0.0,0.0,0.0,0.0,0.0,0.0,0.0,0.0,0.0,0.0,0.0,0.0,0.0,0.0,0.0,0.0,0.0,0.0,0.0,0.0,0.0,0.0,0.0,0.0,0.0,0.0,0.0,0.0,0.0,0.0,0.0,0.0,0.0,0.0,0.0,0.0,0.0,0.0,0.0,0.0,0.0,0.0,0.0,0.0,0.0,0.0,0.0,0.0,0.0,0.0,0.0,0.0,0.0,0.0,0.0,0.0,0.0,0.0,0.0,0.0,0.0,0.0,0.0,0.0,0.0,0.0,0.0,0.0,0.0,6.7614,7.2642,7.6754,7.8442,7.7855,7.8038,7.9653,7.6093,7.2386,0.0,0.0,0.0,0.0,0.0,0.0,0.0,0.0,0.0,0.0,0.0,0.0,0.0,0.0,0.0,0.0,0.0,0.0,0.0,0.0,0.0,0.0,0.0,0.0,0.0,0.0,0.0,0.0,0.0,0.0,0.0,0.0,0.0,0.0,0.0,0.0,0.0,0.0,0.0,0.0,0.0,0.0,0.0,0.0,0.0,0.0,0.0,0.0,0.0,0.0,0.0,0.0,0.0,0.0,0.0,0.0,0.0,0.0,0.0,0.0,0.0,0.0,0.0,0.0,0.0,0.0,0.0,0.0,0.0,0.0,0.0,0.0,0.0,0.0,0.0,0.0,0.0,0.0,0.0,0.0,0.0,0.0,0.0,0.0,0.0,0.0,0.0,0.0,0.0,0.0,0.0,0.0,0.0,0.0,0.0,0.0,0.0,0.0,0.0,0.0,0.0,0.0,0.0,6.8385,7.3487,7.7598,7.925,7.9727,7.9874,7.98,7.9213,7.624,7.0146,0.0,0.0,0.0,0.0,0.0,0.0,0.0,0.0,0.0,0.0,0.0,0.0,0.0,0.0,0.0,0.0,0.0,0.0,0.0,0.0,0.0,0.0,0.0,0.0,0.0,0.0,0.0,0.0,0.0,0.0,0.0,0.0,0.0,0.0,0.0,0.0,0.0,0.0,0.0,0.0,0.0,0.0,0.0,0.0,0.0,0.0,0.0,0.0,0.0,0.0,0.0,0.0,0.0,0.0,0.0,0.0,0.0,0.0,0.0,0.0,0.0,0.0,0.0,0.0,0.0,0.0,0.0,0.0,0.0,0.0,0.0,0.0,0.0,0.0,0.0,0.0,0.0,0.0,0.0,0.0,0.0,0.0,0.0,0.0,0.0,0.0,0.0,0.0,0.0,0.0,0.0,0.0,0.0,0.0,0.0,0.0,0.0,0.0,0.0,0.0,0.0,0.0,6.8752,7.4147,7.8442,8.0094,8.0424,8.0571,8.0718,8.0608,7.8075,7.2386,0.0,0.0,0.0,0.0,0.0,0.0,0.0,0.0,0.0,0.0,0.0,0.0,0.0,0.0,0.0,0.0,0.0,0.0,0.0,0.0,0.0,0.0,0.0,0.0,0.0,0.0,0.0,0.0,0.0,0.0,0.0,0.0,0.0,0.0,0.0,0.0,0.0,0.0,0.0,0.0,0.0,0.0,0.0,0.0,0.0,0.0,0.0,0.0,0.0,0.0,0.0,0.0,0.0,0.0,0.0,0.0,0.0,0.0,0.0,0.0,0.0,0.0,0.0,0.0,0.0,0.0,0.0,0.0,0.0,0.0,0.0,0.0,0.0,0.0,0.0,0.0,0.0,0.0,0.0,0.0,0.0,0.0,0.0,0.0,0.0,0.0,0.0,0.0,0.0,0.0,0.0,0.0,0.0,0.0,0.0,0.0,0.0,0.0,0.0,0.0,0.0,0.0,6.9009,7.4735,7.9323,8.0938,8.0534,8.0681,8.2076,8.0938,7.8662,7.5249,0.0,0.0,0.0,0.0,0.0,0.0,0.0,0.0,0.0,0.0,0.0,0.0,0.0,0.0,0.0,0.0,0.0,0.0,0.0,0.0,0.0,0.0,0.0,0.0,0.0,0.0,0.0,0.0,0.0,0.0,0.0,0.0,0.0,0.0,0.0,0.0,0.0,0.0,0.0,0.0,0.0,0.0,0.0,0.0,0.0,0.0,0.0,0.0,0.0,0.0,0.0,0.0,0.0,0.0,0.0,0.0,0.0,0.0,0.0,0.0,6.3666,0.0,0.0,0.0,0.0,0.0,0.0,0.0,0.0,0.0,0.0,0.0,0.0,0.0,0.0,0.0,0.0,0.0,0.0,0.0,0.0,0.0,0.0,0.0,0.0,0.0,0.0,0.0,0.0,0.0,0.0,0.0,0.0,0.0,0.0,0.0,0.0,0.0,0.0,0.0,0.0,0.0,7.0513,7.5909,8.0167,8.1782,8.237,8.2517,8.2223,8.248,8.0681,7.613,7.4625,0.0,0.0,0.0,0.0,0.0,0.0,0.0,0.0,0.0,0.0,0.0,0.0,0.0,0.0,0.0,0.0,0.0,0.0,0.0,0.0,0.0,0.0,0.0,0.0,0.0,0.0,0.0,0.0,0.0,0.0,0.0,0.0,0.0,0.0,0.0,0.0,0.0,0.0,0.0,0.0,0.0,0.0,0.0,0.0,0.0,0.0,0.0,0.0,0.0,0.0,0.0,0.0,0.0,0.0,0.0,0.0,0.0,0.0,0.0,0.0,6.3974,0.0,0.0,0.0,0.0,0.0,0.0,0.0,0.0,0.0,0.0,0.0,0.0,0.0,0.0,0.0,0.0,0.0,0.0,0.0,0.0,0.0,0.0,0.0,0.0,0.0,0.0,0.0,0.0,0.0,0.0,0.0,0.0,0.0,0.0,0.0,0.0,0.0,0.0,0.0,0.0,7.2642,7.6974,8.0241,8.1489,8.2333,8.2663,8.2223,8.2223,8.1158,7.8626,7.657,0.0,0.0,0.0,0.0,0.0,0.0,0.0,0.0,0.0,0.0,0.0,0.0,0.0,0.0,0.0,0.0,0.0,0.0,0.0,0.0,0.0,0.0,0.0,0.0,0.0,0.0,0.0,0.0,0.0,0.0,0.0,0.0,0.0,0.0,0.0,0.0,0.0,0.0,0.0,0.0,0.0,0.0,0.0,0.0,0.0,0.0,0.0,0.0,0.0,0.0,0.0,0.0,0.0,6.8513,6.909,6.9937,6.9937,7.0052,7.0014,6.7475,6.7705,6.9552,6.4743,0.0,0.0,0.0,0.0,0.0,0.0,0.0,0.0,0.0,0.0,0.0,0.0,0.0,0.0,0.0,0.0,0.0,0.0,0.0,0.0,0.0,0.0,0.0,0.0,7.0954,7.022,6.754,0.0,0.0,0.0,0.0,0.0,0.0,0.0,0.0,0.0,0.0,0.0,7.4882,7.8075,8.0351,8.1342,8.2003,8.248,8.259,8.2003,8.1525,8.1232,7.8662,7.6497,0.0,0.0,0.0,0.0,0.0,0.0,0.0,0.0,0.0,0.0,0.0,0.0,0.0,0.0,0.0,0.0,0.0,0.0,0.0,0.0,0.0,0.0,0.0,0.0,0.0,0.0,0.0,0.0,0.0,0.0,0.0,0.0,5.7627,6.0165,0.0,0.0,0.0,0.0,0.0,0.0,0.0,0.0,0.0,0.0,0.0,0.0,0.0,6.7013,6.8244,7.0321,7.1783,7.2668,7.413,7.5284,7.613,7.613,7.6515,7.7015,7.4476,0.0,7.0744,7.0706,0.0,0.0,0.0,0.0,0.0,0.0,0.0,0.0,0.0,0.0,0.0,0.0,0.0,0.0,0.0,0.0,0.0,0.0,0.0,0.0,0.0,0.0,7.2863,7.4001,7.4294,7.4147,0.0,7.033,6.7063,6.6035,6.5852,0.0,0.0,0.0,0.0,0.0,0.0,0.0,7.6754,7.925,8.1415,8.292,8.3177,8.3544,8.4205,8.4205,8.3544,8.2113,8.1636,8.0975,8.0094,7.6166,0.0,0.0,0.0,0.0,0.0,0.0,0.0,0.0,0.0,0.0,0.0,0.0,0.0,0.0,0.0,0.0,0.0,0.0,0.0,0.0,0.0,0.0,0.0,0.0,0.0,0.0,0.0,0.0,0.0,5.778,6.0627,6.2704,6.3281,6.282,0.0,0.0,0.0,0.0,0.0,0.0,0.0,0.0,0.0,6.9321,6.9783,7.0821,7.2668,7.4245,7.5014,7.4938,7.6592,7.7361,7.7323,7.7746,7.8169,7.8438,7.7323,7.6207,7.5053,7.3553,7.2745,7.2322,0.0,0.0,0.0,0.0,6.7282,6.7013,6.7782,6.8674,6.9366,6.8883,0.0,0.0,0.0,0.0,0.0,0.0,0.0,0.0,0.0,0.0,7.356,7.5763,7.5909,7.5726,7.6166,7.4588,7.2312,0.0,6.9559,6.9376,6.7834,0.0,0.0,0.0,0.0,7.6827,8.0314,8.1305,8.2296,8.3911,8.4058,8.4242,8.4572,8.4609,8.4315,8.3581,8.3104,8.2517,8.1709,7.9617,7.7304,0.0,0.0,0.0,0.0,0.0,0.0,0.0,0.0,0.0,0.0,0.0,0.0,0.0,0.0,0.0,0.0,0.0,0.0,0.0,0.0,0.0,0.0,0.0,0.0,0.0,0.0,0.0,0.0,6.1166,6.3666,6.5359,6.6359,6.6128,0.0,0.0,0.0,0.0,0.0,0.0,6.7705,6.8167,6.9783,7.2745,7.3053,7.4091,7.5976,7.663,7.663,7.6015,7.7246,7.79,7.7938,7.8554,7.9169,7.9785,7.9785,7.9785,7.9515,7.6169,7.5014,7.5284,7.4476,7.3206,7.1898,7.2129,7.1822,7.136,7.1783,7.2265,7.2669,7.2794,7.3283,7.3649,7.2773,0.0,0.0,0.0,0.0,7.2466,7.274,7.3266,7.439,7.6958,7.6948,7.6667,7.7657,7.7904,7.6864,0.0,7.301,7.312,7.2092,0.0,0.0,0.0,0.0,7.936,8.3214,8.3177,8.3361,8.4756,8.4903,8.4976,8.5196,8.5233,8.5123,8.4903,8.4352,8.3654,8.2847,8.2406,8.0277,7.624,0.0,0.0,0.0,0.0,0.0,0.0,0.0,0.0,0.0,0.0,0.0,0.0,0.0,0.0,0.0,0.0,0.0,0.0,0.0,0.0,0.0,0.0,0.0,0.0,0.0,0.0,0.0,0.0,0.0,6.8013,7.1091,0.0,0.0,0.0,0.0,6.7013,6.7744,6.8667,6.9513,7.1091,7.2745,7.4514,7.5399,7.5861,7.6015,7.6053,7.6053,7.6015,7.6092,7.7361,7.9669,7.9708,8.1054,8.3324,8.3324,8.3324,8.3054,7.9669,7.7823,7.7092,7.6207,7.5322,7.463,7.5438,7.5707,7.5899,7.7515,7.7758,7.7447,7.793,7.813,7.7861,7.6254,7.6542,0.0,0.0,7.4151,7.6356,7.4196,7.5359,7.7266,7.8053,7.7731,7.7634,7.9094,7.9542,7.8919,0.0,7.5909,7.5432,7.3854,0.0,7.8259,7.8552,8.1122,8.3398,8.4425,8.4499,8.4792,8.5637,8.5747,8.604,8.6811,8.6885,8.6554,8.5783,8.571,8.5306,8.4499,8.2994,8.2406,8.292,7.7671,0.0,0.0,0.0,0.0,0.0,0.0,0.0,0.0,0.0,0.0,0.0,0.0,0.0,0.0,0.0,0.0,0.0,0.0,0.0,0.0,0.0,0.0,0.0,0.0,0.0,0.0,0.0,0.0,6.9052,7.0783,0.0,6.986,6.9975,6.9744,6.8821,7.1052,7.2591,7.2899,7.4014,7.4938,7.5515,7.5822,7.6015,7.6015,7.7053,7.7361,7.6861,7.9015,8.0246,8.0669,8.1747,8.2747,8.3593,8.3593,8.3593,8.3516,8.2285,8.1593,8.1323,8.1016,8.0708,8.0477,8.0785,8.0554,8.0131,8.0746,8.0459,7.9977,8.0715,8.0668,8.0276,7.9814,8.0068,8.0117,7.8129,7.9269,8.0879,8.004,8.0444,8.1163,8.1514,8.0982,8.0598,8.1132,8.1659,8.1726,8.0836,8.0284,8.0167,8.0645,8.1269,8.2039,8.3067,8.3765,8.4462,8.527,8.538,8.5673,8.6481,8.6591,8.6701,8.6995,8.6995,8.6885,8.6591,8.6077,8.5673,8.538,8.4315,8.3654,8.3398,8.0901,7.7781,0.0,0.0,0.0,0.0,0.0,0.0,0.0,0.0,0.0,0.0,0.0,0.0,0.0,0.0,0.0,0.0,0.0,0.0,0.0,0.0,0.0,0.0,0.0,0.0,0.0,0.0,6.8706,6.959,7.0937,7.1591,7.1014,7.1245,7.1398,7.1398,7.3707,7.4899,7.4322,7.5399,7.6015,7.6015,7.6284,7.6553,7.6823,7.7938,7.8207,7.7746,8.0246,8.1477,8.1554,8.2939,8.4055,8.4863,8.4863,8.5055,8.5324,8.5324,8.5324,8.5247,8.4362,8.4055,8.4055,8.4324,8.4093,8.3593,8.3593,8.3247,8.2862,8.3401,8.3316,8.3066,8.351,8.3915,8.4028,8.3,8.3702,8.4448,8.3471,8.3378,8.3583,8.3663,8.3284,8.3069,8.3525,8.3844,8.4121,8.4683,8.3805,8.3061,8.352,8.3041,8.2781,8.353,8.3043,8.2957,8.4022,8.4903,8.571,8.6518,8.7325,8.7839,8.7839,8.7068,8.6958,8.7766,8.6554,8.604,8.6591,8.5049,8.3838,8.303,8.0865,7.8405,7.5726,0.0,0.0,0.0,0.0,0.0,0.0,0.0,0.0,0.0,0.0,0.0,0.0,0.0,0.0,0.0,0.0,0.0,0.0,0.0,0.0,0.0,0.0,0.0,6.6859,6.9321,7.0629,6.9937,7.2014,7.3514,7.3553,7.4207,7.4668,7.4668,7.5476,7.5284,7.3668,7.5168,7.6092,7.6092,7.6899,7.7707,7.8477,7.8554,7.8592,7.8631,7.9554,8.0862,8.2477,8.3362,8.5093,8.744,8.744,8.7902,8.8709,8.8709,8.8709,8.844,8.5978,8.5016,8.5132,8.5901,8.617,8.617,8.617,8.6132,8.6132,8.6094,8.6094,8.6247,8.7132,8.7944,8.8336,8.6927,8.7111,8.7046,8.41,8.3937,8.4438,8.4379,8.4417,8.4883,8.6214,8.6093,8.6203,8.7739,8.6214,8.4022,8.2254,8.1492,8.0786,7.9837,7.9298,0.0,8.1048,8.3287,8.5013,8.571,8.7986,8.9417,8.9307,8.7252,8.6921,8.9271,8.7215,8.6591,8.8169,8.5233,8.3214,8.2333,7.7561,7.6644,7.9727,0.0,0.0,0.0,0.0,0.0,0.0,0.0,0.0,0.0,0.0,0.0,0.0,0.0,0.0,0.0,0.0,0.0,0.0,0.0,0.0,0.0,0.0,6.9052,6.9744,7.0475,7.1514,7.3129,7.3437,7.3745,7.4322,7.4053,7.3822,7.3822,7.5168,7.5784,7.5322,7.6899,7.7823,7.7823,7.8054,7.8284,7.8477,7.9746,8.0669,8.1285,8.3362,8.4939,8.6017,8.6901,8.7671,8.8325,8.8325,8.8479,8.8709,8.8709,8.8709,8.8632,8.794,8.7671,8.7671,8.7902,8.7979,8.7902,8.7248,8.7055,8.694,8.6324,8.6094,8.618,8.6585,8.6852,8.708,8.7302,8.7527,8.7633,8.7391,8.7475,8.7627,8.7714,8.8267,8.8847,8.9225,9.0049,9.0852,9.1263,9.12,9.0274,8.7642,8.7578,8.7551,8.6775,8.6544,0.0,8.7031,8.7692,8.7509,8.5967,8.85,8.9344,8.6995,8.8316,8.9307,8.9417,8.8793,8.861,8.905,8.8243,8.6811,8.4829,8.1195,7.9176,0.0,0.0,0.0,0.0,0.0,0.0,0.0,0.0,0.0,0.0,0.0,0.0,0.0,0.0,0.0,0.0,0.0,0.0,0.0,0.0,0.0,0.0,6.9552,7.1552,7.1937,7.1975,7.2552,7.4014,7.3783,7.3822,7.463,7.463,7.4707,7.5053,7.6322,7.7053,7.7053,7.7977,7.8669,7.9015,7.94,7.9939,8.0631,8.2016,8.3093,8.3901,8.5747,8.6901,8.744,8.8286,8.8863,8.921,8.921,8.921,8.921,8.921,8.921,0.0,0.0,0.0,0.0,0.0,8.7902,8.7555,8.7017,8.7094,8.7248,8.6363,8.6594,8.7214,8.7312,8.7619,8.8079,8.8921,8.9189,8.9263,8.9778,9.0173,9.0444,9.059,9.1207,9.1774,9.1774,9.246,9.3134,9.3134,9.3717,0.0,9.1605,9.0249,8.8832,8.6971,8.6538,8.6518,8.6848,8.7802,8.7986,8.6921,8.9381,9.0335,8.8463,8.9087,0.0,0.0,0.0,8.861,8.7912,8.7252,0.0,0.0,0.0,0.0,0.0,0.0,0.0,0.0,7.378,7.2055,0.0,0.0,0.0,0.0,0.0,0.0,0.0,0.0,0.0,0.0,0.0,0.0,0.0,0.0,0.0,0.0,7.0244,7.2629,7.3514,7.363,7.363,7.363,7.3745,7.4091,7.4899,7.5784,7.6592,7.7361,7.8169,7.8631,7.8631,0.0,0.0,0.0,0.0,8.2362,8.3862,8.4747,8.5593,8.6401,8.7286,8.7671,8.7709,8.8479,8.9171,8.9748,8.9748,8.9748,8.9748,8.9748,8.9748,8.971,8.9094,8.8825,8.8709,8.7863,8.7055,8.6363,8.6286,0.0,0.0,8.6363,8.7132,8.844,8.8517,8.9133,8.9979,9.0941,9.1287,9.1372,9.1632,9.2141,9.2678,9.278,9.3369,9.3826,9.3826,9.3903,9.398,9.398,9.4595,9.4907,9.4173,9.1149,8.7787,8.474,8.3867,8.3797,8.4534,8.6487,8.7931,8.8341,0.0,0.0,9.14,8.9784,8.9638,9.1657,8.9711,8.7802,8.6261,8.4756,8.2884,8.0645,7.98,8.0057,8.1415,7.9984,8.0021,8.1305,7.7304,7.5836,0.0,0.0,0.0,0.0,0.0,0.0,0.0,0.0,0.0,0.0,0.0,0.0,0.0,0.0,0.0,6.9975,7.1898,7.3553,7.4361,7.4476,7.4476,7.4476,7.5091,7.5861,7.6707,7.7553,7.8092,7.8246,7.9054,7.9554,7.9554,8.1477,8.267,8.2862,8.4324,8.5286,8.5593,8.6478,8.7363,8.8209,0.0,0.0,8.944,8.9594,8.9402,8.894,8.894,8.894,8.894,8.894,8.894,8.8979,8.9479,8.9671,8.9556,8.8748,8.8325,8.8094,8.7401,8.7248,8.7248,8.6363,8.6324,8.6748,8.744,8.8248,0.0,9.0787,9.171,9.2367,9.3062,9.3368,9.3443,9.3485,9.4137,9.4749,9.4749,9.5288,9.5788,9.5788,9.5942,9.5829,9.5051,9.4296,9.34,9.2145,9.1847,9.1865,9.2015,9.2466,9.1821,8.9361,9.1873,9.2461,8.9158,9.0886,9.206,9.1803,9.0739,8.9711,8.8757,8.7802,8.6738,8.5637,8.4829,8.4242,8.3911,8.3581,8.3618,8.3838,8.0424,7.8919,0.0,0.0,0.0,0.0,0.0,0.0,0.0,0.0,0.0,0.0,0.0,6.6128,0.0,0.0,7.0437,7.0821,7.3053,7.4899,7.5284,7.5745,7.5822,7.5399,7.613,7.6976,7.7823,7.8669,7.9131,7.9131,8.0323,8.1246,8.167,8.3324,8.4439,8.4824,8.6094,8.6978,8.7401,8.8248,8.8863,8.9325,8.971,8.971,8.9286,8.9286,8.9286,8.9286,8.9286,8.9286,8.9286,8.9286,8.9056,8.8786,8.9594,8.9402,8.8594,8.8209,8.7786,8.7325,8.6901,8.7325,8.7902,8.7017,8.7594,8.8671,8.8671,8.9248,9.0133,9.0979,9.1518,9.2133,9.3364,9.371,9.3903,9.4788,9.5326,9.5634,9.5634,9.598,9.6288,9.6288,9.6288,9.6174,9.5821,9.5741,9.5363,9.4265,9.4102,9.4102,9.4102,9.4102,9.3501,9.1863,9.2829,9.2756,9.0765,9.1392,9.1657,9.1216,9.0078,8.9234,8.883,8.8023,8.7435,8.7031,8.6628,8.6004,8.5196,8.5196,8.4976,8.4572,8.2957,8.2186,0.0,0.0,0.0,0.0,0.0,0.0,0.0,0.0,6.6821,6.7475,6.7475,6.7628,6.8436,7.0129,7.1514,7.1822,7.4207,7.6092,7.6438,7.7092,7.7323,7.6784,7.7361,7.8054,7.8669,7.9823,8.0554,8.0554,8.2093,8.3324,8.4055,8.5055,8.594,8.6594,8.7594,8.8402,8.894,8.9748,9.0094,8.9902,9.0094,8.971,8.894,8.894,8.921,8.9671,8.9671,8.9671,8.9671,8.9671,8.9286,8.8748,8.9402,8.8825,8.7632,8.7632,8.7209,8.6594,8.6594,8.7517,8.8556,8.7863,8.9056,9.0594,9.0094,9.0517,9.1287,9.1595,9.1825,9.2287,9.3826,9.421,9.4557,9.598,9.6288,9.6288,9.6288,9.6288,9.6288,9.6288,9.6288,9.6288,9.6288,9.6288,9.5902,9.4718,9.4528,9.4528,9.4528,9.4528,9.4476,9.4319,9.3648,9.3114,9.283,9.1569,9.0702,9.0408,8.916,8.828,8.7986,8.7362,8.6995,8.6995,8.6995,8.6701,8.604,8.604,8.571,8.5086,8.5086,8.4903,5.9588,6.1166,0.0,6.3128,6.432,6.609,0.0,0.0,7.0129,7.3091,7.3168,7.2899,7.3707,7.3514,7.3707,7.5207,7.5745,7.6515,7.8015,7.8284,7.8631,7.9285,7.9477,7.9554,7.9669,8.1785,8.317,8.317,8.4747,8.5709,8.5824,8.7363,8.8325,8.8402,8.994,9.0441,8.9787,9.0633,9.0671,8.9902,9.0671,9.0594,8.9787,8.9787,8.944,8.8825,8.8825,8.8825,8.8825,8.8825,8.8786,8.8709,8.8786,8.8709,8.8556,8.8556,8.8479,8.8402,8.8402,8.8517,8.8671,8.8594,8.8748,8.9094,8.971,9.0517,9.1518,9.2979,9.398,9.4788,9.5749,9.6019,9.6057,9.6249,9.6288,9.6288,9.6288,9.6288,9.6288,9.6288,9.6288,9.6288,9.6288,9.6288,9.6251,9.6098,9.602,9.602,9.602,9.602,9.5821,9.5142,9.4424,9.341,9.2018,9.1766,9.1069,8.9638,8.9381,8.8647,8.7215,8.7068,8.6995,8.6995,8.6995,8.6958,8.6885,8.6885,8.6811,8.6738,8.6738,8.5967,6.2935,6.3281,0.0,0.0,6.759,6.8513,7.0052,7.1168,7.2322,7.3707,7.3745,7.3745,7.4553,7.4861,7.5361,0.0,7.713,7.7861,7.9092,7.9669,8.0516,8.1862,8.2477,8.2554,8.2054,8.3439,8.4555,8.5016,8.617,8.7094,8.7594,8.8748,8.9633,9.0133,9.0825,9.1018,9.0671,9.1018,9.0748,8.9902,9.0287,9.0017,8.921,8.921,8.9286,8.944,8.994,8.9863,8.944,8.994,8.9863,8.9517,9.0517,9.0902,9.071,8.9248,8.8709,8.8709,8.8709,8.9325,9.0133,9.0133,9.0825,9.1672,9.2018,9.2364,9.2787,9.348,9.3941,9.4441,9.5326,9.5518,9.5672,9.6172,9.6288,9.6288,9.6288,9.6288,9.6288,9.6288,9.6288,9.6288,9.6288,9.6288,9.6288,9.6288,9.6288,9.6288,9.6288,9.6288,9.602,9.5273,9.4528,9.3648,9.2566,9.1171,9.0115,8.9454,8.8536,8.7729,8.7031,8.6995,8.6995,8.6995,8.6995,8.6995,8.6995,8.6995,8.6995,8.6995,8.6995,8.6664,6.4859,0.0,0.0,6.909,7.0398,7.0898,7.1475,7.2591,7.3553,7.3783,7.3822,7.4168,7.5207,7.5938,7.6707,7.7823,7.8669,7.9592,8.0708,8.1593,8.267,8.4132,8.5055,8.544,8.5016,8.5593,8.6209,8.6786,8.7594,8.8363,8.8979,8.9594,9.021,9.0825,9.1056,9.1095,9.0864,9.1095,9.0748,8.9902,9.0133,8.994,8.9402,8.9402,8.971,9.0325,9.1171,9.121,9.0671,9.1556,9.1518,9.1056,9.2326,9.2826,9.2595,9.0748,9.0056,9.0056,9.0056,9.0864,9.1902,9.1902,9.271,9.3749,9.398,9.4057,9.4095,9.4364,9.4403,9.4557,9.5172,9.5365,9.5518,9.6134,9.6288,9.6288,9.6288,9.6288,9.6288,9.6288,9.6288,9.6288,9.6288,9.6288,9.6288,9.6288,9.6288,9.6288,9.6288,9.6288,9.602,9.5273,9.4528,9.3821,9.3051,9.1006,8.9674,8.9417,8.8096,8.7252,8.7031,8.6995,8.6995,8.6995,8.6995,8.6995,8.6995,8.6995,8.6995,8.6995,8.6995,8.6995,6.3935,6.5782,6.759,7.0206,7.2129,7.3399,7.3437,7.3476,7.3745,7.4514,7.4668,7.5207,7.6899,7.7246,7.7784,7.9477,8.0439,8.1593,8.3247,8.4247,8.5093,8.594,8.6786,8.7632,0.0,8.8556,8.8594,8.8632,8.9363,8.9863,8.9863,8.9902,8.9902,8.994,9.0748,9.0787,8.994,9.0787,9.0748,8.9902,9.0748,9.1171,9.1133,9.1133,9.1133,9.121,9.2095,9.2441,9.2479,9.3287,9.3595,9.3595,9.3633,9.3672,9.3633,9.3595,9.3557,9.3557,9.3557,9.3595,9.3633,9.3633,9.3672,9.3864,9.4711,9.4941,9.5134,9.598,9.6211,9.6249,9.6249,9.6249,9.6288,9.6288,9.6288,9.6288,9.6288,9.6288,9.6288,9.6288,9.6288,9.6288,9.6288,9.6288,9.6288,9.6288,9.6288,9.6288,9.6288,9.6288,9.602,9.5273,9.4528,9.3821,9.3051,9.1523,9.0225,8.9454,8.861,8.7802,8.7031,8.6995,8.6995,8.6995,8.6995,8.6995,8.6995,8.6995,8.6995,8.6995,8.6995,8.6995,6.6282,6.7975,6.9283,7.1283,7.3053,7.4322,7.4322,7.4745,7.5245,7.5515,7.6015,7.6592,7.7169,7.8669,8.0015,8.0554,8.2324,8.3824,8.4401,8.567,8.6863,8.7709,8.8556,0.0,0.0,0.0,0.0,8.9479,8.9748,8.9902,8.9902,9.0441,9.0748,9.0748,9.1056,9.1056,9.0787,9.1056,9.1056,9.0787,9.1056,9.121,9.121,9.1787,9.2056,9.2095,9.2941,9.3287,9.3326,9.3595,9.371,9.3749,9.4326,9.4557,9.4634,9.5211,9.5441,9.5249,9.4095,9.4057,9.4557,9.4557,9.4941,9.548,9.5788,9.5865,9.5903,9.6211,9.6288,9.6288,9.6288,9.6288,9.6288,9.6288,9.6288,9.6288,9.6288,9.6288,9.6288,9.6288,9.6288,9.6288,9.6288,9.6288,9.6288,9.6288,9.6288,9.6288,9.6288,9.6288,9.6174,9.5981,9.5273,9.4528,9.3764,9.2196,9.0727,8.9488,8.8605,8.7784,8.7031,8.6995,8.6995,8.6995,8.6995,8.6995,8.6995,8.6995,8.6995,8.6995,8.6995,8.6995,6.7936,6.9706,7.1052,7.3053,7.4361,7.5168,7.5168,7.5592,7.6015,7.6015,7.6669,7.74,7.7669,7.9592,8.1093,8.1093,8.3478,8.5324,8.5324,8.7055,8.8517,8.9056,8.9594,8.9902,0.0,0.0,0.0,8.9863,8.9633,8.9594,8.9902,9.0441,9.0748,9.0748,9.1056,9.121,9.121,9.121,9.121,9.121,9.1518,9.1672,9.171,9.2556,9.2941,9.2979,9.3787,9.4172,9.4172,9.448,9.4634,9.4672,9.5249,9.5441,9.5518,9.6095,9.6288,9.6134,9.5018,9.498,9.5441,9.5441,9.5826,9.6288,9.6288,9.6288,9.6288,9.6288,9.6288,9.6288,9.6288,9.6288,9.6288,9.6288,9.6288,9.6288,9.6288,9.6288,9.6288,9.6288,9.6288,9.6288,9.6288,9.6288,9.6288,9.6288,9.6288,9.6288,9.6288,9.6288,9.6288,9.6288,9.5887,9.5353,9.4566,9.3245,9.1863,9.0304,8.9432,8.8626,8.7876,8.7876,8.7876,8.7876,8.7876,8.7876,8.7876,8.7876,8.7729,8.7435,8.7435,8.7288,6.8975,7.1091,7.2899,7.5322,7.5976,7.6015,7.6015,7.5938,7.5861,7.5861,7.6515,7.7323,0.0,0.0,8.1093,8.1093,8.3978,8.6209,8.617,8.8325,8.9902,0.0,0.0,0.0,0.0,0.0,0.0,8.9863,0.0,8.9094,8.9863,8.994,8.9979,8.9979,9.0787,9.121,9.121,9.121,9.121,9.1287,9.2095,9.2518,9.2595,9.3403,9.3749,9.3826,9.4672,9.5057,9.5134,9.5942,9.6288,9.6288,9.6288,9.6288,9.6288,9.6288,9.6288,9.6288,9.6288,9.6288,9.6288,9.6288,9.6288,9.6288,9.6288,9.6288,9.6288,9.6288,9.6288,9.6288,9.6288,9.6288,9.6288,9.6288,9.6288,9.6288,9.6288,9.6288,9.6288,9.6288,9.6288,9.6288,9.6288,9.6288,9.6288,9.6288,9.6326,9.6365,9.6365,9.6365,9.6365,9.6442,9.6504,9.6188,9.5341,9.463,9.3464,9.1821,9.0963,9.0212,8.9417,8.9417,8.9417,8.9417,8.9417,8.9417,8.9417,8.9417,8.9014,8.828,8.828,8.7839,7.1783,7.3283,7.4207,7.4861,7.5515,7.6015,7.6015,7.5014,7.413,7.413,7.4322,7.4514,0.0,0.0,0.0,8.1093,8.4978,0.0,8.7171,8.8709,0.0,8.9094,0.0,8.9671,8.9056,8.9363,0.0,0.0,8.971,8.9671,8.9902,9.0517,9.0864,9.0864,9.1095,9.121,9.121,9.121,9.1518,9.2172,9.2402,9.2826,9.3403,9.4287,9.4672,9.4711,9.5595,9.598,9.598,9.6211,9.6288,9.6288,9.6288,9.6288,9.6288,9.6288,9.6288,9.6288,9.6288,9.6288,9.6288,9.6288,9.6288,9.6288,9.6288,9.6288,9.6288,9.6288,9.6288,9.6288,9.6288,9.6288,9.6288,9.6288,9.6288,9.6288,9.6288,9.6288,9.6288,9.6288,9.6288,9.6288,9.6288,9.6288,9.6288,9.6288,9.6826,9.7211,9.7211,9.7211,9.7442,9.8096,9.8173,9.7622,9.6188,9.5877,9.4582,9.1846,9.1505,9.076,8.9488,8.9417,8.9417,8.9417,8.9417,8.9417,8.9417,8.9417,8.9307,8.9087,8.9087,8.9014,7.3014,7.4668,7.5822,7.5822,7.6476,7.6784,7.5668,7.4707,7.3707,7.2591,7.2976,0.0,7.4976,7.8092,0.0,0.0,0.0,0.0,8.6401,8.8094,8.921,0.0,8.9094,0.0,8.9248,8.9633,9.0056,0.0,9.0133,9.0094,9.0441,9.0941,9.121,9.121,9.121,9.1364,9.1787,9.1787,9.2172,9.3018,9.3403,9.3826,9.4287,9.5172,9.5557,9.5595,0.0,9.6288,9.6288,9.6288,9.6288,9.6288,9.6288,9.6288,9.6288,9.6288,9.6288,9.6288,9.6288,9.6288,9.6288,9.6288,9.6288,9.6288,9.6288,9.6288,9.6288,9.6288,9.6288,9.6288,9.6288,9.6288,9.6288,9.6288,9.6288,9.6288,9.6288,9.6288,9.6288,9.6288,9.6288,9.6288,9.6288,9.6596,9.6826,9.6826,9.7557,9.8211,9.8596,9.8288,9.825,9.875,9.9135,9.8711,9.7044,9.7211,9.6069,9.2951,9.2712,9.2024,9.0517,9.0445,9.0445,9.0445,9.0445,9.0445,9.0445,9.0445,9.0298,8.9931,8.9931,8.9748,7.3745,7.563,7.7323,7.7438,7.7977,7.7823,7.5284,7.4553,7.3668,7.1091,7.1668,7.3476,7.613,7.79,7.9592,8.1477,0.0,8.5247,8.4632,8.6671,8.8286,8.8479,8.8632,8.9017,8.9825,9.0017,9.0402,9.1133,9.0517,9.0402,9.1171,9.121,9.1248,9.1364,9.1479,9.1902,9.2633,9.2672,9.3056,9.3864,9.4634,9.5057,9.5211,9.5942,9.6288,9.6288,9.6288,9.6288,9.6288,9.6288,9.6288,9.6288,9.6288,9.6288,9.6288,9.6288,9.6288,9.6326,9.6442,9.648,9.6442,9.6326,9.6288,9.6288,9.6288,9.6288,9.6288,9.6288,9.6288,9.6288,9.6288,9.6288,9.6288,9.6288,9.6288,9.6288,9.6288,9.6288,9.6288,9.6288,9.6288,9.6326,9.6442,9.7057,9.7557,9.7673,9.8404,9.925,9.9981,9.9442,9.9019,9.9135,9.9788,9.9558,9.7827,9.8365,9.7461,9.4325,9.4102,9.341,9.1839,9.1803,9.1803,9.1803,9.1803,9.1803,9.1803,9.1803,9.1436,9.0776,9.0776,9.0408,7.6207,7.6938,7.7438,7.813,7.84,7.7823,7.5284,7.363,0.0,6.936,6.8513,6.9206,7.2476,7.3899,7.5592,7.8669,8.0746,8.217,8.267,8.4362,8.6055,0.0,8.8248,8.9017,8.9825,9.0556,0.0,0.0,0.0,9.1056,9.121,9.121,9.1518,9.2249,9.2903,9.3326,9.348,9.348,9.3903,9.4788,9.4903,9.5365,9.6095,9.6249,9.6288,9.6288,9.6288,0.0,9.6288,9.6288,9.6288,9.6288,9.6288,9.6288,9.6288,9.6288,9.6288,9.6403,9.7057,9.7288,9.7173,9.6519,9.6288,9.6288,9.6288,9.6288,9.6288,9.6288,9.6288,9.6288,9.6288,9.6288,9.6288,9.6288,9.6288,9.6288,9.6288,9.6288,9.6288,9.6288,9.6288,9.6519,9.7173,9.7403,9.775,9.8481,9.9327,9.9904,10.0096,9.9981,10.0096,10.0789,10.1019,10.0404,9.8711,9.8711,9.7461,9.4325,9.4102,9.341,9.1839,9.1803,9.1803,9.1803,9.1803,9.1803,9.1803,9.1803,9.173,9.1583,9.1583,9.151,7.5831,7.6908,7.813,7.8977,7.9169,7.8284,7.4861,0.0,0.0,6.7782,6.709,6.8129,7.1552,7.2552,7.3937,7.7323,7.9669,8.1246,8.1631,8.3901,8.617,8.7863,8.844,8.9171,0.0,9.0941,9.121,9.121,0.0,9.1672,9.121,9.1633,9.2249,9.3095,9.348,9.3903,9.4364,9.4364,9.4788,9.5672,9.5672,9.5903,9.6288,9.6288,9.6288,9.6288,9.6288,9.6288,9.6288,9.6288,9.6288,9.6288,9.6288,9.6557,9.6903,9.6903,9.7211,9.7673,9.8057,9.8173,9.8096,9.7711,9.7596,9.7596,9.7596,9.7596,9.7596,9.7596,9.7596,9.7596,9.7596,9.7596,9.7596,9.7596,9.725,9.6903,9.6903,9.6596,9.6442,9.6826,9.6903,9.7211,9.8019,9.8557,9.8981,9.9404,10.0212,10.0712,10.0712,10.0712,10.0904,10.1289,10.1289,10.0596,9.8942,9.8788,9.7461,9.4325,9.4102,9.341,9.1839,9.1803,9.1803,9.1803,9.1803,9.1803,9.1803,9.1803,9.1803,9.1803,9.1803,9.1803,7.5264,7.6716,7.8438,7.9292,7.9638,7.8669,7.4216,7.286,0.0,6.6821,6.6397,6.7859,7.1283,7.1629,7.2514,7.5938,7.8015,7.9554,8.0669,8.3247,8.6017,0.0,8.894,0.0,9.1056,9.121,0.0,9.1479,0.0,9.2441,9.1787,9.2556,9.3326,9.3941,9.4172,9.4595,9.5249,9.5288,9.5634,9.6288,9.6288,9.6288,9.6288,9.6288,9.6288,9.6288,9.6288,9.6288,9.6288,9.6288,9.6288,9.6326,9.648,9.6942,9.7519,9.7711,9.8211,9.8827,9.9019,9.9058,9.9096,9.9288,9.9096,9.8788,9.8788,9.8788,9.8788,9.8788,9.8788,9.8788,9.8788,9.8788,9.8788,9.8788,9.8288,9.7788,9.7788,9.7288,9.7019,9.7673,9.7788,9.8057,9.8942,9.9635,10.0173,10.0289,10.0904,10.1289,10.1289,10.1289,10.1289,10.1289,10.1096,10.0404,9.8942,9.8634,9.7312,9.45,9.4211,9.347,9.2089,9.1912,9.1803,9.1803,9.1803,9.1803,9.1803,9.1803,9.1803,9.1803,9.1803,9.1803,7.6429,7.7246,7.76,7.8416,7.9184,7.8485,7.3457,0.0,7.1975,6.6936,6.5974,6.7051,7.0398,6.9783,6.986,7.3283,7.3399,7.463,7.9285,8.0862,8.3593,8.9133,0.0,0.0,9.1133,9.121,0.0,9.2326,0.0,9.3557,9.348,9.4287,9.4788,9.4864,9.5634,9.6095,9.6172,9.6172,9.6211,9.6288,9.6288,9.6288,9.6288,9.6288,9.6288,9.6288,9.6288,9.6288,0.0,9.6288,9.6288,9.6365,9.7096,9.7442,9.7596,9.8404,9.8711,9.8904,9.9712,9.9981,10.0096,10.0789,10.0019,9.8788,9.8788,9.8788,9.8788,9.8788,9.8788,9.8788,9.8788,9.8788,9.8788,9.8788,9.875,9.8673,9.8673,9.8634,9.8596,9.8673,9.8673,9.8942,9.9827,9.9981,10.0289,10.1096,10.1289,10.1289,10.1289,10.1289,10.1289,10.1289,10.0596,9.9827,9.8865,9.8057,9.6902,9.5219,9.4476,9.3706,9.2923,9.2229,9.1803,9.1803,9.1803,9.1803,9.1803,9.1803,9.1803,9.1803,9.1803,9.1803,7.4072,7.6092,7.8237,7.9054,7.9554,7.86,7.4021,0.0,7.1426,6.6821,6.5897,6.6436,6.827,6.8475,6.9013,7.0898,7.2629,7.5322,7.9939,8.2208,8.5401,9.0825,9.1479,0.0,0.0,0.0,9.3056,0.0,0.0,9.4711,9.5249,9.5095,9.5249,9.5788,9.6134,9.6288,9.6288,9.6288,9.6288,9.6288,9.6288,9.6288,9.6288,9.6288,9.6288,9.6288,9.6288,9.6288,0.0,9.6288,9.6596,9.7057,9.7365,9.8134,9.9096,9.9442,9.9904,10.0404,10.0712,10.0789,10.0904,10.1212,10.0789,10.0289,10.0289,10.0289,10.0289,10.0289,10.0289,10.0289,10.0289,10.0289,10.0289,10.0289,9.9942,9.9558,9.9558,9.9173,9.8942,9.9481,9.9558,9.9827,10.0712,10.0789,10.0904,10.1289,10.1289,10.1289,10.1289,10.1289,10.1096,10.0596,10.0289,9.975,9.8865,9.8019,9.6825,9.5311,9.4476,9.3764,9.3051,9.2229,9.1803,9.1803,9.1803,9.1803,9.1803,9.1803,9.1803,9.1803,9.1803,9.1803,7.2698,7.5101,7.7699,7.9054,7.9054,7.7685,7.396,0.0,7.0398,6.6667,6.5897,6.6051,6.6654,6.7654,6.859,6.9206,7.1706,7.5438,8.0708,8.3016,8.6017,9.1133,0.0,9.1248,0.0,0.0,0.0,0.0,0.0,9.5634,9.6288,9.5711,9.5672,9.6288,9.6288,9.6288,9.6288,9.6288,9.6288,9.6288,9.6288,9.6288,9.6288,9.6288,9.6288,9.6288,9.6288,9.6442,0.0,9.6634,9.7134,9.7904,9.8173,9.9019,10.0096,10.0404,10.0789,10.1289,10.1289,10.1289,10.1289,10.1289,10.1289,10.1289,10.1289,10.1289,10.1289,10.1289,10.1289,10.1289,10.1289,10.1289,10.1289,10.1289,10.0904,10.0481,10.0481,9.9981,9.9712,10.0289,10.0481,10.0596,10.1212,10.1289,10.1212,10.1019,10.1096,10.1212,10.1019,10.1212,10.1019,10.0173,9.9865,9.9365,9.8481,9.7634,9.6674,9.5615,9.4817,9.4325,9.3986,9.3033,9.2639,9.286,9.2647,9.2537,9.2537,9.2281,9.217,9.217,9.1913,9.1803,7.3293,7.4716,7.537,7.7877,7.7278,7.5372,7.2786,7.0929,6.8981,6.641,6.5897,6.5897,6.5897,6.7308,6.8424,6.8398,6.9821,7.3591,8.1208,8.2324,8.4209,0.0,0.0,8.994,8.9902,9.2979,0.0,0.0,0.0,0.0,9.6288,9.6288,9.6288,9.6288,9.6288,9.6288,9.6288,9.6288,9.6288,9.6288,9.6288,9.6288,9.6288,9.6288,9.6288,9.6288,9.6288,9.6749,0.0,9.748,9.8019,9.8865,9.975,10.0096,10.0173,10.1019,10.1289,10.1289,10.1289,10.1289,10.1289,10.1289,10.1289,10.1289,10.1289,10.1289,10.1289,10.1289,10.1289,10.1289,10.1289,10.1289,10.1289,10.1289,10.1289,10.1289,10.1289,10.1289,10.1289,10.1289,10.1289,10.1289,10.1289,10.1289,10.1019,10.0212,10.0789,10.1019,10.0212,10.0789,10.1019,10.0173,9.9327,9.8442,9.7596,9.6788,9.6326,9.6288,9.5576,9.5532,9.6333,9.4967,9.4589,9.5334,9.4665,9.4263,9.4263,9.3455,9.3088,9.3088,9.2207,9.1803,6.9078,7.1199,7.3193,7.3998,7.4228,7.3607,7.1063,7.0079,6.8963,6.6436,6.5897,6.5897,6.5897,6.7269,6.8411,6.8398,6.9821,7.3783,8.2016,8.267,8.5286,9.3326,9.2749,9.2364,0.0,0.0,0.0,0.0,0.0,9.6288,9.6288,9.6288,9.6288,9.6288,9.6288,9.6288,9.6288,9.6288,9.6288,9.6288,9.6288,9.6288,9.6288,9.6288,9.6288,9.6326,9.6865,9.725,9.7557,9.8134,9.8904,9.9712,9.9981,10.0404,10.0981,10.1212,10.1289,10.1289,10.1289,10.1289,10.1289,10.1289,10.1289,10.1289,10.1289,10.1289,10.1289,10.1289,10.1289,10.1289,10.1289,10.1289,10.1289,10.1289,10.1289,10.1289,10.1289,10.1289,10.1289,10.1289,10.1289,10.1289,10.1289,10.1289,10.1019,10.0212,10.0789,10.1019,10.0212,10.0289,10.0212,9.9288,9.8442,9.7788,9.7519,9.6749,9.6288,9.6288,9.6112,9.6104,9.6371,9.6058,9.5705,9.5437,9.518,9.477,9.4299,9.4042,9.3639,9.3088,9.2831,9.2354,6.7179,6.914,7.1065,7.239,7.239,7.165,7.0054,6.8963,6.7795,6.623,6.5897,6.5974,6.6307,6.7487,6.8912,7.0525,7.1102,7.4245,8.2439,8.2324,8.4247,9.2018,0.0,0.0,0.0,0.0,0.0,0.0,0.0,9.6288,9.6288,9.6288,9.6288,9.6288,9.6288,9.6288,9.6288,9.6288,9.6288,9.6288,9.6288,9.6288,9.6288,9.6288,9.648,9.6788,9.7288,9.7865,0.0,9.9058,9.9788,10.0596,10.0596,10.0904,10.1289,10.1289,10.1289,10.1289,10.1289,10.1289,10.1289,10.1289,10.1289,10.1289,10.1289,10.1289,10.1289,10.1289,10.1289,10.1289,10.1289,10.1289,10.1289,10.1289,10.1289,10.1289,10.1289,10.1289,10.1289,10.1289,10.1289,10.1212,10.0904,10.0789,10.0596,9.9712,9.9981,10.0212,9.9673,9.9596,9.9288,9.8404,9.7827,9.7365,9.7057,9.6596,9.6442,9.6749,9.6782,9.7112,9.7763,9.7578,9.7382,9.7229,9.6591,9.6071,9.566,9.5,9.4336,9.3565,9.3235,9.2831,0.0,6.8052,6.8924,7.2084,7.1133,6.9425,6.9425,6.7603,0.0,6.5897,6.5897,6.6128,6.6923,6.7988,6.999,7.3755,7.3332,7.5062,8.2208,8.1708,8.2401,0.0,9.071,0.0,0.0,0.0,0.0,0.0,0.0,9.6288,9.6288,9.6288,9.6288,9.6288,9.6288,9.6288,9.6288,9.6288,9.6288,9.6288,9.6288,9.6288,9.6288,9.6365,9.6788,0.0,9.7634,9.8596,10.0096,10.0173,10.0596,10.1289,10.1289,10.1289,10.1289,10.1289,10.1289,10.1289,10.1289,10.1289,10.1289,10.1289,10.1289,10.1289,10.1289,10.1289,10.1289,10.1289,10.1289,10.1289,10.1289,10.1289,10.1289,10.1289,10.1289,10.1289,10.1289,10.1289,10.1289,10.1289,10.1289,10.1019,10.0212,9.9981,9.9712,9.8827,9.875,9.8788,9.8711,9.8711,9.8404,9.7596,9.7442,9.7134,9.6442,9.6403,9.6711,9.7442,9.7634,9.8404,9.9981,9.9447,9.9431,10.0185,9.8591,9.7763,9.7695,9.6289,9.518,9.4373,9.3639,9.3198,6.3484,0.0,6.582,6.6654,6.6808,6.6769,0.0,6.6346,6.5897,6.5897,6.5897,6.6128,6.6923,6.9951,7.1992,7.1025,7.385,7.6932,7.9361,8.4786,8.921,9.1095,9.3749,9.5634,0.0,0.0,0.0,0.0,9.6288,9.6288,9.6288,9.6288,9.6288,9.6288,9.6288,9.6288,9.6288,9.6288,9.6288,9.6288,9.6288,9.6288,9.6326,9.6942,9.7326,9.7557,9.8904,9.9712,10.0096,10.0789,10.1096,10.1289,10.1289,10.1289,10.1289,10.1289,10.1289,10.1289,10.1289,10.1289,10.1289,10.1289,10.1289,10.1289,10.1289,10.1289,10.1289,10.1289,10.1289,10.1289,10.1289,10.1289,10.1289,10.1289,10.1289,10.1289,10.1289,10.1289,10.1289,10.1289,10.0789,10.0289,10.0096,9.9558,9.8788,9.7942,9.8365,9.8557,9.7904,9.7827,9.7711,9.7519,9.6942,9.6749,9.7173,9.7211,9.7288,9.748,9.875,9.9673,10.0096,10.0517,10.0569,10.0185,9.8591,9.7525,9.699,9.6541,9.5988,9.5217,9.5034,9.4299,6.2031,6.3223,6.4443,6.4825,6.5474,6.5974,6.5974,6.5936,6.5897,6.5897,6.6167,6.6731,6.7641,6.999,7.2591,7.5203,7.6555,7.8391,8.1554,8.7632,9.1979,9.2441,9.5057,9.6865,0.0,0.0,0.0,0.0,9.6288,9.6288,9.6288,9.6288,9.6288,9.6288,9.6288,9.6288,9.6288,9.6288,9.6288,9.6288,9.6673,9.6865,9.6865,9.7711,9.8327,9.875,9.9673,10.0289,10.0712,10.1096,10.1289,10.1289,10.1289,10.1289,10.1289,10.1289,10.1289,10.1289,10.1289,10.1289,10.1289,10.1289,10.1289,10.1289,10.1289,10.1289,10.1289,10.1289,10.1289,10.1289,10.1289,10.1289,10.1289,10.1289,10.1289,10.1289,10.1289,10.1289,10.1289,10.1289,10.0712,9.9981,9.9558,9.8788,9.8057,9.7557,9.7596,9.7634,9.7519,9.7173,9.7096,9.7442,9.7096,9.7211,9.8019,9.8442,9.8673,9.8673,9.9558,10.0289,10.0596,10.1096,10.1008,10.0185,9.9007,9.7927,9.721,9.6877,9.6502,9.6061,9.5694,9.485,6.1719,6.2773,6.4161,6.5428,6.5947,6.629,6.6819,6.6538,6.6167,6.6128,6.7218,6.8437,6.9323,7.1029,7.4553,8.1354,8.0235,8.0267,8.5368,8.9671,9.2402,9.2633,9.5441,0.0,0.0,0.0,0.0,0.0,9.6403,9.648,9.648,9.6596,9.6673,9.6673,9.6673,9.6673,9.6673,9.6442,9.6365,9.648,9.7173,9.7557,9.775,9.8596,9.9404,10.0096,0.0,0.0,10.1289,10.1289,10.1289,10.1289,10.1289,10.1289,10.1289,10.1289,10.1289,10.1289,10.1289,10.1289,10.1289,10.1289,10.1289,10.1289,10.1289,10.1289,10.1289,10.1289,10.1289,10.1289,10.1289,10.1289,10.1289,10.1289,10.1289,10.1289,10.1289,10.1289,10.1289,10.1096,10.0481,9.9596,9.875,9.7904,9.7326,9.7326,9.6749,9.6557,9.725,9.6826,9.6749,9.7442,9.7634,9.8057,9.8904,9.9673,10.0173,10.0289,10.0289,10.0596,10.1289,10.1289,10.1008,10.0185,9.9547,9.8712,9.783,9.7137,9.6801,9.6685,9.6025,9.5254,6.1719,6.293,6.4921,6.7835,6.7438,6.7095,7.001,6.9001,6.7372,6.7218,7.0298,7.3009,7.3047,7.9158,8.3652,8.2179,8.311,8.445,0.0,0.0,9.1941,9.3364,0.0,0.0,0.0,0.0,0.0,9.6288,9.6942,9.7326,9.7326,9.8019,9.8404,9.8404,9.8404,9.8404,9.8404,9.7019,9.6634,9.7326,9.7442,9.7904,9.8634,9.9481,9.9981,10.0096,0.0,10.1212,10.1289,10.1289,10.1289,10.1289,10.1289,10.1289,10.1289,10.1289,10.1289,10.1289,10.1289,10.1289,10.1289,10.1289,10.1289,10.1289,10.1289,10.1289,10.1289,10.1289,10.1289,10.1289,10.1289,10.1289,10.1289,10.1289,10.1289,10.1289,10.1289,10.1289,10.1096,10.0404,9.9596,9.8711,9.7865,9.7019,9.648,9.648,9.6365,9.6326,9.648,9.698,9.7365,9.748,9.8173,9.8942,9.9827,9.9981,10.0404,10.1096,10.1096,10.1212,10.1289,10.1289,10.1008,10.0185,10.0087,9.9291,9.783,9.7695,9.7317,9.6685,9.6575,9.6098,6.2265,6.332,6.5547,7.082,7.0351,6.9135,7.1185,7.1755,7.1184,6.8704,7.1364,7.4262,7.4676,7.8338,8.2143,8.4767,0.0,9.1129,9.1864,9.3595,9.5095,0.0,0.0,0.0,0.0,0.0,0.0,9.6903,9.7288,9.7711,9.8173,9.8596,9.8788,9.8788,9.8788,9.8788,9.8788,9.8057,9.7827,9.8211,9.8673,9.9096,9.9519,10.0404,10.0712,10.0789,0.0,10.1289,10.1289,10.1289,10.1289,10.1289,10.1289,10.1289,10.1289,10.1289,10.1289,10.1289,10.1289,10.1289,10.1289,10.1289,10.1289,10.1289,10.1289,10.1289,10.1289,10.1289,10.1289,10.1289,10.1289,10.1289,10.1289,10.1289,10.1289,10.1289,10.1289,10.0981,10.0481,10.0173,9.9019,9.798,9.7557,9.7211,9.6942,9.6942,9.7365,9.7634,9.7634,9.798,9.8365,9.8865,9.925,9.9827,10.0712,10.0712,10.0904,10.1289,10.1289,10.1289,10.1289,10.1289,10.1093,10.0804,10.0413,9.96,9.8467,9.7993,9.7422,9.6685,9.6685,9.6282,6.3008,6.4219,6.6797,7.2305,7.2422,7.164,7.3515,7.5234,7.5408,7.1801,7.4186,7.7166,7.7881,7.9101,8.1953,8.7812,9.2401,0.0,0.0,0.0,0.0,0.0,0.0,0.0,0.0,0.0,0.0,9.7519,9.7827,9.8327,9.9135,9.9365,9.9442,9.9404,9.9404,9.9404,9.9404,9.9404,9.9288,9.9096,9.9788,10.0173,10.0404,10.1019,10.1289,10.1289,10.1289,10.1289,10.1289,10.1289,10.1289,10.1289,10.1289,10.1289,10.1289,10.1289,10.1289,10.1289,10.1289,10.1289,10.1289,10.1289,10.1289,10.1289,10.1289,10.1289,10.1289,10.1289,10.1289,10.1289,10.1289,10.1289,10.1289,10.1289,10.1289,10.1289,10.1289,10.0789,10.0289,10.0096,9.9019,9.8057,9.7827,9.7788,9.7788,9.7788,9.8365,9.8788,9.8788,9.8981,9.9365,9.9981,10.0289,10.0596,10.1212,10.1289,10.1289,10.1289,10.1289,10.1289,10.1289,10.1289,10.1289,10.1289,10.0722,10.0087,9.9291,9.8467,9.7732,9.699,9.6762,9.6392,6.3633,6.5937,6.9336,7.0664,7.2031,7.4375,7.9219,7.9844,7.9023,7.7808,8.1675,8.5309,8.5195,8.7929,9.0351,9.0742,9.2381,0.0,0.0,0.0,0.0,0.0,0.0,0.0,0.0,0.0,9.6942,9.7825,9.8865,9.9711,10.0289,10.1096,10.1404,10.1096,10.1096,10.1096,10.1096,10.1096,10.0712,9.9981,10.0096,10.0481,10.1212,10.1289,10.1289,10.1289,10.1289,10.1289,10.1289,10.1289,10.1289,10.1289,10.1289,10.1289,10.1289,10.1289,10.1289,10.1289,10.1289,10.1289,10.1289,10.1289,10.1289,10.1289,10.1289,10.1289,10.1289,10.1289,10.1289,10.1289,10.1289,10.1289,10.1289,10.1289,10.1289,10.1289,10.1289,10.1289,10.1019,10.0212,9.9981,9.9635,9.8865,9.8711,9.8711,9.8711,9.875,9.8788,9.8788,9.9519,9.9981,10.0096,10.0789,10.1212,10.1289,10.1289,10.1289,10.1289,10.1289,10.1289,10.1289,10.1289,10.1289,10.1289,10.1211,10.0885,10.0136,9.9291,9.8529,9.7695,9.7027,9.6685,6.3945,6.6953,7.0937,7.3984,7.6015,7.7656,7.9101,8.2461,8.4414,8.1367,8.3672,8.6836,8.8867,8.9922,9.1719,9.539,9.4258,0.0,0.0,0.0,0.0,0.0,0.0,0.0,0.0,0.0,0.0,9.8893,9.9811,10.0703,10.1414,10.1581,10.1712,10.1597,10.1404,10.1289,10.1289,10.1289,10.1096,10.0789,10.0789,10.1019,10.1289,10.1289,10.1289,10.1289,10.1289,10.1289,10.1289,10.1289,10.1289,10.1289,10.1289,10.1289,10.1289,10.1289,10.1289,10.1289,10.1289,10.1289,10.1289,10.1289,10.1289,10.1289,10.1289,10.1289,10.1404,10.202,10.2097,10.2097,10.2097,10.2097,10.2097,10.2097,10.2097,10.202,10.1404,10.0904,10.0481,10.0173,9.9635,9.9173,9.8865,9.925,9.9596,9.9596,9.9981,10.0404,10.0404,10.0596,10.0789,10.0789,10.1096,10.1289,10.1289,10.1289,10.1289,10.1289,10.1289,10.1289,10.1289,10.1289,10.1289,10.1289,10.1289,10.0889,10.0185,9.9401,9.8591,9.7763,9.7027,9.6685,6.4375,6.8437,7.3281,7.543,7.8867,8.1523,8.0703,8.3711,8.6094,8.3984,8.6679,8.9765,9.0703,9.1523,0.0,0.0,9.4765,0.0,0.0,0.0,0.0,0.0,0.0,0.0,0.0,0.0,0.0,9.9604,10.0509,10.1386,10.2205,10.2084,10.1881,10.1828,10.1597,10.1404,10.1404,10.1289,10.1289,10.1289,10.1289,10.1289,10.1289,10.1289,10.1289,10.1289,10.1289,10.1289,10.1289,10.1289,10.1289,10.1289,10.1289,10.1289,10.1289,10.1289,10.1289,10.1289,10.1289,10.1289,10.1289,10.1289,10.1289,10.1289,10.1289,10.152,10.1789,10.2404,10.2789,10.2981,10.2981,10.2789,10.2597,10.2597,10.2404,10.202,10.1404,10.0904,10.0481,10.0481,9.9981,9.9596,9.9596,10.0096,10.0481,10.0481,10.0904,10.1289,10.1289,10.1289,10.1289,10.1289,10.1289,10.1289,10.1289,10.1289,10.1289,10.1289,10.1289,10.1289,10.1289,10.1289,10.1289,10.1289,10.1289,10.1088,10.0505,9.9758,9.9122,9.8529,9.7492,9.7027,6.5156,7.0703,7.664,7.4062,7.9844,8.5976,8.5117,8.3594,8.3086,8.5664,9.1679,9.5156,9.0859,9.3554,0.0,0.0,0.0,0.0,0.0,0.0,0.0,0.0,0.0,0.0,0.0,0.0,0.0,9.9863,10.1008,10.1914,10.25,10.25,10.2398,10.2097,10.1828,10.1673,10.1712,10.1404,10.1289,10.1289,10.1289,10.1289,10.1289,10.1289,10.1289,10.1289,10.1289,10.1289,10.1289,10.1289,10.1289,10.1289,10.1289,10.1289,10.1289,10.1289,10.1289,10.1289,10.1289,10.1289,10.1289,10.1289,10.1289,10.1289,10.1289,10.1904,10.2597,10.2597,10.3212,10.3905,10.3905,10.3289,10.2597,10.2597,10.1904,10.1289,10.1289,10.1289,10.1289,10.1289,10.1289,10.1289,10.1289,10.1289,10.1289,10.1289,10.1289,10.1289,10.1289,10.1289,10.1289,10.1289,10.1289,10.1289,10.1289,10.1289,10.1289,10.1289,10.1289,10.1289,10.1289,10.1289,10.1289,10.1289,10.1289,10.1289,10.1289,10.0627,10.0185,10.0174,9.8529,9.783,7.418,7.8359,8.1953,8.3008,8.4297,8.5703,8.7226,8.7187,8.6679,8.6289,9.1211,9.5195,9.3906,9.3711,0.0,0.0,0.0,0.0,0.0,0.0,0.0,0.0,0.0,0.0,0.0,0.0,0.0,0.0,10.2011,10.2617,10.2812,10.2617,10.2488,10.241,10.2109,10.1981,10.202,10.1904,10.1904,10.1904,10.1904,10.1712,10.1289,10.1289,10.1289,10.1289,10.1289,10.1289,10.1289,10.1289,10.1289,10.1289,10.1289,10.1712,10.2212,10.2212,10.2212,10.2212,10.2212,10.1789,10.1289,10.1289,10.1289,10.1404,10.202,10.2404,10.2789,10.3982,10.4097,10.3982,10.4597,10.3712,10.2597,10.2597,10.2404,10.202,10.1404,10.1289,10.1289,10.1289,10.1289,10.1289,10.1289,10.1289,10.1289,10.1289,10.1289,10.1289,10.1289,10.1289,10.1289,10.1289,10.1289,10.1289,10.1289,10.1289,10.1289,10.1289,10.1289,10.1289,10.1289,10.1289,10.1289,10.1289,10.1289,10.1289,10.1289,10.0627,10.0185,10.0174,9.8529,9.783,7.5937,8.0039,8.4062,8.5976,8.6953,8.7734,8.8945,8.9219,8.8945,8.7929,9.25,9.6523,9.5859,9.5664,0.0,0.0,0.0,0.0,0.0,0.0,0.0,0.0,0.0,0.0,0.0,0.0,0.0,0.0,0.0,10.289,10.289,10.2695,10.2695,10.2695,10.2398,10.2289,10.2288,10.2194,10.2082,10.2082,10.2469,10.2392,10.2121,10.1786,10.1597,10.1597,10.1481,10.1597,10.1789,10.1789,10.202,10.2289,10.2289,10.2712,10.3097,10.3097,10.3097,10.3097,10.3097,10.252,10.1789,10.1789,10.1597,10.152,10.2289,10.2789,10.3289,10.4289,10.4482,10.4289,10.4212,10.3405,10.2597,10.2597,10.2289,10.1904,10.1404,10.1289,10.1289,10.1289,10.1289,10.1289,10.1289,10.1289,10.1289,10.1289,10.1289,10.1289,10.1289,10.1289,10.1289,10.1289,10.1289,10.1289,10.1289,10.1289,10.1289,10.1289,10.1289,10.1289,10.1289,10.1289,10.1289,10.1289,10.1289,10.1289,10.1289,10.0923,10.0595,10.0589,9.9346,9.8772,7.3789,7.8398,8.3945,8.5351,8.8633,9.1328,9.0547,9.0469,9.0469,8.9961,9.4609,9.8242,9.6562,9.8359,0.0,0.0,0.0,0.0,0.0,0.0,0.0,0.0,0.0,0.0,0.0,0.0,0.0,0.0,0.0,10.289,10.289,10.289,10.289,10.289,10.2695,10.2617,10.2695,10.2398,10.2301,10.2417,10.3199,10.3608,10.3588,10.267,10.2288,10.2288,10.2097,10.2212,10.2789,10.2712,10.3212,10.3905,10.3905,10.3905,10.3982,10.3982,10.3982,10.3982,10.3982,10.3405,10.2712,10.2597,10.2097,10.1712,10.252,10.3289,10.3982,10.3982,10.4482,10.4597,10.302,10.252,10.252,10.252,10.1904,10.1289,10.1289,10.1289,10.1289,10.1289,10.1289,10.1289,10.1289,10.1289,10.1289,10.1289,10.1289,10.1289,10.1289,10.1289,10.1289,10.1289,10.1289,10.1289,10.1289,10.1289,10.1289,10.1289,10.1289,10.1289,10.1289,10.1289,10.1289,10.1289,10.1289,10.1289,10.1289,10.1289,10.1289,10.1327,10.0505,10.0185,8.1914,8.3906,8.4961,9.0547,9.2656,9.3281,9.3086,9.4101,9.3945,8.9844,9.3281,9.6523,9.4765,0.0,0.0,0.0,0.0,0.0,0.0,0.0,0.0,0.0,0.0,0.0,0.0,0.0,0.0,0.0,0.0,0.0,10.289,10.289,10.289,10.289,10.2812,10.3086,10.3789,10.378,10.4085,10.4784,10.4985,10.5009,10.5009,10.4378,10.4075,10.409,10.3894,10.3829,10.3906,10.3674,10.3712,10.3905,10.3905,10.4289,10.4789,10.4789,10.4789,10.4789,10.4789,10.4289,10.3482,10.2789,10.2904,10.3405,10.3597,10.4212,10.4789,10.4789,10.4482,10.3905,10.2904,10.2097,10.1597,10.1597,10.1404,10.1289,10.1289,10.1289,10.1289,10.1289,10.1289,10.1289,10.1289,10.1289,10.1289,10.1289,10.1289,10.1289,10.1289,10.1289,10.1289,10.1289,10.1289,10.1289,10.1289,10.1289,10.1289,10.1289,10.1289,10.1289,10.1289,10.1289,10.1289,10.1289,10.1289,10.1289,10.1289,10.1289,10.1289,10.1327,10.0505,10.0185,8.1367,8.3398,8.5078,9.1133,9.3906,9.5039,9.4609,9.5859,9.6289,9.3554,9.5195,9.6797,0.0,0.0,0.0,0.0,0.0,0.0,0.0,0.0,0.0,0.0,0.0,0.0,0.0,0.0,0.0,0.0,0.0,10.289,10.289,10.289,10.289,10.289,10.3281,10.3711,10.4219,10.4609,10.5117,10.5508,10.5888,10.6305,10.6695,10.5602,10.5017,10.489,10.4694,10.4799,10.4983,10.483,10.4905,10.529,10.5097,10.5405,10.5713,10.5713,10.5713,10.5713,10.5713,10.5213,10.4405,10.3905,10.3789,10.3982,10.4405,10.4789,10.4982,10.4597,10.4212,10.3597,10.2289,10.1597,10.1289,10.1289,10.1289,10.1289,10.1289,10.1289,10.1289,10.1289,10.1289,10.1289,10.1289,10.1289,10.1289,10.1289,10.1289,10.1289,10.1289,10.1289,10.1289,10.1289,10.1289,10.1289,10.1289,10.1289,10.1289,10.1289,10.1289,10.1289,10.1289,10.1289,10.1289,10.1289,10.1289,10.1289,10.1289,10.1289,10.1289,10.1327,10.0928,10.0722,7.6758,8.0742,8.5429,9.0312,9.4023,9.6328,9.5586,9.6601,9.7695,9.7695,9.7695,9.7695,0.0,0.0,0.0,0.0,0.0,0.0,0.0,0.0,0.0,0.0,0.0,0.0,0.0,0.0,0.0,0.0,0.0,10.289,10.289,10.289,10.3008,10.3086,10.3789,10.4297,10.4609,10.5312,10.5781,10.5898,10.6601,10.7304,10.8008,10.6601,10.5781,10.5586,10.5586,10.578,10.6227,10.5906,10.6102,10.679,10.6521,10.6405,10.6405,10.6405,10.6405,10.6405,10.6405,10.5905,10.529,10.5097,10.4789,10.4405,10.4905,10.5213,10.5097,10.4212,10.3905,10.3482,10.1789,10.1289,10.1289,10.1289,10.1289,10.1289,10.1289,10.1289,10.1289,10.1289,10.1289,10.1289,10.1289,10.1289,10.1289,10.1289,10.1289,10.1289,10.1289,10.1289,10.1289,10.1289,10.1289,10.1289,10.1289,10.1289,10.1289,10.1289,10.1289,10.1289,10.1289,10.1289,10.1289,10.1289,10.1289,10.1289,10.1289,10.1289,10.1289,10.1289,10.1289,10.1289,7.1601,7.9765,8.7851,9.1523,9.4492,9.6484,9.6367,9.7031,9.7695,0.0,9.7695,0.0,0.0,0.0,0.0,0.0,0.0,0.0,0.0,0.0,0.0,0.0,0.0,0.0,0.0,0.0,0.0,0.0,10.289,10.289,10.289,10.289,10.3203,10.3984,10.4101,10.4883,10.6406,10.6484,10.6914,10.7695,10.7812,10.789,10.8008,10.7812,10.7617,10.7617,10.7383,10.73,10.73,10.681,10.6697,10.679,10.6521,10.6405,10.6405,10.6405,10.6405,10.6405,10.6405,10.629,10.6097,10.529,10.5482,10.5905,10.529,10.5597,10.5905,10.4289,10.3905,10.3482,10.1789,10.1289,10.1289,10.1289,10.1289,10.1289,10.1289,10.1289,10.1289,10.1289,10.1289,10.1289,10.1289,10.1289,10.1289,10.1289,10.1289,10.1289,10.1289,10.1289,10.1289,10.1289,10.1289,10.1289,10.1289,10.1289,10.1289,10.1289,10.1289,10.1289,10.1289,10.1289,10.1289,10.1289,10.1289,10.1289,10.1289,10.1289,10.1289,10.1289,10.1289,10.1289,7.1055,7.9961,8.7969,8.9922,9.3476,9.6484,9.6484,9.7109,9.7695,9.7695,0.0,0.0,0.0,0.0,0.0,0.0,0.0,0.0,0.0,0.0,0.0,0.0,0.0,0.0,0.0,0.0,0.0,0.0,10.289,10.289,10.289,10.3398,10.3789,10.4219,10.5117,10.6015,10.6719,10.7187,10.7617,10.8008,10.8008,10.8008,10.8008,10.8008,10.8008,10.8008,10.789,10.7812,10.7812,10.7387,10.7192,10.6982,10.6713,10.6521,10.6405,10.6405,10.6405,10.6405,10.6405,10.6405,10.629,10.602,10.6097,10.629,10.5905,10.6097,10.6097,10.4405,10.3905,10.3482,10.1789,10.1289,10.1289,10.1289,10.1289,10.1289,10.1289,10.1289,10.1289,10.1289,10.1289,10.1289,10.1289,10.1289,10.1289,10.1289,10.1289,10.1289,10.1289,10.1289,10.1289,10.1289,10.1289,10.1289,10.1289,10.1289,10.1289,10.1289,10.1289,10.1289,10.1289,10.1289,10.152,10.202,10.152,10.1289,10.1289,10.1289,10.1289,10.1289,10.1289,10.1289,7.1211,7.8633,8.5156,8.7734,9.1797,9.5469,9.6562,9.7422,9.8047,0.0,0.0,0.0,0.0,0.0,0.0,0.0,0.0,0.0,0.0,0.0,0.0,0.0,0.0,0.0,0.0,0.0,0.0,0.0,10.289,10.289,10.289,10.3711,10.4297,10.4492,10.5898,10.6797,10.6992,10.7695,10.8008,10.8008,10.8008,10.8008,10.8008,10.8008,10.8008,10.8008,10.8008,10.8008,10.8008,10.7695,10.7508,10.7285,10.6873,10.6713,10.6521,10.6405,10.6405,10.6405,10.6405,10.6405,10.6405,10.6405,10.6405,10.6405,10.6405,10.6213,10.579,10.4289,10.3712,10.3212,10.1712,10.1289,10.1289,10.1289,10.1289,10.1289,10.1289,10.1289,10.1289,10.1289,10.1289,10.1289,10.1289,10.1289,10.1289,10.1289,10.1289,10.1289,10.1289,10.1289,10.1289,10.1289,10.1289,10.1289,10.1289,10.1289,10.1289,10.1289,10.1289,10.1404,10.1597,10.1597,10.202,10.2904,10.2289,10.1904,10.1597,10.1404,10.1289,10.1289,10.1289,10.1289,7.0625,7.4258,7.8281,8.5703,8.957,9.2656,9.6719,9.832,9.8945,0.0,0.0,0.0,0.0,0.0,0.0,0.0,0.0,0.0,0.0,0.0,0.0,0.0,0.0,0.0,0.0,0.0,0.0,0.0,10.289,10.289,10.289,10.3711,10.4609,10.539,10.6289,10.7109,10.789,10.8008,10.8008,10.8008,10.8008,10.8008,10.8008,10.8008,10.8008,10.8008,10.8008,10.8008,10.8008,10.7695,10.7616,10.7518,10.7006,10.679,10.6713,10.6521,10.6405,10.6405,10.6405,10.6405,10.6405,10.6405,10.6405,10.6405,10.6405,10.579,10.4982,10.4097,10.3289,10.252,10.152,10.1289,10.1289,10.1289,10.1289,10.1289,10.1289,10.1289,10.1289,10.1289,10.1289,10.1289,10.1289,10.1289,10.1289,10.1289,10.1289,10.1289,10.1289,10.1289,10.1289,10.1289,10.1289,10.1289,10.1289,10.1289,10.1289,10.1289,10.1289,10.1712,10.252,10.252,10.2904,10.3789,10.3789,10.3405,10.252,10.1712,10.1289,10.1289,10.1289,10.1289,6.7109,7.0976,7.5312,7.9765,8.4062,8.7734,8.9844,9.3125,9.5586,9.5,0.0,0.0,0.0,0.0,0.0,0.0,0.0,0.0,0.0,0.0,0.0,0.0,0.0,0.0,0.0,0.0,0.0,0.0,0.0,10.3086,10.3711,10.4609,10.539,10.6211,10.7109,10.7695,10.8008,10.8008,10.8008,10.8008,10.8008,10.8008,10.8008,10.8008,10.8008,10.8008,10.8008,10.8008,10.8008,10.789,10.7383,10.6796,10.7192,10.6783,10.602,10.5905,10.5713,10.5597,10.5597,10.5597,10.5713,10.6213,10.6405,10.6405,10.6405,10.579,10.4905,10.4097,10.3289,10.2404,10.152,10.1289,10.1289,10.1289,10.1289,10.1289,10.1289,10.1289,10.1289,10.1289,10.1289,10.1289,10.1289,10.1289,10.1289,10.1289,10.1289,10.1289,10.1289,10.1289,10.1289,10.1289,10.1289,10.1289,10.1289,10.1289,10.152,10.2097,10.2097,10.252,10.3405,10.3405,10.3789,10.4713,10.4212,10.3482,10.2597,10.2289,10.1789,10.1289,10.1289,10.1289,6.4765,6.8086,7.1992,7.5469,7.9336,8.3008,8.5625,8.9961,9.3476,9.3476,0.0,0.0,0.0,0.0,0.0,0.0,0.0,0.0,0.0,0.0,0.0,0.0,0.0,0.0,0.0,0.0,0.0,0.0,0.0,0.0,10.4219,10.5,10.6015,10.7109,10.7695,10.8008,10.8008,10.8008,10.8008,10.8008,10.8008,10.8008,10.8008,10.8008,10.8008,10.8008,10.8008,10.8008,10.8008,10.8008,10.7617,10.6914,10.7383,10.6806,10.5585,10.5525,10.5174,10.4713,10.4713,10.4713,10.4789,10.5405,10.5597,10.5597,10.5597,10.4982,10.4097,10.3597,10.2789,10.202,10.152,10.1289,10.1289,10.1289,10.1289,10.1289,10.1289,10.1289,10.1289,10.1289,10.1289,10.1289,10.1289,10.1289,10.1289,10.1289,10.1289,10.1289,10.1289,10.1289,10.1289,10.1289,10.1289,10.1404,10.1712,10.1712,10.2097,10.2981,10.302,10.3405,10.4289,10.4289,10.4713,10.5482,10.4982,10.4289,10.3405,10.2904,10.2289,10.1712,10.1404,10.1289,0.0,0.0,0.0,7.3164,7.5742,7.8633,8.4648,0.0,9.2851,0.0,0.0,0.0,0.0,0.0,0.0,0.0,0.0,0.0,0.0,0.0,0.0,0.0,0.0,0.0,0.0,0.0,0.0,0.0,10.289,10.3281,10.4219,10.5117,10.6289,10.789,10.8008,10.8008,10.8008,10.8008,10.8008,10.8008,10.8008,10.8008,10.8008,10.8008,10.789,10.789,10.8008,10.789,10.789,10.8008,10.8008,10.789,10.7695,10.6896,10.5786,10.5512,10.4789,10.3905,10.3905,10.3905,10.3905,10.3905,10.3905,10.3905,10.3905,10.3289,10.2597,10.2597,10.202,10.1289,10.1289,10.1289,10.1289,10.1289,10.1289,10.1289,10.1289,10.1289,10.1289,10.1289,10.1289,10.1289,10.1289,10.1289,10.1289,10.1289,10.1289,10.1289,10.1289,10.1289,10.1289,10.1289,10.1404,10.1712,10.2597,10.2597,10.2981,10.3905,10.3905,10.4289,10.5097,10.5097,10.5482,10.6405,10.6405,10.602,10.5097,10.3482,10.2597,10.2597,10.1712,10.1289,6.4219,0.0,0.0,0.0,0.0,0.0,0.0,0.0,0.0,0.0,0.0,0.0,0.0,0.0,0.0,0.0,0.0,0.0,0.0,0.0,0.0,0.0,0.0,0.0,0.0,0.0,0.0,0.0,10.3515,10.4219,10.5117,10.6484,10.75,10.8008,10.8008,10.8008,10.8008,10.8008,10.8008,10.8008,10.8008,10.7695,10.7109,10.7109,10.6719,10.6211,10.6797,10.6719,10.6289,10.75,10.7304,10.6211,10.6797,10.5894,10.4311,10.4118,10.3713,10.3212,10.302,10.2981,10.3097,10.3712,10.3905,10.3905,10.3905,10.3289,10.2597,10.2597,10.202,10.1289,10.1289,10.1289,10.1289,10.1289,10.1289,10.1289,10.1289,10.1289,10.1289,10.1289,10.1289,10.1289,10.1289,10.1289,10.1289,10.1289,10.1289,10.1289,10.1289,10.1904,10.2212,10.2212,10.2789,10.3289,10.3482,10.3482,10.3905,10.4713,10.4789,10.5213,10.602,10.602,10.6213,10.6405,10.6405,10.629,10.602,10.4405,10.3212,10.2597,10.1712,10.1289,6.4726,6.5586,6.664,6.789,0.0,0.0,0.0,7.8672,0.0,0.0,0.0,0.0,0.0,0.0,0.0,0.0,0.0,0.0,0.0,0.0,0.0,0.0,0.0,0.0,0.0,10.2617,10.25,10.289,10.3008,10.3789,10.539,10.6719,10.7617,10.8008,10.8008,10.7812,10.75,10.75,10.7304,10.6992,10.6992,10.6914,10.6719,10.6719,10.6406,10.6015,10.6484,10.6211,10.5586,10.6601,10.6406,10.5508,10.6015,10.5195,10.3785,10.3603,10.3095,10.2404,10.2289,10.2212,10.2097,10.2712,10.2789,10.2789,10.2789,10.252,10.2097,10.2097,10.1712,10.1289,10.1289,10.1289,10.1289,10.1289,10.1289,10.1289,10.1289,10.1289,10.1289,10.1289,10.1289,10.1289,10.1289,10.1289,10.1404,10.1789,10.1789,10.202,10.2289,10.2789,10.3097,10.3097,10.3597,10.3982,10.4405,10.4405,10.4789,10.5597,10.5597,10.5905,10.6405,10.6405,10.6405,10.6405,10.6405,10.6097,10.5405,10.4405,10.3289,10.202,10.152,10.1289,6.543,6.5664,6.6133,6.7656,0.0,0.0,7.2109,7.5351,0.0,0.0,0.0,0.0,0.0,0.0,0.0,0.0,0.0,0.0,0.0,0.0,0.0,0.0,0.0,0.0,10.2617,10.2109,10.1992,10.2812,10.2304,10.289,10.5195,10.6093,10.6914,10.7695,10.7812,10.75,10.6719,10.6719,10.6289,10.5586,10.5508,10.5781,10.6406,10.6406,10.6406,10.6289,10.6406,10.6015,10.5195,10.5312,10.539,10.539,10.539,10.4687,10.3711,10.3711,10.2904,10.1894,10.1905,10.1789,10.1597,10.1597,10.1597,10.1597,10.1597,10.1597,10.1597,10.1597,10.1597,10.1597,10.1597,10.1597,10.1597,10.1597,10.1597,10.1597,10.1597,10.1597,10.1597,10.1597,10.152,10.152,10.1597,10.1597,10.1904,10.2597,10.2712,10.302,10.3789,10.3982,10.3982,10.3982,10.4097,10.4482,10.5213,10.5213,10.5597,10.6405,10.6405,10.6405,10.6405,10.6405,10.6405,10.6405,10.6405,10.5597,10.3905,10.3905,10.2981,10.1289,10.1289,10.1289,6.5937,6.6094,6.6719,0.0,0.0,0.0,7.5156,7.5234,7.6601,0.0,0.0,0.0,0.0,0.0,0.0,0.0,0.0,0.0,0.0,0.0,0.0,0.0,0.0,0.0,10.1601,10.1719,10.1992,10.2812,10.3398,10.3906,10.4414,10.5312,10.5781,10.6015,10.6601,10.6914,10.6719,10.6719,10.6601,10.6484,10.5781,10.5195,10.4687,10.4687,10.4297,10.3711,10.4414,10.4219,10.3515,10.4219,10.4492,10.4492,10.4492,10.3906,10.3008,10.2812,10.2996,10.3396,10.3127,10.3406,10.3713,10.3713,10.3597,10.3405,10.3405,10.3405,10.3405,10.3405,10.3405,10.3405,10.3405,10.3405,10.3405,10.3405,10.3405,10.3405,10.3405,10.3405,10.3405,10.3405,10.2789,10.2597,10.3289,10.3405,10.3482,10.3597,10.3597,10.3712,10.3905,10.4482,10.4905,10.4905,10.5482,10.602,10.6097,10.6097,10.6213,10.6405,10.6405,10.6405,10.6405,10.6405,10.6405,10.6405,10.6405,10.5597,10.3905,10.3905,10.2981,10.1289,10.1289,10.1289,0.0,0.0,0.0,6.7539,0.0,0.0,0.0,0.0,0.0,0.0,0.0,0.0,0.0,0.0,0.0,0.0,0.0,0.0,0.0,0.0,0.0,0.0,0.0,0.0,10.0703,10.1015,10.1094,10.1601,10.2383,10.3086,10.3515,10.3984,10.4609,10.5508,10.5898,10.5898,10.5508,10.5508,10.5195,10.4804,10.4414,10.4219,10.4219,10.4219,10.3984,10.3594,10.3984,10.3711,10.3008,10.3789,10.4219,10.4219,10.3711,10.3594,10.3515,10.3398,10.3789,10.441,10.4307,10.4386,10.4497,10.4484,10.4289,10.4097,10.4097,10.4097,10.4097,10.3905,10.402,10.4097,10.3905,10.3905,10.3905,10.3905,10.3905,10.3905,10.3905,10.3905,10.3982,10.4405,10.4097,10.3905,10.3905,10.3905,10.3982,10.4405,10.4482,10.4713,10.5097,10.5482,10.5713,10.5713,10.6097,10.6405,10.6405,10.6405,10.6405,10.6405,10.6405,10.6405,10.6405,10.6405,10.6405,10.6405,10.6405,10.5597,10.3905,10.3905,10.2981,10.1289,10.1289,10.1289,0.0,0.0,0.0,0.0,0.0,6.8867,0.0,0.0,0.0,0.0,0.0,0.0,0.0,0.0,0.0,0.0,0.0,0.0,0.0,0.0,0.0,0.0,0.0,0.0,0.0,10.039,10.0781,10.0312,10.1406,10.2304,10.2617,10.2617,10.3398,10.4883,10.5195,10.4883,10.4219,10.4219,10.3789,10.3086,10.3008,10.3281,10.3906,10.3906,10.3906,10.3984,10.4101,10.3789,10.3203,10.4101,10.4492,10.4414,10.3711,10.3789,10.4492,10.4492,10.4883,10.539,10.539,10.5302,10.5299,10.5286,10.5101,10.4905,10.4905,10.4905,10.4792,10.4635,10.4716,10.4789,10.4597,10.4482,10.4482,10.4482,10.4482,10.4482,10.4482,10.4482,10.4597,10.5213,10.5405,10.5097,10.4482,10.4405,10.4597,10.529,10.5405,10.5597,10.629,10.6405,10.6405,10.6405,10.6405,10.6405,10.6405,10.6405,10.6405,10.6405,10.6405,10.6405,10.6405,10.6405,10.6405,10.6405,10.6405,10.5597,10.3905,10.3905,10.2981,10.1289,10.1289,10.1289,0.0,0.0,0.0,0.0,6.9883,0.0,0.0,0.0,0.0,0.0,0.0,0.0,0.0,0.0,0.0,0.0,0.0,0.0,0.0,0.0,0.0,0.0,0.0,0.0,0.0,0.0,10.2812,10.0508,10.25,10.3281,10.1797,10.1719,10.2187,10.3203,10.3906,10.4297,10.4219,10.4219,10.4219,10.3984,10.3281,10.3008,10.3008,10.3008,10.3008,10.3086,10.3906,10.4101,10.4101,10.5,10.539,10.5312,10.5195,10.5312,10.539,10.539,10.5781,10.6484,10.6484,10.6796,10.7284,10.7285,10.7122,10.6905,10.6905,10.6867,10.6873,10.6796,10.6789,10.6867,10.679,10.679,10.679,10.679,10.679,10.679,10.6482,10.6482,10.6405,10.629,10.629,10.6213,10.6097,10.6097,10.6097,10.6213,10.629,10.629,10.6405,10.6405,10.6405,10.6405,10.6405,10.6405,10.6405,10.6405,10.6405,10.6405,10.6405,10.6405,10.6405,10.6405,10.6405,10.6405,10.6405,10.5597,10.3905,10.3905,10.2981,10.1289,10.1289,10.1289,0.0,0.0,0.0,0.0,0.0,0.0,7.1015,0.0,7.1406,0.0,0.0,0.0,0.0,0.0,0.0,0.0,0.0,0.0,0.0,0.0,0.0,0.0,0.0,0.0,0.0,0.0,0.0,0.0,0.0,9.9609,9.9336,10.0781,10.1992,10.289,10.3281,10.3398,10.3398,10.3398,10.3398,10.3398,10.3086,10.289,10.289,10.3398,10.3711,10.3711,10.4609,10.5,10.5,10.5898,10.6211,10.6211,10.6797,10.6601,10.6211,10.6211,10.6719,10.75,10.75,10.7617,10.7811,10.7691,10.7508,10.7383,10.7197,10.732,10.7413,10.7183,10.7305,10.7422,10.7209,10.7212,10.7212,10.7212,10.7212,10.7212,10.7096,10.6902,10.679,10.6713,10.6521,10.6405,10.6405,10.6405,10.6405,10.6405,10.6405,10.6405,10.6405,10.6405,10.6405,10.6405,10.6405,10.6405,10.6405,10.6405,10.6405,10.6405,10.6405,10.6405,10.6405,10.6405,10.6405,10.6405,10.6405,10.5597,10.3905,10.3905,10.2981,10.1289,10.1289,10.1289,8.289,0.0,0.0,0.0,0.0,0.0,0.0,0.0,0.0,0.0,0.0,0.0,0.0,0.0,0.0,0.0,0.0,0.0,0.0,0.0,0.0,0.0,0.0,0.0,0.0,0.0,0.0,0.0,0.0,0.0,9.7656,9.9492,10.1094,10.25,10.2812,10.289,10.289,10.289,10.289,10.289,10.3086,10.3281,10.3281,10.4219,10.4609,10.4609,10.5508,10.5781,10.5898,10.6719,10.7109,10.7109,10.7812,10.7617,10.7109,10.7109,10.75,10.8008,10.8008,10.8008,10.8008,10.7812,10.7695,10.7691,10.752,10.7572,10.7686,10.7498,10.7598,10.7691,10.7508,10.7402,10.7402,10.7402,10.7402,10.7402,10.7285,10.7199,10.7021,10.6911,10.679,10.6597,10.6521,10.6405,10.6405,10.6405,10.6405,10.6405,10.6405,10.6405,10.6405,10.6405,10.6405,10.6405,10.6405,10.6405,10.6405,10.6405,10.6405,10.6405,10.6405,10.6405,10.6405,10.6405,10.6405,10.5597,10.3905,10.3905,10.2981,10.1289,10.1289,10.1289,0.0,0.0,0.0,8.6693,0.0,0.0,0.0,0.0,7.3203,0.0,0.0,0.0,0.0,0.0,7.1484,6.9844,0.0,0.0,0.0,0.0,0.0,0.0,0.0,0.0,0.0,0.0,0.0,0.0,0.0,0.0,9.7617,9.7773,9.8984,10.1601,10.25,10.289,10.289,10.289,10.289,10.289,10.3789,10.4219,10.4219,10.5117,10.5508,10.5508,10.6289,10.6719,10.6719,10.7617,10.8008,10.8008,10.8008,10.8008,10.8008,10.8008,10.8008,10.8008,10.8008,10.8008,10.8008,10.8008,10.8008,10.8008,10.8007,10.8007,10.8007,10.8007,10.8007,10.8008,10.8007,10.8007,10.8007,10.8007,10.8007,10.789,10.7617,10.7616,10.7495,10.7175,10.7175,10.7098,10.679,10.6597,10.6405,10.6405,10.6405,10.6405,10.6405,10.6405,10.6405,10.6405,10.6405,10.6405,10.6405,10.6405,10.6405,10.6405,10.6405,10.6405,10.6405,10.6405,10.6405,10.6405,10.6405,10.5597,10.3905,10.3905,10.2981,10.1289,10.1289,10.1289,0.0,0.0,8.7793,9.1647,0.0,0.0,0.0,0.0,0.0,0.0,0.0,0.0,0.0,0.0,7.3437,7.5156,7.375,0.0,0.0,0.0,0.0,0.0,0.0,0.0,0.0,0.0,0.0,0.0,0.0,0.0,0.0,9.7344,9.9765,10.2383,10.2695,10.289,10.289,10.289,10.289,10.289,10.3789,10.4219,10.4219,10.5703,10.6289,10.6289,10.7187,10.7617,10.7617,10.789,10.8008,10.8008,10.8008,10.8008,10.8008,10.8008,10.8008,10.8008,10.8008,10.8008,10.8008,10.8008,10.8008,10.8008,10.8008,10.8008,10.8008,10.8008,10.8008,10.8008,10.8008,10.8008,10.8008,10.8008,10.8008,10.8008,10.789,10.7695,10.7611,10.7508,10.7303,10.7181,10.7104,10.6821,10.6597,10.6405,10.6405,10.6405,10.6405,10.6405,10.6405,10.6405,10.6405,10.6405,10.6405,10.6405,10.6405,10.6405,10.6405,10.6405,10.6405,10.6405,10.6405,10.6405,10.6405,10.5597,10.3905,10.3905,10.2981,10.1289,10.1289,10.1289,9.502,9.3333,0.0,9.5759,9.1225,0.0,8.6992,0.0,0.0,0.0,0.0,0.0,0.0,0.0,7.4414,7.6328,7.4297,0.0,0.0,0.0,0.0,0.0,0.0,0.0,0.0,0.0,0.0,0.0,0.0,0.0,0.0,0.0,9.9101,10.2304,10.2695,10.289,10.289,10.289,10.289,10.289,10.4101,10.4687,10.4687,10.6406,10.7187,10.7187,10.7812,10.8008,10.8008,10.8008,10.8008,10.8008,10.8008,10.8008,10.8008,10.8008,10.8008,10.8008,10.8008,10.8203,10.8515,10.8515,10.8515,10.8515,10.8515,10.8203,10.789,10.7617,10.7812,10.789,10.7617,10.7812,10.8008,10.8008,10.8008,10.8008,10.8008,10.789,10.7695,10.7695,10.7606,10.748,10.7403,10.7215,10.6982,10.6597,10.6521,10.6405,10.6405,10.6405,10.6405,10.6405,10.6405,10.6405,10.6405,10.6405,10.6405,10.6405,10.6405,10.6405,10.6405,10.6405,10.6097,10.552,10.6097,10.529,10.2981,10.3597,10.2981,10.1289,10.1289,10.1289]},{"header":{"parameterUnit":"m.s-1","parameterCategory":1,"la1":30.6,"la2":29.2853,"lo1":-89.7004,"lo2":-87.6739,"dx":0.0162,"dy":0.0183,"nx":112,"ny":82,"refTime":"2022-11-08T06:00:00:Z","depth":0,"parameterNumber":3,"parameterNumberName":"V-component_of_WINDS"},"data":[0.0,0.0,0.0,0.0,0.0,0.0,0.0,0.0,0.0,0.0,0.0,0.0,0.0,0.0,0.0,0.0,0.0,0.0,0.0,0.0,0.0,0.0,0.0,0.0,0.0,0.0,0.0,0.0,0.0,0.0,0.0,0.0,0.0,0.0,0.0,0.0,0.0,0.0,0.0,0.0,0.0,0.0,0.0,0.0,0.0,0.0,0.0,0.0,0.0,0.0,0.0,0.0,0.0,0.0,0.0,0.0,0.0,0.0,0.0,0.0,0.0,0.0,0.0,0.0,0.0,0.0,0.0,0.0,0.0,0.0,0.0,0.0,0.0,0.0,0.0,0.0,0.0,0.0,0.0,0.0,0.0,0.0,0.0,0.0,0.0,0.0,0.0,0.0,0.0,0.0,0.0,-2.5264,-2.5972,-2.6306,-2.6106,-2.6279,-2.5638,-2.3875,0.0,0.0,0.0,0.0,0.0,0.0,0.0,0.0,0.0,0.0,0.0,0.0,0.0,0.0,0.0,0.0,0.0,0.0,0.0,0.0,0.0,0.0,0.0,0.0,0.0,0.0,0.0,0.0,0.0,0.0,0.0,0.0,0.0,0.0,0.0,0.0,0.0,0.0,0.0,0.0,0.0,0.0,0.0,0.0,0.0,0.0,0.0,0.0,0.0,0.0,0.0,0.0,0.0,0.0,0.0,0.0,0.0,0.0,0.0,0.0,0.0,0.0,0.0,0.0,0.0,0.0,0.0,0.0,0.0,0.0,0.0,0.0,0.0,0.0,0.0,0.0,0.0,0.0,0.0,0.0,0.0,0.0,0.0,0.0,0.0,0.0,0.0,0.0,0.0,0.0,0.0,0.0,0.0,0.0,0.0,0.0,0.0,0.0,0.0,0.0,0.0,0.0,0.0,0.0,-2.4249,-2.6333,-2.6453,-2.6466,-2.668,-2.6507,-2.5638,-2.3875,0.0,0.0,0.0,0.0,0.0,0.0,0.0,0.0,0.0,0.0,0.0,0.0,0.0,0.0,0.0,0.0,0.0,0.0,0.0,0.0,0.0,0.0,0.0,0.0,0.0,0.0,0.0,0.0,0.0,0.0,0.0,0.0,0.0,0.0,0.0,0.0,0.0,0.0,0.0,0.0,0.0,0.0,0.0,0.0,0.0,0.0,0.0,0.0,0.0,0.0,0.0,0.0,0.0,0.0,0.0,0.0,0.0,0.0,0.0,0.0,0.0,0.0,0.0,0.0,0.0,0.0,0.0,0.0,0.0,0.0,0.0,0.0,0.0,0.0,0.0,0.0,0.0,0.0,0.0,0.0,0.0,0.0,0.0,0.0,0.0,0.0,0.0,0.0,0.0,0.0,0.0,0.0,0.0,0.0,0.0,0.0,0.0,0.0,0.0,0.0,0.0,0.0,0.0,-2.3781,-2.5104,-2.6653,-2.6841,-2.6854,-2.6827,-2.6694,-2.5812,-2.3888,-2.3647,0.0,0.0,0.0,0.0,0.0,0.0,0.0,0.0,0.0,0.0,0.0,0.0,0.0,0.0,0.0,0.0,0.0,0.0,0.0,0.0,0.0,0.0,0.0,0.0,0.0,0.0,0.0,0.0,0.0,0.0,0.0,0.0,0.0,0.0,0.0,0.0,0.0,0.0,0.0,0.0,0.0,0.0,0.0,0.0,0.0,0.0,0.0,0.0,0.0,0.0,0.0,0.0,0.0,0.0,0.0,0.0,0.0,0.0,0.0,0.0,0.0,0.0,0.0,0.0,0.0,0.0,0.0,0.0,0.0,0.0,0.0,0.0,0.0,0.0,0.0,0.0,0.0,0.0,0.0,0.0,0.0,0.0,0.0,0.0,0.0,0.0,0.0,0.0,0.0,0.0,0.0,0.0,0.0,0.0,0.0,0.0,0.0,0.0,0.0,0.0,0.0,0.0,-2.497,-2.6106,-2.6854,-2.7134,-2.7201,-2.7041,-2.6707,-2.5758,-2.3981,-2.3607,0.0,0.0,0.0,0.0,0.0,0.0,0.0,0.0,0.0,0.0,0.0,0.0,0.0,0.0,0.0,0.0,0.0,0.0,0.0,0.0,0.0,0.0,0.0,0.0,0.0,0.0,0.0,0.0,0.0,0.0,0.0,0.0,0.0,0.0,0.0,0.0,0.0,0.0,0.0,0.0,0.0,0.0,0.0,0.0,0.0,0.0,0.0,0.0,0.0,0.0,0.0,0.0,0.0,0.0,0.0,0.0,0.0,0.0,0.0,0.0,0.0,0.0,0.0,0.0,0.0,0.0,0.0,0.0,0.0,0.0,0.0,0.0,0.0,0.0,0.0,0.0,0.0,0.0,0.0,0.0,0.0,0.0,0.0,0.0,0.0,0.0,0.0,0.0,0.0,0.0,0.0,0.0,0.0,0.0,0.0,0.0,0.0,0.0,0.0,0.0,0.0,0.0,-2.5504,-2.6854,-2.7201,-2.7255,-2.7362,-2.7615,-2.6386,-2.5197,-2.4235,-2.3126,0.0,0.0,0.0,0.0,0.0,0.0,0.0,0.0,0.0,0.0,0.0,0.0,0.0,0.0,0.0,0.0,0.0,0.0,0.0,0.0,0.0,0.0,0.0,0.0,0.0,0.0,0.0,0.0,0.0,0.0,0.0,0.0,0.0,0.0,0.0,0.0,0.0,0.0,0.0,0.0,0.0,0.0,0.0,0.0,0.0,0.0,0.0,0.0,0.0,0.0,0.0,0.0,0.0,0.0,0.0,0.0,0.0,0.0,0.0,0.0,0.0,0.0,0.0,0.0,0.0,0.0,0.0,0.0,0.0,0.0,0.0,0.0,0.0,0.0,0.0,0.0,0.0,0.0,0.0,0.0,0.0,0.0,0.0,0.0,0.0,0.0,0.0,0.0,0.0,0.0,0.0,0.0,0.0,0.0,0.0,0.0,0.0,0.0,0.0,0.0,0.0,0.0,-2.5358,-2.66,0.0,-2.7709,-2.7789,-2.7709,-2.7188,-2.6106,-2.4315,0.0,0.0,0.0,0.0,0.0,0.0,0.0,0.0,0.0,0.0,0.0,0.0,0.0,0.0,0.0,0.0,0.0,0.0,0.0,0.0,0.0,0.0,0.0,0.0,0.0,0.0,0.0,0.0,0.0,0.0,0.0,0.0,0.0,0.0,0.0,0.0,0.0,0.0,0.0,0.0,0.0,0.0,0.0,0.0,0.0,0.0,0.0,0.0,0.0,0.0,0.0,0.0,0.0,0.0,0.0,0.0,0.0,0.0,0.0,0.0,0.0,0.0,0.0,0.0,0.0,0.0,0.0,0.0,0.0,0.0,0.0,0.0,0.0,0.0,0.0,0.0,0.0,0.0,0.0,0.0,0.0,0.0,0.0,0.0,0.0,0.0,0.0,0.0,0.0,0.0,0.0,0.0,0.0,0.0,0.0,0.0,0.0,0.0,0.0,0.0,0.0,0.0,-2.4222,-2.5611,-2.6894,0.0,-2.8083,-2.8136,-2.8123,-2.7696,-2.6587,-2.4609,0.0,0.0,0.0,0.0,0.0,0.0,0.0,0.0,0.0,0.0,0.0,0.0,0.0,0.0,0.0,0.0,0.0,0.0,0.0,0.0,0.0,0.0,0.0,0.0,0.0,0.0,0.0,0.0,0.0,0.0,0.0,0.0,0.0,0.0,0.0,0.0,0.0,0.0,0.0,0.0,0.0,0.0,0.0,0.0,0.0,0.0,0.0,0.0,0.0,0.0,0.0,0.0,0.0,0.0,0.0,0.0,0.0,0.0,0.0,0.0,0.0,0.0,0.0,0.0,0.0,0.0,0.0,0.0,0.0,0.0,0.0,0.0,0.0,0.0,0.0,0.0,0.0,0.0,0.0,0.0,0.0,0.0,0.0,0.0,0.0,0.0,0.0,0.0,0.0,0.0,0.0,0.0,0.0,0.0,0.0,0.0,0.0,0.0,0.0,0.0,0.0,0.0,-2.4609,-2.644,-2.7936,-2.8551,-2.8337,-2.8404,-2.8991,-2.7696,-2.6346,0.0,0.0,0.0,0.0,0.0,0.0,0.0,0.0,0.0,0.0,0.0,0.0,0.0,0.0,0.0,0.0,0.0,0.0,0.0,0.0,0.0,0.0,0.0,0.0,0.0,0.0,0.0,0.0,0.0,0.0,0.0,0.0,0.0,0.0,0.0,0.0,0.0,0.0,0.0,0.0,0.0,0.0,0.0,0.0,0.0,0.0,0.0,0.0,0.0,0.0,0.0,0.0,0.0,0.0,0.0,0.0,0.0,0.0,0.0,0.0,0.0,0.0,0.0,0.0,0.0,0.0,0.0,0.0,0.0,0.0,0.0,0.0,0.0,0.0,0.0,0.0,0.0,0.0,0.0,0.0,0.0,0.0,0.0,0.0,0.0,0.0,0.0,0.0,0.0,0.0,0.0,0.0,0.0,0.0,0.0,0.0,0.0,0.0,0.0,0.0,0.0,0.0,0.0,-2.489,-2.6747,-2.8243,-2.8845,-2.9018,-2.9072,-2.9045,-2.8831,-2.7749,-2.5531,0.0,0.0,0.0,0.0,0.0,0.0,0.0,0.0,0.0,0.0,0.0,0.0,0.0,0.0,0.0,0.0,0.0,0.0,0.0,0.0,0.0,0.0,0.0,0.0,0.0,0.0,0.0,0.0,0.0,0.0,0.0,0.0,0.0,0.0,0.0,0.0,0.0,0.0,0.0,0.0,0.0,0.0,0.0,0.0,0.0,0.0,0.0,0.0,0.0,0.0,0.0,0.0,0.0,0.0,0.0,0.0,0.0,0.0,0.0,0.0,0.0,0.0,0.0,0.0,0.0,0.0,0.0,0.0,0.0,0.0,0.0,0.0,0.0,0.0,0.0,0.0,0.0,0.0,0.0,0.0,0.0,0.0,0.0,0.0,0.0,0.0,0.0,0.0,0.0,0.0,0.0,0.0,0.0,0.0,0.0,0.0,0.0,0.0,0.0,0.0,0.0,0.0,-2.5024,-2.6987,-2.8551,-2.9152,-2.9272,-2.9325,-2.9379,-2.9339,-2.8417,-2.6346,0.0,0.0,0.0,0.0,0.0,0.0,0.0,0.0,0.0,0.0,0.0,0.0,0.0,0.0,0.0,0.0,0.0,0.0,0.0,0.0,0.0,0.0,0.0,0.0,0.0,0.0,0.0,0.0,0.0,0.0,0.0,0.0,0.0,0.0,0.0,0.0,0.0,0.0,0.0,0.0,0.0,0.0,0.0,0.0,0.0,0.0,0.0,0.0,0.0,0.0,0.0,0.0,0.0,0.0,0.0,0.0,0.0,0.0,0.0,0.0,0.0,0.0,0.0,0.0,0.0,0.0,0.0,0.0,0.0,0.0,0.0,0.0,0.0,0.0,0.0,0.0,0.0,0.0,0.0,0.0,0.0,0.0,0.0,0.0,0.0,0.0,0.0,0.0,0.0,0.0,0.0,0.0,0.0,0.0,0.0,0.0,0.0,0.0,0.0,0.0,0.0,0.0,-2.5117,-2.7201,-2.8871,-2.9459,-2.9312,-2.9366,-2.9873,-2.9459,-2.8631,-2.7388,0.0,0.0,0.0,0.0,0.0,0.0,0.0,0.0,0.0,0.0,0.0,0.0,0.0,0.0,0.0,0.0,0.0,0.0,0.0,0.0,0.0,0.0,0.0,0.0,0.0,0.0,0.0,0.0,0.0,0.0,0.0,0.0,0.0,0.0,0.0,0.0,0.0,0.0,0.0,0.0,0.0,0.0,0.0,0.0,0.0,0.0,0.0,0.0,0.0,0.0,0.0,0.0,0.0,0.0,0.0,0.0,0.0,0.0,0.0,0.0,-1.1226,0.0,0.0,0.0,0.0,0.0,0.0,0.0,0.0,0.0,0.0,0.0,0.0,0.0,0.0,0.0,0.0,0.0,0.0,0.0,0.0,0.0,0.0,0.0,0.0,0.0,0.0,0.0,0.0,0.0,0.0,0.0,0.0,0.0,0.0,0.0,0.0,0.0,0.0,0.0,0.0,0.0,-2.5665,-2.7629,-2.9179,-2.9766,-2.998,-3.0034,-2.9927,-3.002,-2.9366,-2.7709,-2.7161,0.0,0.0,0.0,0.0,0.0,0.0,0.0,0.0,0.0,0.0,0.0,0.0,0.0,0.0,0.0,0.0,0.0,0.0,0.0,0.0,0.0,0.0,0.0,0.0,0.0,0.0,0.0,0.0,0.0,0.0,0.0,0.0,0.0,0.0,0.0,0.0,0.0,0.0,0.0,0.0,0.0,0.0,0.0,0.0,0.0,0.0,0.0,0.0,0.0,0.0,0.0,0.0,0.0,0.0,0.0,0.0,0.0,0.0,0.0,0.0,-1.128,0.0,0.0,0.0,0.0,0.0,0.0,0.0,0.0,0.0,0.0,0.0,0.0,0.0,0.0,0.0,0.0,0.0,0.0,0.0,0.0,0.0,0.0,0.0,0.0,0.0,0.0,0.0,0.0,0.0,0.0,0.0,0.0,0.0,0.0,0.0,0.0,0.0,0.0,0.0,0.0,-2.644,-2.8016,-2.9205,-2.9659,-2.9967,-3.0087,-2.9927,-2.9927,-2.9539,-2.8617,-2.7869,0.0,0.0,0.0,0.0,0.0,0.0,0.0,0.0,0.0,0.0,0.0,0.0,0.0,0.0,0.0,0.0,0.0,0.0,0.0,0.0,0.0,0.0,0.0,0.0,0.0,0.0,0.0,0.0,0.0,0.0,0.0,0.0,0.0,0.0,0.0,0.0,0.0,0.0,0.0,0.0,0.0,0.0,0.0,0.0,0.0,0.0,0.0,0.0,0.0,0.0,0.0,0.0,0.0,-1.2081,-1.2182,-1.2332,-1.2332,-1.2352,-1.2345,-1.1898,-1.1938,-1.2264,-1.1416,0.0,0.0,0.0,0.0,0.0,0.0,0.0,0.0,0.0,0.0,0.0,0.0,0.0,0.0,0.0,0.0,0.0,0.0,0.0,0.0,0.0,0.0,0.0,0.0,-2.5825,-2.5558,-2.4583,0.0,0.0,0.0,0.0,0.0,0.0,0.0,0.0,0.0,0.0,0.0,-2.7255,-2.8417,-2.9245,-2.9606,-2.9847,-3.002,-3.006,-2.9847,-2.9673,-2.9566,-2.8631,-2.7843,0.0,0.0,0.0,0.0,0.0,0.0,0.0,0.0,0.0,0.0,0.0,0.0,0.0,0.0,0.0,0.0,0.0,0.0,0.0,0.0,0.0,0.0,0.0,0.0,0.0,0.0,0.0,0.0,0.0,0.0,0.0,0.0,-1.0161,-1.0609,0.0,0.0,0.0,0.0,0.0,0.0,0.0,0.0,0.0,0.0,0.0,0.0,0.0,-1.1816,-1.2033,-1.24,-1.2657,-1.2813,-1.3071,-1.3275,-1.3424,-1.3424,-1.3492,-1.358,-1.3132,0.0,-1.2474,-1.2467,0.0,0.0,0.0,0.0,0.0,0.0,0.0,0.0,0.0,0.0,0.0,0.0,0.0,0.0,0.0,0.0,0.0,0.0,0.0,0.0,0.0,0.0,-2.652,-2.6934,-2.7041,-2.6987,0.0,-2.5598,-2.4409,-2.4035,-2.3968,0.0,0.0,0.0,0.0,0.0,0.0,0.0,-2.7936,-2.8845,-2.9633,-3.0181,-3.0274,-3.0408,-3.0648,-3.0648,-3.0408,-2.9887,-2.9713,-2.9472,-2.9152,-2.7722,0.0,0.0,0.0,0.0,0.0,0.0,0.0,0.0,0.0,0.0,0.0,0.0,0.0,0.0,0.0,0.0,0.0,0.0,0.0,0.0,0.0,0.0,0.0,0.0,0.0,0.0,0.0,0.0,0.0,-1.0188,-1.069,-1.1056,-1.1158,-1.1077,0.0,0.0,0.0,0.0,0.0,0.0,0.0,0.0,0.0,-1.2223,-1.2305,-1.2488,-1.2813,-1.3091,-1.3227,-1.3214,-1.3505,-1.3641,-1.3634,-1.3709,-1.3783,-1.3831,-1.3634,-1.3437,-1.3234,-1.2969,-1.2827,-1.2752,0.0,0.0,0.0,0.0,-1.1864,-1.1816,-1.1952,-1.2728,-1.3483,-1.2456,0.0,0.0,0.0,0.0,0.0,0.0,0.0,0.0,0.0,0.0,-2.6774,-2.7575,-2.7629,-2.7562,-2.7722,-2.7148,-2.6319,0.0,-2.5317,-2.5251,-2.469,0.0,0.0,0.0,0.0,-2.7963,-2.9232,-2.9593,-2.9953,-3.0541,-3.0595,-3.0662,-3.0782,-3.0795,-3.0688,-3.0421,-3.0247,-3.0034,-2.974,-2.8978,-2.8136,0.0,0.0,0.0,0.0,0.0,0.0,0.0,0.0,0.0,0.0,0.0,0.0,0.0,0.0,0.0,0.0,0.0,0.0,0.0,0.0,0.0,0.0,0.0,0.0,0.0,0.0,0.0,0.0,-1.0785,-1.1226,-1.1525,-1.1701,-1.166,0.0,0.0,0.0,0.0,0.0,0.0,-1.1938,-1.202,-1.2305,-1.2827,-1.2881,-1.3064,-1.3397,-1.3512,-1.3512,-1.3403,-1.362,-1.3736,-1.3743,-1.3851,-1.396,-1.4068,-1.4068,-1.4068,-1.4021,-1.3431,-1.3227,-1.3275,-1.3132,-1.2908,-1.2678,-1.2718,-1.2664,-1.2583,-1.2657,-1.3068,-1.3468,-1.2999,-1.2922,-1.3318,-1.4971,0.0,0.0,0.0,0.0,-2.3721,-2.5937,-2.6667,-2.6892,-2.7252,-2.7627,-2.7715,-2.75,-2.797,-2.7976,0.0,-2.6573,-2.6613,-2.6239,0.0,0.0,0.0,0.0,-2.8885,-3.0287,-3.0274,-3.0341,-3.0849,-3.0902,-3.0929,-3.1009,-3.1022,-3.0982,-3.0902,-3.0702,-3.0448,-3.0154,-2.9993,-2.9219,-2.7749,0.0,0.0,0.0,0.0,0.0,0.0,0.0,0.0,0.0,0.0,0.0,0.0,0.0,0.0,0.0,0.0,0.0,0.0,0.0,0.0,0.0,0.0,0.0,0.0,0.0,0.0,0.0,0.0,0.0,-1.1993,-1.2535,0.0,0.0,0.0,0.0,-1.1816,-1.1945,-1.2108,-1.2257,-1.2535,-1.2827,-1.3139,-1.3295,-1.3376,-1.3403,-1.341,-1.341,-1.3403,-1.3417,-1.3641,-1.4048,-1.4055,-1.4292,-1.4692,-1.4692,-1.4692,-1.4645,-1.4048,-1.3722,-1.3593,-1.3437,-1.3281,-1.3159,-1.3302,-1.3349,-1.3383,-1.3668,-1.4939,-1.6285,-1.4444,-1.3777,-1.3729,-1.3617,-1.5052,0.0,0.0,-2.1438,-2.4258,-2.6274,-2.7428,-2.7551,-2.5361,-2.6575,-2.7682,-2.5699,-2.7195,-2.8724,0.0,-2.7629,-2.7455,-2.6881,0.0,-2.8484,-2.8591,-2.9526,-3.0354,-3.0728,-3.0755,-3.0862,-3.1169,-3.1209,-3.1316,-3.1597,-3.1623,-3.1503,-3.1223,-3.1196,-3.1049,-3.0755,-3.0207,-2.9993,-3.0181,-2.827,0.0,0.0,0.0,0.0,0.0,0.0,0.0,0.0,0.0,0.0,0.0,0.0,0.0,0.0,0.0,0.0,0.0,0.0,0.0,0.0,0.0,0.0,0.0,0.0,0.0,0.0,0.0,0.0,-1.2176,-1.2481,0.0,-1.2318,-1.2338,-1.2298,-1.2135,-1.2528,-1.28,-1.2854,-1.3051,-1.3214,-1.3315,-1.337,-1.3403,-1.3403,-1.3587,-1.3641,-1.3553,-1.3933,-1.415,-1.4224,-1.4414,-1.459,-1.474,-1.474,-1.474,-1.4726,-1.4509,-1.4387,-1.434,-1.4285,-1.4231,-1.419,-1.4245,-1.4204,-1.4129,-1.4238,-1.4731,-1.5184,-1.4414,-1.5315,-1.688,-1.8427,-2.0521,-2.2595,-2.3143,-2.4235,-2.5501,-2.62,-2.6721,-2.7157,-2.8067,-2.8876,-2.9136,-2.8333,-2.7521,-2.6949,-2.6656,-2.8037,-2.9179,-2.9352,-2.9579,-2.986,-3.0234,-3.0488,-3.0742,-3.1036,-3.1076,-3.1183,-3.1476,-3.1517,-3.1557,-3.1664,-3.1664,-3.1623,-3.1517,-3.133,-3.1183,-3.1076,-3.0688,-3.0448,-3.0354,-2.9446,-2.831,0.0,0.0,0.0,0.0,0.0,0.0,0.0,0.0,0.0,0.0,0.0,0.0,0.0,0.0,0.0,0.0,0.0,0.0,0.0,0.0,0.0,0.0,0.0,0.0,0.0,0.0,-1.2115,-1.2271,-1.2508,-1.2623,-1.2522,-1.2562,-1.2589,-1.2589,-1.2996,-1.3207,-1.3105,-1.3295,-1.3403,-1.3403,-1.3451,-1.3498,-1.3546,-1.3743,-1.379,-1.3709,-1.415,-1.4367,-1.438,-1.4624,-1.4821,-1.4964,-1.4964,-1.4997,-1.5045,-1.5045,-1.5045,-1.5031,-1.4875,-1.4821,-1.4821,-1.4869,-1.4828,-1.474,-1.474,-1.4679,-1.4611,-1.4706,-1.5818,-1.7467,-1.9088,-2.0922,-2.2515,-2.3018,-2.3409,-2.4215,-2.5719,-2.5491,-2.5354,-2.7184,-2.7463,-2.6991,-2.6335,-2.5434,-2.4918,-2.5084,-2.6223,-2.739,-2.7743,-2.8189,-2.8706,-2.917,-2.9611,-3.0194,-3.0581,-3.0902,-3.1196,-3.149,-3.1784,-3.1971,-3.1971,-3.169,-3.165,-3.1944,-3.1503,-3.1316,-3.1517,-3.0955,-3.0515,-3.0221,-2.9432,-2.8537,-2.7562,0.0,0.0,0.0,0.0,0.0,0.0,0.0,0.0,0.0,0.0,0.0,0.0,0.0,0.0,0.0,0.0,0.0,0.0,0.0,0.0,0.0,0.0,0.0,-1.1789,-1.2223,-1.2454,-1.2332,-1.2698,-1.2963,-1.2969,-1.3085,-1.3166,-1.3166,-1.3308,-1.3275,-1.299,-1.3254,-1.3417,-1.3417,-1.3559,-1.3702,-1.3838,-1.3851,-1.3858,-1.3865,-1.4027,-1.4258,-1.4543,-1.4699,-1.5004,-1.5418,-1.5418,-1.5499,-1.5642,-1.5642,-1.5642,-1.5594,-1.516,-1.4991,-1.5011,-1.5147,-1.5194,-1.5194,-1.5194,-1.5187,-1.5187,-1.5181,-1.5181,-1.5208,-1.5364,-1.5705,-1.6173,-1.8279,-1.8914,-2.0096,-2.4712,-2.3871,-2.2034,-2.2412,-2.2422,-2.1558,-1.9706,-2.1067,-2.2695,-2.3305,-2.2497,-2.1925,-2.204,-2.3753,-2.5278,-2.5556,-2.7304,0.0,-2.9499,-3.0314,-3.0942,-3.1196,-3.2024,-3.2545,-3.2505,-3.1757,-3.1637,-3.2492,-3.1744,-3.1517,-3.2091,-3.1022,-3.0287,-2.9967,-2.823,-2.7896,-2.9018,0.0,0.0,0.0,0.0,0.0,0.0,0.0,0.0,0.0,0.0,0.0,0.0,0.0,0.0,0.0,0.0,0.0,0.0,0.0,0.0,0.0,0.0,-1.2176,-1.2298,-1.2427,-1.261,-1.2895,-1.2949,-1.3003,-1.3105,-1.3057,-1.3017,-1.3017,-1.3254,-1.3363,-1.3281,-1.3559,-1.3722,-1.3722,-1.3763,-1.3804,-1.3838,-1.4061,-1.4224,-1.4333,-1.4699,-1.4977,-1.5167,-1.5323,-1.5459,-1.5574,-1.5574,-1.5601,-1.5642,-1.5642,-1.5642,-1.5628,-1.5506,-1.5459,-1.5459,-1.5499,-1.5513,-1.5499,-1.5384,-1.535,-1.533,-1.5221,-1.5181,-1.5584,-1.7419,-1.8065,-1.8311,-1.8955,-1.9204,-1.9628,-2.1183,-2.1001,-2.1037,-2.3093,-2.3445,-2.3391,-2.2868,-2.1827,-2.0975,-2.1279,-1.9593,-1.9807,-2.5545,-2.6984,-2.8236,-3.0303,-3.1072,0.0,-3.1677,-3.1917,-3.1851,-3.1289,-3.2211,-3.2519,-3.1664,-3.2144,-3.2505,-3.2545,-3.2318,-3.2251,-3.2412,-3.2118,-3.1597,-3.0875,-2.9553,-2.8818,0.0,0.0,0.0,0.0,0.0,0.0,0.0,0.0,0.0,0.0,0.0,0.0,0.0,0.0,0.0,0.0,0.0,0.0,0.0,0.0,0.0,0.0,-1.2264,-1.2617,-1.2684,-1.2691,-1.2793,-1.3051,-1.301,-1.3017,-1.3159,-1.3159,-1.3173,-1.3234,-1.3458,-1.3587,-1.3587,-1.3749,-1.3871,-1.3933,-1.4,-1.4095,-1.4217,-1.4462,-1.4652,-1.4794,-1.512,-1.5323,-1.5418,-1.5567,-1.5669,-1.573,-1.573,-1.573,-1.573,-1.573,-1.573,0.0,0.0,0.0,0.0,0.0,-1.5499,-1.5438,-1.5343,-1.5357,-1.5384,-1.5228,-1.5269,-1.5574,-1.717,-1.7627,-1.772,-1.7889,-1.7943,-1.8364,-1.9698,-1.9167,-1.9018,-2.1749,-2.1687,-2.0977,-2.0977,-1.9864,-1.8737,-1.8737,-1.7581,0.0,-2.4118,-2.5666,-2.7159,-2.9735,-3.0857,-3.149,-3.161,-3.1957,-3.2024,-3.1637,-3.2532,-3.2879,-3.2198,-3.2425,0.0,0.0,0.0,-3.2251,-3.1998,-3.1757,0.0,0.0,0.0,0.0,0.0,0.0,0.0,0.0,-2.6854,-2.6226,0.0,0.0,0.0,0.0,0.0,0.0,0.0,0.0,0.0,0.0,0.0,0.0,0.0,0.0,0.0,0.0,-1.2386,-1.2807,-1.2963,-1.2983,-1.2983,-1.2983,-1.3003,-1.3064,-1.3207,-1.3363,-1.3505,-1.3641,-1.3783,-1.3865,-1.3865,0.0,0.0,0.0,0.0,-1.4523,-1.4787,-1.4943,-1.5092,-1.5235,-1.5391,-1.5459,-1.5466,-1.5601,-1.5723,-1.5825,-1.5825,-1.5825,-1.5825,-1.5825,-1.5825,-1.5818,-1.571,-1.5662,-1.5642,-1.5493,-1.535,-1.5228,-1.5215,0.0,0.0,-1.5228,-1.5364,-1.5594,-1.5608,-1.5716,-1.5866,-1.6035,-1.6096,-1.6729,-1.906,-1.8119,-1.6968,-1.9298,-1.8149,-1.6544,-1.6544,-1.6558,-1.6571,-1.6571,-1.668,-1.759,-2.0447,-2.2093,-2.3728,-2.611,-2.8062,-2.9469,-2.9728,-3.0415,-3.1138,-3.15,0.0,0.0,-3.3267,-3.2679,-3.2625,-3.336,-3.2652,-3.1957,-3.1396,-3.0849,-3.0167,-2.9352,-2.9045,-2.9138,-2.9633,-2.9112,-2.9125,-2.9593,-2.8136,-2.7602,0.0,0.0,0.0,0.0,0.0,0.0,0.0,0.0,0.0,0.0,0.0,0.0,0.0,0.0,0.0,-1.2338,-1.2678,-1.2969,-1.3112,-1.3132,-1.3132,-1.3132,-1.3241,-1.3376,-1.3526,-1.3675,-1.377,-1.3797,-1.3939,-1.4027,-1.4027,-1.4367,-1.4577,-1.4611,-1.4869,-1.5038,-1.5092,-1.5248,-1.5404,-1.5554,0.0,0.0,-1.5771,-1.5798,-1.5764,-1.5683,-1.5683,-1.5683,-1.5683,-1.5683,-1.5683,-1.5689,-1.5778,-1.5811,-1.5791,-1.5649,-1.5574,-1.5533,-1.5411,-1.5384,-1.5384,-1.5228,-1.5221,-1.5296,-1.5418,-1.556,0.0,-1.6008,-1.6171,-1.6495,-1.7038,-1.6884,-1.6687,-1.7116,-1.7023,-1.6707,-1.6707,-1.6802,-1.689,-1.689,-1.6917,-1.7761,-2.0638,-2.1337,-2.2423,-2.5121,-2.5903,-2.6125,-2.6168,-2.6296,-2.6981,-2.8605,-2.9851,-3.0937,-3.2231,-3.308,-3.3507,-3.3414,-3.3026,-3.2652,-3.2305,-3.1957,-3.157,-3.1169,-3.0875,-3.0662,-3.0541,-3.0421,-3.0434,-3.0515,-2.9272,-2.8724,0.0,0.0,0.0,0.0,0.0,0.0,0.0,0.0,0.0,0.0,0.0,-1.166,0.0,0.0,-1.242,-1.2488,-1.2881,-1.3207,-1.3275,-1.3356,-1.337,-1.3295,-1.3424,-1.3573,-1.3722,-1.3871,-1.3953,-1.3953,-1.4163,-1.4326,-1.4401,-1.4692,-1.4889,-1.4957,-1.5181,-1.5337,-1.5411,-1.556,-1.5669,-1.575,-1.5818,-1.5818,-1.5744,-1.5744,-1.5744,-1.5744,-1.5744,-1.5744,-1.5744,-1.5744,-1.5703,-1.5655,-1.5798,-1.5764,-1.5622,-1.5554,-1.5479,-1.5398,-1.5323,-1.5398,-1.5499,-1.5343,-1.5445,-1.5635,-1.5635,-1.5737,-1.5893,-1.6042,-1.6137,-1.6246,-1.6463,-1.6524,-1.6558,-1.6714,-1.6809,-1.6863,-1.6863,-1.6924,-1.6978,-1.6978,-1.6978,-1.7391,-1.8843,-1.9044,-2.0488,-2.4598,-2.5215,-2.5215,-2.5215,-2.5215,-2.5491,-2.6558,-2.8381,-2.9915,-3.059,-3.2364,-3.336,-3.32,-3.2786,-3.2478,-3.2332,-3.2038,-3.1824,-3.1677,-3.153,-3.1303,-3.1009,-3.1009,-3.0929,-3.0782,-3.0194,-2.9913,0.0,0.0,0.0,0.0,0.0,0.0,0.0,0.0,-1.1782,-1.1898,-1.1898,-1.1925,-1.2067,-1.2366,-1.261,-1.2664,-1.3085,-1.3417,-1.3478,-1.3593,-1.3634,-1.3539,-1.3641,-1.3763,-1.3871,-1.4075,-1.4204,-1.4204,-1.4475,-1.4692,-1.4821,-1.4997,-1.5153,-1.5269,-1.5445,-1.5588,-1.5683,-1.5825,-1.5886,-1.5852,-1.5886,-1.5818,-1.5683,-1.5683,-1.573,-1.5811,-1.5811,-1.5811,-1.5811,-1.5811,-1.5744,-1.5649,-1.5764,-1.5662,-1.5452,-1.5452,-1.5377,-1.5269,-1.5269,-1.5432,-1.5615,-1.5493,-1.5703,-1.5974,-1.5886,-1.5961,-1.6096,-1.6151,-1.6191,-1.6273,-1.6544,-1.6612,-1.6673,-1.6924,-1.6978,-1.6978,-1.6978,-1.6978,-1.6978,-1.6978,-1.6978,-1.6978,-1.6978,-1.6978,-1.8424,-2.2958,-2.3568,-2.3568,-2.3568,-2.3568,-2.3775,-2.4392,-2.6853,-2.8913,-2.9939,-3.1977,-3.3013,-3.2906,-3.2452,-3.2131,-3.2024,-3.1797,-3.1664,-3.1664,-3.1664,-3.1557,-3.1316,-3.1316,-3.1196,-3.0969,-3.0969,-3.0902,-1.0507,-1.0785,0.0,-1.1131,-1.1341,-1.1653,0.0,0.0,-1.2366,-1.2888,-1.2901,-1.2854,-1.2996,-1.2963,-1.2996,-1.3261,-1.3356,-1.3492,-1.3756,-1.3804,-1.3865,-1.398,-1.4014,-1.4027,-1.4048,-1.4421,-1.4665,-1.4665,-1.4943,-1.5113,-1.5133,-1.5404,-1.5574,-1.5588,-1.5859,-1.5947,-1.5832,-1.5981,-1.5988,-1.5852,-1.5988,-1.5974,-1.5832,-1.5832,-1.5771,-1.5662,-1.5662,-1.5662,-1.5662,-1.5662,-1.5655,-1.5642,-1.5655,-1.5642,-1.5615,-1.5615,-1.5601,-1.5588,-1.5588,-1.5608,-1.5635,-1.5622,-1.5649,-1.571,-1.5818,-1.5961,-1.6137,-1.6395,-1.6571,-1.6714,-1.6883,-1.6931,-1.6937,-1.6971,-1.6978,-1.6978,-1.6978,-1.6978,-1.6978,-1.6978,-1.6978,-1.6978,-1.6978,-1.6978,-1.7188,-1.7811,-1.8013,-1.8013,-1.8013,-1.8013,-1.8843,-2.131,-2.3981,-2.7669,-3.2585,-3.3173,-3.3146,-3.2625,-3.2532,-3.2265,-3.1744,-3.169,-3.1664,-3.1664,-3.1664,-3.165,-3.1623,-3.1623,-3.1597,-3.157,-3.157,-3.1289,-1.1097,-1.1158,0.0,0.0,-1.1918,-1.2081,-1.2352,-1.2549,-1.2752,-1.2996,-1.3003,-1.3003,-1.3146,-1.32,-1.3288,0.0,-1.36,-1.3729,-1.3946,-1.4048,-1.4197,-1.4434,-1.4543,-1.4557,-1.4468,-1.4713,-1.4909,-1.4991,-1.5194,-1.5357,-1.5445,-1.5649,-1.5805,-1.5893,-1.6015,-1.6049,-1.5988,-1.6049,-1.6001,-1.5852,-1.592,-1.5872,-1.573,-1.573,-1.5744,-1.5771,-1.5859,-1.5845,-1.5771,-1.5859,-1.5845,-1.5784,-1.5961,-1.6029,-1.5995,-1.5737,-1.5642,-1.5642,-1.5642,-1.575,-1.5893,-1.5893,-1.6015,-1.6164,-1.6225,-1.6286,-1.6361,-1.6483,-1.6564,-1.6653,-1.6809,-1.6842,-1.687,-1.6958,-1.6978,-1.6978,-1.6978,-1.6978,-1.6978,-1.6978,-1.6978,-1.6978,-1.6978,-1.6978,-1.6978,-1.6978,-1.6978,-1.6978,-1.6978,-1.6978,-1.8013,-2.0903,-2.3568,-2.6853,-3.0748,-3.2285,-3.2799,-3.2559,-3.2225,-3.1931,-3.1677,-3.1664,-3.1664,-3.1664,-3.1664,-3.1664,-3.1664,-3.1664,-3.1664,-3.1664,-3.1664,-3.1543,-1.1436,0.0,0.0,-1.2182,-1.2413,-1.2501,-1.2603,-1.28,-1.2969,-1.301,-1.3017,-1.3078,-1.3261,-1.339,-1.3526,-1.3722,-1.3871,-1.4034,-1.4231,-1.4387,-1.4577,-1.4835,-1.4997,-1.5065,-1.4991,-1.5092,-1.5201,-1.5303,-1.5445,-1.5581,-1.5689,-1.5798,-1.5906,-1.6015,-1.6056,-1.6062,-1.6022,-1.6062,-1.6001,-1.5852,-1.5893,-1.5859,-1.5764,-1.5764,-1.5818,-1.5927,-1.6076,-1.6083,-1.5988,-1.6144,-1.6137,-1.6056,-1.6279,-1.6368,-1.6327,-1.6001,-1.5879,-1.5879,-1.5879,-1.6022,-1.6205,-1.6205,-1.6347,-1.653,-1.6571,-1.6585,-1.6592,-1.6639,-1.6646,-1.6673,-1.6781,-1.6815,-1.6842,-1.6951,-1.6978,-1.6978,-1.6978,-1.6978,-1.6978,-1.6978,-1.6978,-1.6978,-1.6978,-1.6978,-1.6978,-1.6978,-1.6978,-1.6978,-1.6978,-1.6978,-1.8013,-2.0903,-2.3568,-2.624,-2.9116,-3.1336,-3.2639,-3.2545,-3.2064,-3.1757,-3.1677,-3.1664,-3.1664,-3.1664,-3.1664,-3.1664,-3.1664,-3.1664,-3.1664,-3.1664,-3.1664,-3.1664,-1.1274,-1.1599,-1.1918,-1.2379,-1.2718,-1.2942,-1.2949,-1.2956,-1.3003,-1.3139,-1.3166,-1.3261,-1.3559,-1.362,-1.3715,-1.4014,-1.4183,-1.4387,-1.4679,-1.4855,-1.5004,-1.5153,-1.5303,-1.5452,0.0,-1.5615,-1.5622,-1.5628,-1.5757,-1.5845,-1.5845,-1.5852,-1.5852,-1.5859,-1.6001,-1.6008,-1.5859,-1.6008,-1.6001,-1.5852,-1.6001,-1.6076,-1.6069,-1.6069,-1.6069,-1.6083,-1.6239,-1.63,-1.6307,-1.6449,-1.6503,-1.6503,-1.651,-1.6517,-1.651,-1.6503,-1.6497,-1.6497,-1.6497,-1.6503,-1.651,-1.651,-1.6517,-1.6551,-1.67,-1.6741,-1.6775,-1.6924,-1.6965,-1.6971,-1.6971,-1.6971,-1.6978,-1.6978,-1.6978,-1.6978,-1.6978,-1.6978,-1.6978,-1.6978,-1.6978,-1.6978,-1.6978,-1.6978,-1.6978,-1.6978,-1.6978,-1.6978,-1.6978,-1.6978,-1.8013,-2.0903,-2.3568,-2.624,-2.9116,-3.1514,-3.2839,-3.2559,-3.2251,-3.1957,-3.1677,-3.1664,-3.1664,-3.1664,-3.1664,-3.1664,-3.1664,-3.1664,-3.1664,-3.1664,-3.1664,-3.1664,-1.1687,-1.1986,-1.2216,-1.2569,-1.2881,-1.3105,-1.3105,-1.318,-1.3268,-1.3315,-1.3403,-1.3505,-1.3607,-1.3871,-1.4109,-1.4204,-1.4516,-1.478,-1.4882,-1.5106,-1.5316,-1.5466,-1.5615,0.0,0.0,0.0,0.0,-1.5778,-1.5825,-1.5852,-1.5852,-1.5947,-1.6001,-1.6001,-1.6056,-1.6056,-1.6008,-1.6056,-1.6056,-1.6008,-1.6056,-1.6083,-1.6083,-1.6185,-1.6232,-1.6239,-1.6388,-1.6449,-1.6456,-1.6503,-1.6524,-1.653,-1.6632,-1.6673,-1.6686,-1.6788,-1.6829,-1.6795,-1.6592,-1.6585,-1.6673,-1.6673,-1.6741,-1.6836,-1.689,-1.6904,-1.691,-1.6965,-1.6978,-1.6978,-1.6978,-1.6978,-1.6978,-1.6978,-1.6978,-1.6978,-1.6978,-1.6978,-1.6978,-1.6978,-1.6978,-1.6978,-1.6978,-1.6978,-1.6978,-1.6978,-1.6978,-1.6978,-1.6978,-1.6978,-1.7391,-1.8222,-2.0903,-2.3568,-2.6444,-2.7091,-2.8824,-3.235,-3.0509,-3.0013,-3.1677,-3.1664,-3.1664,-3.1664,-3.1664,-3.1664,-3.1664,-3.1664,-3.1664,-3.1664,-3.1664,-3.1664,-1.1979,-1.2291,-1.2528,-1.2881,-1.3112,-1.3254,-1.3254,-1.3329,-1.3403,-1.3403,-1.3519,-1.3648,-1.3695,-1.4034,-1.4299,-1.4299,-1.4719,-1.5045,-1.5045,-1.535,-1.5608,-1.5703,-1.5798,-1.5852,0.0,0.0,0.0,-1.5845,-1.5805,-1.5798,-1.5852,-1.5947,-1.6001,-1.6001,-1.6056,-1.6083,-1.6083,-1.6083,-1.6083,-1.6083,-1.6137,-1.6164,-1.6171,-1.632,-1.6388,-1.6395,-1.6537,-1.6605,-1.6605,-1.6659,-1.6686,-1.6693,-1.6795,-1.6829,-1.6842,-1.6944,-1.6978,-1.6951,-1.6754,-1.6748,-1.6829,-1.6829,-1.6897,-1.6978,-1.6978,-1.6978,-1.6978,-1.6978,-1.6978,-1.6978,-1.6978,-1.6978,-1.6978,-1.6978,-1.6978,-1.6978,-1.6978,-1.6978,-1.6978,-1.6978,-1.6978,-1.6978,-1.6978,-1.6978,-1.6978,-1.6978,-1.6978,-1.6978,-1.6978,-1.6978,-1.6978,-1.6978,-1.9508,-2.1795,-2.3578,-2.4332,-2.6558,-3.1094,-2.9274,-2.9224,-3.1984,-3.1984,-3.1984,-3.1984,-3.1984,-3.1984,-3.1984,-3.1984,-3.1931,-3.1824,-3.1824,-3.177,-1.2162,-1.2535,-1.2854,-1.3281,-1.3397,-1.3403,-1.3403,-1.339,-1.3376,-1.3376,-1.3492,-1.3634,0.0,0.0,-1.4299,-1.4299,-1.4808,-1.5201,-1.5194,-1.5574,-1.5852,0.0,0.0,0.0,0.0,0.0,0.0,-1.5845,0.0,-1.571,-1.5845,-1.5859,-1.5866,-1.5866,-1.6008,-1.6083,-1.6083,-1.6083,-1.6083,-1.6096,-1.6239,-1.6313,-1.6327,-1.6469,-1.653,-1.6544,-1.6693,-1.6761,-1.6775,-1.6917,-1.6978,-1.6978,-1.6978,-1.6978,-1.6978,-1.6978,-1.6978,-1.6978,-1.6978,-1.6978,-1.6978,-1.6978,-1.6978,-1.6978,-1.6978,-1.6978,-1.6978,-1.6978,-1.6978,-1.6978,-1.6978,-1.6978,-1.6978,-1.6978,-1.6978,-1.6978,-1.6978,-1.6978,-1.6978,-1.6978,-1.6978,-1.6978,-1.6978,-1.6978,-1.6978,-1.6978,-1.6985,-1.6992,-1.6992,-1.6992,-1.6992,-1.7005,-1.9415,-2.1104,-2.1137,-2.3156,-2.592,-2.8731,-2.8463,-2.9529,-3.2545,-3.2545,-3.2545,-3.2545,-3.2545,-3.2545,-3.2545,-3.2545,-3.2398,-3.2131,-3.2131,-3.1971,-1.2657,-1.2922,-1.3085,-1.32,-1.3315,-1.3403,-1.3403,-1.3227,-1.3071,-1.3071,-1.3105,-1.3139,0.0,0.0,0.0,-1.4299,-1.4984,0.0,-1.5371,-1.5642,0.0,-1.571,0.0,-1.5811,-1.5703,-1.5757,0.0,0.0,-1.5818,-1.5811,-1.5852,-1.5961,-1.6022,-1.6022,-1.6062,-1.6083,-1.6083,-1.6083,-1.6137,-1.6252,-1.6293,-1.6368,-1.6469,-1.6625,-1.6693,-1.67,-1.6856,-1.6924,-1.6924,-1.6965,-1.6978,-1.6978,-1.6978,-1.6978,-1.6978,-1.6978,-1.6978,-1.6978,-1.6978,-1.6978,-1.6978,-1.6978,-1.6978,-1.6978,-1.6978,-1.6978,-1.6978,-1.6978,-1.6978,-1.6978,-1.6978,-1.6978,-1.6978,-1.6978,-1.6978,-1.6978,-1.6978,-1.6978,-1.6978,-1.6978,-1.6978,-1.6978,-1.6978,-1.6978,-1.6978,-1.6978,-1.7073,-1.7141,-1.7141,-1.7141,-1.7182,-1.7297,-1.7974,-1.9197,-2.1104,-1.9943,-2.1836,-2.8519,-2.6671,-2.7532,-3.235,-3.2545,-3.2545,-3.2545,-3.2545,-3.2545,-3.2545,-3.2545,-3.2505,-3.2425,-3.2425,-3.2398,-1.2874,-1.3166,-1.337,-1.337,-1.3485,-1.3539,-1.3342,-1.3173,-1.2996,-1.28,-1.2868,0.0,-1.322,-1.377,0.0,0.0,0.0,0.0,-1.5235,-1.5533,-1.573,0.0,-1.571,0.0,-1.5737,-1.5805,-1.5879,0.0,-1.5893,-1.5886,-1.5947,-1.6035,-1.6083,-1.6083,-1.6083,-1.611,-1.6185,-1.6185,-1.6252,-1.6402,-1.6469,-1.6544,-1.6625,-1.6781,-1.6849,-1.6856,0.0,-1.6978,-1.6978,-1.6978,-1.6978,-1.6978,-1.6978,-1.6978,-1.6978,-1.6978,-1.6978,-1.6978,-1.6978,-1.6978,-1.6978,-1.6978,-1.6978,-1.6978,-1.6978,-1.6978,-1.6978,-1.6978,-1.6978,-1.6978,-1.6978,-1.6978,-1.6978,-1.6978,-1.6978,-1.6978,-1.6978,-1.6978,-1.6978,-1.6978,-1.6978,-1.6978,-1.6978,-1.7032,-1.7073,-1.7073,-1.7202,-1.7317,-1.7385,-1.7331,-1.7324,-1.7412,-1.748,-1.8072,-1.9303,-1.8017,-1.9982,-2.6873,-2.5711,-2.7259,-3.2722,-3.2919,-3.2919,-3.2919,-3.2919,-3.2919,-3.2919,-3.2919,-3.2866,-3.2732,-3.2732,-3.2666,-1.3003,-1.3336,-1.3634,-1.3654,-1.3749,-1.3722,-1.3275,-1.3146,-1.299,-1.2535,-1.2637,-1.2956,-1.3424,-1.3736,-1.4034,-1.4367,0.0,-1.5031,-1.4923,-1.5282,-1.5567,-1.5601,-1.5628,-1.5696,-1.5839,-1.5872,-1.594,-1.6069,-1.5961,-1.594,-1.6076,-1.6083,-1.609,-1.611,-1.613,-1.6205,-1.6334,-1.6341,-1.6408,-1.6551,-1.6686,-1.6761,-1.6788,-1.6917,-1.6978,-1.6978,-1.6978,-1.6978,-1.6978,-1.6978,-1.6978,-1.6978,-1.6978,-1.6978,-1.6978,-1.6978,-1.6978,-1.6985,-1.7005,-1.7012,-1.7005,-1.6985,-1.6978,-1.6978,-1.6978,-1.6978,-1.6978,-1.6978,-1.6978,-1.6978,-1.6978,-1.6978,-1.6978,-1.6978,-1.6978,-1.6978,-1.6978,-1.6978,-1.6978,-1.6978,-1.6978,-1.6985,-1.7005,-1.7114,-1.7202,-1.7222,-1.7351,-1.75,-1.7629,-1.7534,-1.746,-1.748,-1.7595,-1.7555,-1.7249,-1.7344,-1.9607,-2.4834,-2.5215,-2.7669,-3.32,-3.3414,-3.3414,-3.3414,-3.3414,-3.3414,-3.3414,-3.3414,-3.328,-3.304,-3.304,-3.2906,-1.3437,-1.3566,-1.3654,-1.3777,-1.3824,-1.3722,-1.3275,-1.2983,0.0,-1.223,-1.2081,-1.2203,-1.2779,-1.303,-1.3329,-1.3871,-1.4238,-1.4489,-1.4577,-1.4875,-1.5174,0.0,-1.556,-1.5696,-1.5839,-1.5967,0.0,0.0,0.0,-1.6056,-1.6083,-1.6083,-1.6137,-1.6266,-1.6381,-1.6456,-1.6483,-1.6483,-1.6558,-1.6714,-1.6734,-1.6815,-1.6944,-1.6971,-1.6978,-1.6978,-1.6978,0.0,-1.6978,-1.6978,-1.6978,-1.6978,-1.6978,-1.6978,-1.6978,-1.6978,-1.6978,-1.6998,-1.7114,-1.7154,-1.7134,-1.7019,-1.6978,-1.6978,-1.6978,-1.6978,-1.6978,-1.6978,-1.6978,-1.6978,-1.6978,-1.6978,-1.6978,-1.6978,-1.6978,-1.6978,-1.6978,-1.6978,-1.6978,-1.6978,-1.6978,-1.7019,-1.7134,-1.7175,-1.7236,-1.7365,-1.7514,-1.7616,-1.765,-1.7629,-1.765,-1.7772,-1.7812,-1.7704,-1.7405,-1.7405,-1.9607,-2.4834,-2.5215,-2.7669,-3.32,-3.3414,-3.3414,-3.3414,-3.3414,-3.3414,-3.3414,-3.3414,-3.3387,-3.3334,-3.3334,-3.3307,-1.3542,-1.3734,-1.3777,-1.3926,-1.396,-1.3804,-1.32,0.0,0.0,-1.1952,-1.183,-1.2013,-1.2617,-1.2793,-1.3037,-1.3634,-1.4048,-1.4326,-1.4394,-1.4794,-1.5194,-1.5493,-1.5594,-1.5723,0.0,-1.6035,-1.6083,-1.6083,0.0,-1.6164,-1.6083,-1.6157,-1.6266,-1.6415,-1.6483,-1.6558,-1.6639,-1.6639,-1.6714,-1.687,-1.687,-1.691,-1.6978,-1.6978,-1.6978,-1.6978,-1.6978,-1.6978,-1.6978,-1.6978,-1.6978,-1.6978,-1.6978,-1.7026,-1.7087,-1.7087,-1.7141,-1.7222,-1.729,-1.7311,-1.7297,-1.7229,-1.7209,-1.7209,-1.7209,-1.7209,-1.7209,-1.7209,-1.7209,-1.7209,-1.7209,-1.7209,-1.7209,-1.7209,-1.7148,-1.7087,-1.7087,-1.7032,-1.7005,-1.7073,-1.7087,-1.7141,-1.7283,-1.7378,-1.7453,-1.7528,-1.767,-1.7758,-1.7758,-1.7758,-1.7792,-1.786,-1.786,-1.7738,-1.7446,-1.7419,-1.9607,-2.4834,-2.5215,-2.7669,-3.32,-3.3414,-3.3414,-3.3414,-3.3414,-3.3414,-3.3414,-3.3414,-3.3414,-3.3414,-3.3414,-3.3414,-1.361,-1.37,-1.3831,-1.416,-1.4222,-1.3871,-1.3253,-1.2847,0.0,-1.1782,-1.1708,-1.1965,-1.2569,-1.263,-1.2786,-1.339,-1.3756,-1.4027,-1.4224,-1.4679,-1.5167,0.0,-1.5683,0.0,-1.6056,-1.6083,0.0,-1.613,0.0,-1.63,-1.6185,-1.632,-1.6456,-1.6564,-1.6605,-1.668,-1.6795,-1.6802,-1.6863,-1.6978,-1.6978,-1.6978,-1.6978,-1.6978,-1.6978,-1.6978,-1.6978,-1.6978,-1.6978,-1.6978,-1.6978,-1.6985,-1.7012,-1.7093,-1.7195,-1.7229,-1.7317,-1.7426,-1.746,-1.7467,-1.7473,-1.7507,-1.7473,-1.7419,-1.7419,-1.7419,-1.7419,-1.7419,-1.7419,-1.7419,-1.7419,-1.7419,-1.7419,-1.7419,-1.7331,-1.7243,-1.7243,-1.7154,-1.7107,-1.7222,-1.7243,-1.729,-1.7446,-1.7568,-1.7663,-1.7684,-1.7792,-1.786,-1.786,-1.786,-1.786,-1.786,-1.7826,-1.7704,-1.7446,-1.7392,-1.9357,-2.4,-2.4804,-2.7465,-3.2384,-3.3,-3.3414,-3.3414,-3.3414,-3.3414,-3.3414,-3.3414,-3.3414,-3.3414,-3.3414,-3.3414,-1.3305,-1.362,-1.3858,-1.418,-1.4319,-1.4016,-1.3283,0.0,-1.2691,-1.1803,-1.1633,-1.1823,-1.2413,-1.2305,-1.2318,-1.2922,-1.2942,-1.3159,-1.398,-1.4258,-1.474,-1.5716,0.0,0.0,-1.6069,-1.6083,0.0,-1.6279,0.0,-1.6497,-1.6483,-1.6625,-1.6714,-1.6727,-1.6863,-1.6944,-1.6958,-1.6958,-1.6965,-1.6978,-1.6978,-1.6978,-1.6978,-1.6978,-1.6978,-1.6978,-1.6978,-1.6978,0.0,-1.6978,-1.6978,-1.6992,-1.7121,-1.7182,-1.7209,-1.7351,-1.7405,-1.7439,-1.7582,-1.7629,-1.765,-1.7772,-1.7636,-1.7419,-1.7419,-1.7419,-1.7419,-1.7419,-1.7419,-1.7419,-1.7419,-1.7419,-1.7419,-1.7419,-1.7412,-1.7399,-1.7399,-1.7392,-1.7385,-1.7399,-1.7399,-1.7446,-1.7602,-1.7629,-1.7684,-1.7826,-1.786,-1.786,-1.786,-1.786,-1.786,-1.786,-1.7738,-1.7602,-1.7433,-1.729,-1.8397,-2.1328,-2.3775,-2.6649,-2.9522,-3.1982,-3.3414,-3.3414,-3.3414,-3.3414,-3.3414,-3.3414,-3.3414,-3.3414,-3.3414,-3.3414,-1.3394,-1.3417,-1.3619,-1.3939,-1.4027,-1.4036,-1.3886,0.0,-1.2434,-1.1782,-1.1619,-1.1714,-1.1884,-1.2074,-1.2169,-1.2501,-1.2807,-1.3281,-1.4095,-1.4496,-1.5059,-1.6015,-1.613,0.0,0.0,0.0,-1.6408,0.0,0.0,-1.67,-1.6795,-1.6768,-1.6795,-1.689,-1.6951,-1.6978,-1.6978,-1.6978,-1.6978,-1.6978,-1.6978,-1.6978,-1.6978,-1.6978,-1.6978,-1.6978,-1.6978,-1.6978,0.0,-1.6978,-1.7032,-1.7114,-1.7168,-1.7304,-1.7473,-1.7534,-1.7616,-1.7704,-1.7758,-1.7772,-1.7792,-1.7846,-1.7772,-1.7684,-1.7684,-1.7684,-1.7684,-1.7684,-1.7684,-1.7684,-1.7684,-1.7684,-1.7684,-1.7684,-1.7623,-1.7555,-1.7555,-1.7487,-1.7446,-1.7541,-1.7555,-1.7602,-1.7758,-1.7772,-1.7792,-1.786,-1.786,-1.786,-1.786,-1.786,-1.7826,-1.7738,-1.7684,-1.7589,-1.7433,-1.7283,-1.8383,-2.0912,-2.3775,-2.6444,-2.9116,-3.1982,-3.3414,-3.3414,-3.3414,-3.3414,-3.3414,-3.3414,-3.3414,-3.3414,-3.3414,-3.3414,-1.331,-1.3411,-1.3526,-1.3939,-1.3939,-1.4048,-1.4209,0.0,-1.2413,-1.1755,-1.1619,-1.1647,-1.1603,-1.1777,-1.2094,-1.2203,-1.2644,-1.3302,-1.4231,-1.4638,-1.5167,-1.6069,0.0,-1.609,0.0,0.0,0.0,0.0,0.0,-1.6863,-1.6978,-1.6876,-1.687,-1.6978,-1.6978,-1.6978,-1.6978,-1.6978,-1.6978,-1.6978,-1.6978,-1.6978,-1.6978,-1.6978,-1.6978,-1.6978,-1.6978,-1.7005,0.0,-1.7039,-1.7127,-1.7263,-1.7311,-1.746,-1.765,-1.7704,-1.7772,-1.786,-1.786,-1.786,-1.786,-1.786,-1.786,-1.786,-1.786,-1.786,-1.786,-1.786,-1.786,-1.786,-1.786,-1.786,-1.786,-1.786,-1.7792,-1.7717,-1.7717,-1.7629,-1.7582,-1.7684,-1.7717,-1.7738,-1.7846,-1.786,-1.7846,-1.7812,-1.7826,-1.7846,-1.7812,-1.7846,-1.7812,-1.7663,-1.7609,-1.7521,-1.7365,-1.7216,-1.7917,-1.967,-2.2545,-2.4834,-2.695,-3.0453,-3.2351,-3.2428,-3.3264,-3.3681,-3.3681,-3.3587,-3.3547,-3.3547,-3.3454,-3.3414,-1.3089,-1.3343,-1.3459,-1.4083,-1.4323,-1.431,-1.4313,-1.3627,-1.2785,-1.1859,-1.1619,-1.1619,-1.1619,-1.1717,-1.1911,-1.206,-1.2311,-1.2976,-1.4319,-1.4516,-1.4848,0.0,0.0,-1.5859,-1.5852,-1.6395,0.0,0.0,0.0,0.0,-1.6978,-1.6978,-1.6978,-1.6978,-1.6978,-1.6978,-1.6978,-1.6978,-1.6978,-1.6978,-1.6978,-1.6978,-1.6978,-1.6978,-1.6978,-1.6978,-1.6978,-1.706,0.0,-1.7188,-1.7283,-1.7433,-1.7589,-1.765,-1.7663,-1.7812,-1.786,-1.786,-1.786,-1.786,-1.786,-1.786,-1.786,-1.786,-1.786,-1.786,-1.786,-1.786,-1.786,-1.786,-1.786,-1.786,-1.786,-1.786,-1.786,-1.786,-1.786,-1.786,-1.786,-1.786,-1.786,-1.786,-1.786,-1.786,-1.7812,-1.767,-1.7772,-1.7812,-1.767,-1.7772,-1.7812,-1.7663,-1.7514,-1.7358,-1.7209,-1.7066,-1.6985,-1.6978,-1.9662,-2.1179,-2.1356,-2.6783,-2.9824,-3.0059,-3.2827,-3.4309,-3.4309,-3.4015,-3.3881,-3.3881,-3.3561,-3.3414,-1.2025,-1.3035,-1.4062,-1.4216,-1.4261,-1.3975,-1.269,-1.2199,-1.2005,-1.1714,-1.1619,-1.1619,-1.1619,-1.171,-1.1755,-1.206,-1.2311,-1.301,-1.4462,-1.4577,-1.5038,-1.6456,-1.6354,-1.6286,0.0,0.0,0.0,0.0,0.0,-1.6978,-1.6978,-1.6978,-1.6978,-1.6978,-1.6978,-1.6978,-1.6978,-1.6978,-1.6978,-1.6978,-1.6978,-1.6978,-1.6978,-1.6978,-1.6978,-1.6985,-1.708,-1.7148,-1.7202,-1.7304,-1.7439,-1.7582,-1.7629,-1.7704,-1.7806,-1.7846,-1.786,-1.786,-1.786,-1.786,-1.786,-1.786,-1.786,-1.786,-1.786,-1.786,-1.786,-1.786,-1.786,-1.786,-1.786,-1.786,-1.786,-1.786,-1.786,-1.786,-1.786,-1.786,-1.786,-1.786,-1.786,-1.786,-1.786,-1.786,-1.7812,-1.767,-1.7772,-1.7812,-1.767,-1.7684,-1.767,-1.7507,-1.7358,-1.7243,-1.7195,-1.706,-1.6978,-1.6978,-1.9773,-2.1306,-2.1365,-2.4842,-2.7895,-2.9862,-3.0926,-3.2401,-3.4322,-3.4229,-3.4082,-3.3881,-3.3788,-3.3614,-1.1544,-1.2347,-1.3332,-1.3253,-1.3253,-1.2956,-1.188,-1.154,-1.1649,-1.1529,-1.1619,-1.1633,-1.1543,-1.1596,-1.1841,-1.2594,-1.2697,-1.3091,-1.4536,-1.4516,-1.4855,-1.6225,0.0,0.0,0.0,0.0,0.0,0.0,0.0,-1.6978,-1.6978,-1.6978,-1.6978,-1.6978,-1.6978,-1.6978,-1.6978,-1.6978,-1.6978,-1.6978,-1.6978,-1.6978,-1.6978,-1.6978,-1.7012,-1.7066,-1.7154,-1.7256,0.0,-1.7467,-1.7595,-1.7738,-1.7738,-1.7792,-1.786,-1.786,-1.786,-1.786,-1.786,-1.786,-1.786,-1.786,-1.786,-1.786,-1.786,-1.786,-1.786,-1.786,-1.786,-1.786,-1.786,-1.786,-1.786,-1.786,-1.786,-1.786,-1.786,-1.786,-1.786,-1.786,-1.786,-1.7846,-1.7792,-1.7772,-1.7738,-1.7582,-1.7629,-1.767,-1.7575,-1.7561,-1.7507,-1.7351,-1.7249,-1.7168,-1.7114,-1.7032,-1.7005,-1.706,-1.8813,-1.9758,-1.989,-2.2752,-2.5185,-2.6964,-2.9301,-3.1215,-3.2938,-3.4108,-3.4336,-3.4055,-3.3935,-3.3788,0.0,-1.1541,-1.1534,-1.1578,-1.1585,-1.1618,-1.1618,-1.1616,0.0,-1.1619,-1.1619,-1.166,-1.165,-1.1682,-1.2026,-1.3171,-1.3095,-1.3404,-1.4496,-1.4407,-1.4529,0.0,-1.5995,0.0,0.0,0.0,0.0,0.0,0.0,-1.6978,-1.6978,-1.6978,-1.6978,-1.6978,-1.6978,-1.6978,-1.6978,-1.6978,-1.6978,-1.6978,-1.6978,-1.6978,-1.6978,-1.6992,-1.7066,0.0,-1.7216,-1.7385,-1.765,-1.7663,-1.7738,-1.786,-1.786,-1.786,-1.786,-1.786,-1.786,-1.786,-1.786,-1.786,-1.786,-1.786,-1.786,-1.786,-1.786,-1.786,-1.786,-1.786,-1.786,-1.786,-1.786,-1.786,-1.786,-1.786,-1.786,-1.786,-1.786,-1.786,-1.786,-1.786,-1.786,-1.7812,-1.767,-1.7629,-1.7582,-1.7426,-1.7412,-1.7419,-1.7405,-1.7405,-1.7351,-1.7209,-1.7182,-1.7127,-1.7005,-1.6998,-1.7053,-1.7182,-1.7216,-1.7351,-1.7629,-2.0233,-2.1816,-2.221,-2.8038,-3.1059,-3.1272,-3.3626,-3.4643,-3.4349,-3.4082,-3.3921,-1.0908,0.0,-1.1606,-1.1603,-1.163,-1.1623,0.0,-1.1549,-1.1619,-1.1619,-1.1619,-1.166,-1.165,-1.202,-1.237,-1.2683,-1.3521,-1.4258,-1.3994,-1.495,-1.573,-1.6062,-1.653,-1.6863,0.0,0.0,0.0,0.0,-1.6978,-1.6978,-1.6978,-1.6978,-1.6978,-1.6978,-1.6978,-1.6978,-1.6978,-1.6978,-1.6978,-1.6978,-1.6978,-1.6978,-1.6985,-1.7093,-1.7161,-1.7202,-1.7439,-1.7582,-1.765,-1.7772,-1.7826,-1.786,-1.786,-1.786,-1.786,-1.786,-1.786,-1.786,-1.786,-1.786,-1.786,-1.786,-1.786,-1.786,-1.786,-1.786,-1.786,-1.786,-1.786,-1.786,-1.786,-1.786,-1.786,-1.786,-1.786,-1.786,-1.786,-1.786,-1.786,-1.786,-1.7772,-1.7684,-1.765,-1.7555,-1.7419,-1.727,-1.7344,-1.7378,-1.7263,-1.7249,-1.7229,-1.7195,-1.7093,-1.706,-1.7134,-1.7141,-1.7154,-1.7188,-1.7412,-1.7575,-1.765,-1.8403,-2.0004,-2.221,-2.8038,-3.1923,-3.4108,-3.49,-3.4937,-3.4656,-3.4589,-3.4322,-0.5836,-0.6088,-0.72,-1.0703,-1.1545,-1.1633,-1.1633,-1.1626,-1.1619,-1.1619,-1.1667,-1.1616,-1.1623,-1.2026,-1.28,-1.3938,-1.4361,-1.4529,-1.438,-1.5452,-1.6218,-1.63,-1.6761,-1.708,0.0,0.0,0.0,0.0,-1.6978,-1.6978,-1.6978,-1.6978,-1.6978,-1.6978,-1.6978,-1.6978,-1.6978,-1.6978,-1.6978,-1.6978,-1.7046,-1.708,-1.708,-1.7229,-1.7338,-1.7412,-1.7575,-1.7684,-1.7758,-1.7826,-1.786,-1.786,-1.786,-1.786,-1.786,-1.786,-1.786,-1.786,-1.786,-1.786,-1.786,-1.786,-1.786,-1.786,-1.786,-1.786,-1.786,-1.786,-1.786,-1.786,-1.786,-1.786,-1.786,-1.786,-1.786,-1.786,-1.786,-1.786,-1.786,-1.786,-1.7758,-1.7629,-1.7555,-1.7419,-1.729,-1.7202,-1.7209,-1.7216,-1.7195,-1.7134,-1.7121,-1.7182,-1.7121,-1.7141,-1.7283,-1.7358,-1.7399,-1.7399,-1.7555,-1.7684,-1.7738,-1.7826,-1.9177,-2.221,-2.6529,-3.0407,-3.3235,-3.4544,-3.5124,-3.4963,-3.483,-3.4523,0.0,0.0,-0.154,-0.8179,-0.9856,-1.0203,-1.1332,-1.1583,-1.1667,-1.166,-1.155,-1.1606,-1.1756,-1.2205,-1.3146,-1.5262,-1.4871,-1.4696,-1.5245,-1.5811,-1.6293,-1.6334,-1.6829,0.0,0.0,0.0,0.0,0.0,-1.6998,-1.7012,-1.7012,-1.7032,-1.7046,-1.7046,-1.7046,-1.7046,-1.7046,-1.7005,-1.6992,-1.7012,-1.7134,-1.7202,-1.7236,-1.7385,-1.7528,-1.765,0.0,0.0,-1.786,-1.786,-1.786,-1.786,-1.786,-1.786,-1.786,-1.786,-1.786,-1.786,-1.786,-1.786,-1.786,-1.786,-1.786,-1.786,-1.786,-1.786,-1.786,-1.786,-1.786,-1.786,-1.786,-1.786,-1.786,-1.786,-1.786,-1.786,-1.786,-1.786,-1.786,-1.7826,-1.7717,-1.7561,-1.7412,-1.7263,-1.7161,-1.7161,-1.706,-1.7026,-1.7148,-1.7073,-1.706,-1.7182,-1.7216,-1.729,-1.7439,-1.7575,-1.7663,-1.7684,-1.7684,-1.7738,-1.786,-1.786,-1.9177,-2.221,-2.4589,-2.7607,-3.0846,-3.3447,-3.4755,-3.5191,-3.495,-3.467,0.0,0.0,-0.0283,-0.148,-0.1766,-0.3516,-1.0151,-1.1547,-1.1577,-1.155,-1.1606,-1.1727,-1.2224,-1.236,-1.2689,-1.3016,-1.4094,-1.5271,0.0,0.0,-1.6212,-1.6463,0.0,0.0,0.0,0.0,0.0,-1.6978,-1.7093,-1.7161,-1.7161,-1.7283,-1.7351,-1.7351,-1.7351,-1.7351,-1.7351,-1.7107,-1.7039,-1.7161,-1.7182,-1.7263,-1.7392,-1.7541,-1.7629,-1.765,0.0,-1.7846,-1.786,-1.786,-1.786,-1.786,-1.786,-1.786,-1.786,-1.786,-1.786,-1.786,-1.786,-1.786,-1.786,-1.786,-1.786,-1.786,-1.786,-1.786,-1.786,-1.786,-1.786,-1.786,-1.786,-1.786,-1.786,-1.786,-1.786,-1.786,-1.786,-1.786,-1.7826,-1.7704,-1.7561,-1.7405,-1.7256,-1.7107,-1.7012,-1.7012,-1.6992,-1.6985,-1.7012,-1.71,-1.7168,-1.7188,-1.7311,-1.7446,-1.7602,-1.7629,-1.7704,-1.7826,-1.7826,-1.7846,-1.786,-1.786,-1.9177,-2.221,-2.2647,-2.5447,-3.0846,-3.1272,-3.2798,-3.5191,-3.5151,-3.4977,0.0,0.0,0.0,0.0,0.0,-0.0905,-0.451,-0.5332,-0.6541,-1.1189,-1.2102,-1.0768,-0.6533,-0.5822,-0.5744,-0.5742,0.0,-1.5864,-1.6198,-1.6503,-1.6768,0.0,0.0,0.0,0.0,0.0,0.0,-1.7087,-1.7154,-1.7229,-1.7311,-1.7385,-1.7419,-1.7419,-1.7419,-1.7419,-1.7419,-1.729,-1.7249,-1.7317,-1.7399,-1.7473,-1.7548,-1.7704,-1.7758,-1.7772,0.0,-1.786,-1.786,-1.786,-1.786,-1.786,-1.786,-1.786,-1.786,-1.786,-1.786,-1.786,-1.786,-1.786,-1.786,-1.786,-1.786,-1.786,-1.786,-1.786,-1.786,-1.786,-1.786,-1.786,-1.786,-1.786,-1.786,-1.786,-1.786,-1.786,-1.786,-1.7806,-1.7717,-1.7663,-1.746,-1.7277,-1.7202,-1.7141,-1.7093,-1.7093,-1.7168,-1.7216,-1.7216,-1.7277,-1.7344,-1.7433,-1.75,-1.7602,-1.7758,-1.7758,-1.7792,-1.786,-1.786,-1.786,-1.786,-1.786,-1.8508,-1.9823,-2.1343,-2.4372,-2.8468,-3.0193,-3.2361,-3.5191,-3.5191,-3.5044,0.0,0.0,0.0,0.0,0.0,0.0,0.0,0.0,-0.181,-0.8181,-0.9602,-0.76,-0.1189,0.0,0.0,0.0,-0.6867,0.0,0.0,0.0,0.0,0.0,0.0,0.0,0.0,0.0,0.0,-1.7195,-1.7249,-1.7338,-1.748,-1.7521,-1.7534,-1.7528,-1.7528,-1.7528,-1.7528,-1.7528,-1.7507,-1.7473,-1.7595,-1.7663,-1.7704,-1.7812,-1.786,-1.786,-1.786,-1.786,-1.786,-1.786,-1.786,-1.786,-1.786,-1.786,-1.786,-1.786,-1.786,-1.786,-1.786,-1.786,-1.786,-1.786,-1.786,-1.786,-1.786,-1.786,-1.786,-1.786,-1.786,-1.786,-1.786,-1.786,-1.786,-1.786,-1.786,-1.786,-1.786,-1.7772,-1.7684,-1.765,-1.746,-1.729,-1.7249,-1.7243,-1.7243,-1.7243,-1.7344,-1.7419,-1.7419,-1.7453,-1.7521,-1.7629,-1.7684,-1.7738,-1.7846,-1.786,-1.786,-1.786,-1.786,-1.786,-1.786,-1.786,-1.786,-1.786,-2.0035,-2.2647,-2.5447,-2.8468,-3.1284,-3.4108,-3.498,-3.5084,0.0,0.0,0.0,0.0,0.0,0.0,0.0,0.0,-0.0172,-0.0849,-0.0891,-0.0744,-0.0186,0.0,0.0,0.0,-0.0605,0.0,0.0,0.0,0.0,0.0,0.0,0.0,0.0,0.0,-1.7093,-1.7029,-1.721,-1.7358,-1.7684,-1.7826,-1.788,-1.7826,-1.7826,-1.7826,-1.7826,-1.7826,-1.7758,-1.7629,-1.765,-1.7717,-1.7846,-1.786,-1.786,-1.786,-1.786,-1.786,-1.786,-1.786,-1.786,-1.786,-1.786,-1.786,-1.786,-1.786,-1.786,-1.786,-1.786,-1.786,-1.786,-1.786,-1.786,-1.786,-1.786,-1.786,-1.786,-1.786,-1.786,-1.786,-1.786,-1.786,-1.786,-1.786,-1.786,-1.786,-1.786,-1.786,-1.7812,-1.767,-1.7629,-1.7568,-1.7433,-1.7405,-1.7405,-1.7405,-1.7412,-1.7419,-1.7419,-1.7548,-1.7629,-1.765,-1.7772,-1.7846,-1.786,-1.786,-1.786,-1.786,-1.786,-1.786,-1.786,-1.786,-1.786,-1.786,-1.8074,-1.961,-2.2429,-2.5447,-2.8253,-3.1272,-3.3883,-3.5191,0.0,0.0,0.0,0.0,0.0,0.0,0.0,0.0,0.0,0.0,0.0,0.0,0.0,0.0,0.0,0.0,0.0,0.0,0.0,0.0,0.0,0.0,0.0,0.0,0.0,0.0,0.0,-1.1924,-1.1813,-1.1919,-1.2228,-1.5862,-1.7935,-1.7914,-1.788,-1.786,-1.786,-1.786,-1.7826,-1.7772,-1.7772,-1.7812,-1.786,-1.786,-1.786,-1.786,-1.786,-1.786,-1.786,-1.786,-1.786,-1.786,-1.786,-1.786,-1.786,-1.786,-1.786,-1.786,-1.786,-1.786,-1.786,-1.786,-1.786,-1.786,-1.786,-1.786,-1.788,-1.7989,-1.8002,-1.8002,-1.8002,-1.8002,-1.8002,-1.8002,-1.8002,-1.7989,-1.788,-1.7792,-1.7717,-1.7663,-1.7568,-1.7487,-1.7433,-1.75,-1.7561,-1.7561,-1.7629,-1.7704,-1.7704,-1.7738,-1.7772,-1.7772,-1.7826,-1.786,-1.786,-1.786,-1.786,-1.786,-1.786,-1.786,-1.786,-1.786,-1.786,-1.786,-1.786,-1.9383,-2.221,-2.5014,-2.8038,-3.1059,-3.3883,-3.5191,0.0,0.0,0.0,0.0,0.0,0.0,0.0,0.0,0.0,0.0,0.0,0.0,0.0,0.0,0.0,0.0,0.0,0.0,0.0,0.0,0.0,0.0,0.0,0.0,0.0,0.0,0.0,-1.1569,-0.791,-0.5979,-0.6027,-1.0054,-1.4092,-1.7726,-1.7914,-1.788,-1.788,-1.786,-1.786,-1.786,-1.786,-1.786,-1.786,-1.786,-1.786,-1.786,-1.786,-1.786,-1.786,-1.786,-1.786,-1.786,-1.786,-1.786,-1.786,-1.786,-1.786,-1.786,-1.786,-1.786,-1.786,-1.786,-1.786,-1.786,-1.786,-1.7901,-1.7948,-1.8057,-1.8124,-1.8158,-1.8158,-1.8124,-1.8091,-1.8091,-1.8057,-1.7989,-1.788,-1.7792,-1.7717,-1.7717,-1.7629,-1.7561,-1.7561,-1.765,-1.7717,-1.7717,-1.7792,-1.786,-1.786,-1.786,-1.786,-1.786,-1.786,-1.786,-1.786,-1.786,-1.786,-1.786,-1.786,-1.786,-1.786,-1.786,-1.786,-1.786,-1.786,-1.8964,-2.0905,-2.372,-2.6097,-2.8253,-3.2148,-3.3883,0.0,0.0,0.0,0.0,0.0,0.0,0.0,0.0,0.0,0.0,0.0,0.0,0.0,0.0,0.0,0.0,0.0,0.0,0.0,0.0,0.0,0.0,0.0,0.0,0.0,0.0,0.0,-1.6935,-0.6399,0.0,0.0,0.0,-0.5366,-1.7314,-1.7726,-1.7928,-1.7935,-1.788,-1.786,-1.786,-1.786,-1.786,-1.786,-1.786,-1.786,-1.786,-1.786,-1.786,-1.786,-1.786,-1.786,-1.786,-1.786,-1.786,-1.786,-1.786,-1.786,-1.786,-1.786,-1.786,-1.786,-1.786,-1.786,-1.786,-1.786,-1.7968,-1.8091,-1.8091,-1.8199,-1.8321,-1.8321,-1.8213,-1.8091,-1.8091,-1.7968,-1.786,-1.786,-1.786,-1.786,-1.786,-1.786,-1.786,-1.786,-1.786,-1.786,-1.786,-1.786,-1.786,-1.786,-1.786,-1.786,-1.786,-1.786,-1.786,-1.786,-1.786,-1.786,-1.786,-1.786,-1.786,-1.786,-1.786,-1.786,-1.786,-1.786,-1.786,-1.786,-2.0701,-2.221,-2.2437,-2.8253,-3.0846,0.0,0.0,0.0,0.0,0.0,0.0,0.0,0.0,0.0,0.0,0.0,0.0,0.0,0.0,0.0,0.0,0.0,0.0,0.0,0.0,0.0,0.0,0.0,0.0,0.0,0.0,0.0,0.0,-0.2003,0.0,0.0,0.0,-0.1565,-0.5143,-0.9382,-1.3652,-1.776,-1.7968,-1.7968,-1.7968,-1.7968,-1.7935,-1.786,-1.786,-1.786,-1.786,-1.786,-1.786,-1.786,-1.786,-1.786,-1.786,-1.786,-1.7935,-1.8023,-1.8023,-1.8023,-1.8023,-1.8023,-1.7948,-1.786,-1.786,-1.786,-1.788,-1.7989,-1.8057,-1.8124,-1.8335,-1.8355,-1.8335,-1.8443,-1.8287,-1.8091,-1.8091,-1.8057,-1.7989,-1.788,-1.786,-1.786,-1.786,-1.786,-1.786,-1.786,-1.786,-1.786,-1.786,-1.786,-1.786,-1.786,-1.786,-1.786,-1.786,-1.786,-1.786,-1.786,-1.786,-1.786,-1.786,-1.786,-1.786,-1.786,-1.786,-1.786,-1.786,-1.786,-1.786,-1.786,-2.0701,-2.221,-2.2437,-2.8253,-3.0846,0.0,0.0,0.0,0.0,0.0,0.0,0.0,0.0,0.0,0.0,0.0,0.0,0.0,0.0,0.0,0.0,0.0,0.0,0.0,0.0,0.0,0.0,0.0,0.0,0.0,0.0,0.0,0.0,0.0,0.0,0.0,0.0,0.0,0.0,-0.3576,-0.7153,-1.0751,-1.3227,-1.4347,-1.4347,-1.4401,-1.439,-1.4352,-1.6805,-1.7914,-1.7914,-1.7894,-1.7914,-1.7948,-1.7948,-1.7989,-1.8036,-1.8036,-1.8111,-1.8179,-1.8179,-1.8179,-1.8179,-1.8179,-1.8077,-1.7948,-1.7948,-1.7914,-1.7901,-1.8036,-1.8124,-1.8213,-1.8389,-1.8423,-1.8389,-1.8375,-1.8233,-1.8091,-1.8091,-1.8036,-1.7968,-1.788,-1.786,-1.786,-1.786,-1.786,-1.786,-1.786,-1.786,-1.786,-1.786,-1.786,-1.786,-1.786,-1.786,-1.786,-1.786,-1.786,-1.786,-1.786,-1.786,-1.786,-1.786,-1.786,-1.786,-1.786,-1.786,-1.786,-1.786,-1.786,-1.786,-1.786,-1.9618,-2.0466,-2.0694,-2.5231,-2.7392,0.0,0.0,0.0,0.0,0.0,0.0,0.0,0.0,0.0,0.0,0.0,0.0,0.0,0.0,0.0,0.0,0.0,0.0,0.0,0.0,0.0,0.0,0.0,0.0,0.0,0.0,0.0,0.0,0.0,0.0,0.0,0.0,0.0,0.0,0.0,0.0,0.0,-0.5366,-0.8051,-0.806,-0.8575,-0.8837,-0.9063,-1.4658,-1.7117,-1.7117,-1.7773,-1.8023,-1.8124,-1.8111,-1.8199,-1.8321,-1.8321,-1.8321,-1.8335,-1.8335,-1.8335,-1.8335,-1.8335,-1.8233,-1.8111,-1.8091,-1.8002,-1.7935,-1.8077,-1.8213,-1.8335,-1.8335,-1.8423,-1.8443,-1.8165,-1.8077,-1.8077,-1.8077,-1.7968,-1.786,-1.786,-1.786,-1.786,-1.786,-1.786,-1.786,-1.786,-1.786,-1.786,-1.786,-1.786,-1.786,-1.786,-1.786,-1.786,-1.786,-1.786,-1.786,-1.786,-1.786,-1.786,-1.786,-1.786,-1.786,-1.786,-1.786,-1.786,-1.786,-1.786,-1.786,-1.786,-1.786,-1.786,-1.7867,-2.0905,-2.221,0.0,0.0,0.0,0.0,0.0,0.0,0.0,0.0,0.0,0.0,0.0,0.0,0.0,0.0,0.0,0.0,0.0,0.0,0.0,0.0,0.0,0.0,0.0,0.0,0.0,0.0,0.0,0.0,0.0,0.0,0.0,0.0,0.0,0.0,0.0,0.0,0.0,-0.1359,-0.1817,-0.2058,-0.6651,-0.8956,-0.8956,-1.028,-1.0939,-1.117,-1.5991,-1.8074,-1.8088,-1.828,-1.8287,-1.8321,-1.8321,-1.8389,-1.8477,-1.8477,-1.8477,-1.8477,-1.8477,-1.8389,-1.8247,-1.8124,-1.8145,-1.8233,-1.8267,-1.8375,-1.8477,-1.8477,-1.8423,-1.8321,-1.8145,-1.8002,-1.7914,-1.7914,-1.788,-1.786,-1.786,-1.786,-1.786,-1.786,-1.786,-1.786,-1.786,-1.786,-1.786,-1.786,-1.786,-1.786,-1.786,-1.786,-1.786,-1.786,-1.786,-1.786,-1.786,-1.786,-1.786,-1.786,-1.786,-1.786,-1.786,-1.786,-1.786,-1.786,-1.786,-1.786,-1.786,-1.786,-1.786,-1.7867,-2.0905,-2.221,0.0,0.0,0.0,0.0,0.0,0.0,0.0,0.0,0.0,0.0,0.0,0.0,0.0,0.0,0.0,0.0,0.0,0.0,0.0,0.0,0.0,0.0,0.0,0.0,0.0,0.0,0.0,0.0,0.0,0.0,0.0,0.0,0.0,0.0,0.0,0.0,0.0,0.0,0.0,-0.0,-0.3235,-0.4641,-0.4658,-0.4611,-0.4585,-0.4809,-0.801,-1.2868,-1.8275,-1.8249,-1.8498,-1.8565,-1.8531,-1.8586,-1.864,-1.864,-1.864,-1.864,-1.864,-1.8552,-1.8409,-1.8321,-1.8301,-1.8335,-1.8409,-1.8477,-1.8511,-1.8443,-1.8375,-1.8267,-1.8036,-1.7914,-1.786,-1.786,-1.786,-1.786,-1.786,-1.786,-1.786,-1.786,-1.786,-1.786,-1.786,-1.786,-1.786,-1.786,-1.786,-1.786,-1.786,-1.786,-1.786,-1.786,-1.786,-1.786,-1.786,-1.786,-1.786,-1.786,-1.786,-1.786,-1.786,-1.786,-1.786,-1.786,-1.786,-1.786,-1.786,-1.786,-1.786,-1.7867,-1.939,-2.0035,0.0,0.0,0.0,0.0,0.0,0.0,0.0,0.0,0.0,0.0,0.0,0.0,0.0,0.0,0.0,0.0,0.0,0.0,0.0,0.0,0.0,0.0,0.0,0.0,0.0,0.0,0.0,0.0,0.0,0.0,0.0,0.0,0.0,0.0,0.0,0.0,0.0,0.0,0.0,0.0,0.0,0.0,0.0,0.0,0.0,0.0,0.0,-0.5775,-1.5166,-1.6774,-1.7993,-1.883,-1.8782,-1.8762,-1.8762,-1.8762,-1.8762,-1.8762,-1.8762,-1.8674,-1.8565,-1.8531,-1.8477,-1.8409,-1.8498,-1.8552,-1.8531,-1.8375,-1.8321,-1.8247,-1.7948,-1.786,-1.786,-1.786,-1.786,-1.786,-1.786,-1.786,-1.786,-1.786,-1.786,-1.786,-1.786,-1.786,-1.786,-1.786,-1.786,-1.786,-1.786,-1.786,-1.786,-1.786,-1.786,-1.786,-1.786,-1.786,-1.786,-1.786,-1.786,-1.786,-1.786,-1.786,-1.786,-1.786,-1.786,-1.786,-1.786,-1.786,-1.786,-1.786,-1.786,-1.786,0.0,0.0,0.0,0.0,0.0,0.0,0.0,0.0,0.0,0.0,0.0,0.0,0.0,0.0,0.0,0.0,0.0,0.0,0.0,0.0,0.0,0.0,0.0,0.0,0.0,0.0,0.0,0.0,0.0,0.0,0.0,0.0,0.0,0.0,0.0,0.0,0.0,0.0,0.0,0.0,0.0,0.0,0.0,0.0,0.0,0.0,0.0,-0.0936,-0.3044,-1.0285,-1.547,-1.883,-1.8782,-1.8762,-1.8762,-1.8762,-1.8762,-1.8762,-1.8762,-1.8742,-1.8708,-1.8565,-1.8599,-1.8674,-1.8565,-1.862,-1.8674,-1.8389,-1.8321,-1.8247,-1.7948,-1.786,-1.786,-1.786,-1.786,-1.786,-1.786,-1.786,-1.786,-1.786,-1.786,-1.786,-1.786,-1.786,-1.786,-1.786,-1.786,-1.786,-1.786,-1.786,-1.786,-1.786,-1.786,-1.786,-1.786,-1.786,-1.786,-1.786,-1.786,-1.786,-1.786,-1.786,-1.786,-1.786,-1.786,-1.786,-1.786,-1.786,-1.786,-1.786,-1.786,-1.786,0.0,0.0,0.0,0.0,0.0,0.0,0.0,0.0,0.0,0.0,0.0,0.0,0.0,0.0,0.0,0.0,0.0,0.0,0.0,0.0,0.0,0.0,0.0,0.0,0.0,0.0,0.0,0.0,0.0,0.0,0.0,0.0,0.0,0.0,0.0,0.0,0.0,0.0,0.0,0.0,0.0,0.0,0.0,0.0,0.0,0.0,0.0,0.0,-0.0235,-0.3985,-1.0794,-1.8864,-1.8816,-1.8782,-1.8762,-1.8762,-1.8762,-1.8762,-1.8762,-1.8762,-1.8742,-1.8694,-1.8708,-1.8742,-1.8674,-1.8708,-1.8708,-1.8409,-1.8321,-1.8247,-1.7948,-1.786,-1.786,-1.786,-1.786,-1.786,-1.786,-1.786,-1.786,-1.786,-1.786,-1.786,-1.786,-1.786,-1.786,-1.786,-1.786,-1.786,-1.786,-1.786,-1.786,-1.786,-1.786,-1.786,-1.786,-1.786,-1.786,-1.786,-1.786,-1.786,-1.786,-1.786,-1.7901,-1.7989,-1.7901,-1.786,-1.786,-1.786,-1.786,-1.786,-1.786,-1.786,0.0,0.0,0.0,0.0,0.0,0.0,0.0,0.0,0.0,0.0,0.0,0.0,0.0,0.0,0.0,0.0,0.0,0.0,0.0,0.0,0.0,0.0,0.0,0.0,0.0,0.0,0.0,0.0,0.0,0.0,0.0,0.0,0.0,0.0,0.0,0.0,0.0,0.0,0.0,0.0,0.0,0.0,0.0,0.0,0.0,0.0,0.0,0.0,0.0,0.0,-0.5634,-1.4363,-1.7645,-1.8816,-1.8782,-1.8762,-1.8762,-1.8762,-1.8762,-1.8762,-1.8762,-1.8762,-1.8762,-1.8762,-1.8762,-1.8728,-1.8654,-1.8389,-1.8287,-1.8199,-1.7935,-1.786,-1.786,-1.786,-1.786,-1.786,-1.786,-1.786,-1.786,-1.786,-1.786,-1.786,-1.786,-1.786,-1.786,-1.786,-1.786,-1.786,-1.786,-1.786,-1.786,-1.786,-1.786,-1.786,-1.786,-1.786,-1.786,-1.786,-1.786,-1.788,-1.7914,-1.7914,-1.7989,-1.8145,-1.8036,-1.7968,-1.7914,-1.788,-1.786,-1.786,-1.786,-1.786,0.0,0.0,0.0,0.0,0.0,0.0,0.0,0.0,0.0,0.0,0.0,0.0,0.0,0.0,0.0,0.0,0.0,0.0,0.0,0.0,0.0,0.0,0.0,0.0,0.0,0.0,0.0,0.0,0.0,0.0,0.0,0.0,0.0,0.0,0.0,0.0,0.0,0.0,0.0,0.0,0.0,0.0,0.0,0.0,0.0,0.0,0.0,0.0,0.0,0.0,-0.047,-0.2111,-1.4088,-1.883,-1.8816,-1.8782,-1.8762,-1.8762,-1.8762,-1.8762,-1.8762,-1.8762,-1.8762,-1.8762,-1.8762,-1.8654,-1.8511,-1.8355,-1.8213,-1.8077,-1.7901,-1.786,-1.786,-1.786,-1.786,-1.786,-1.786,-1.786,-1.786,-1.786,-1.786,-1.786,-1.786,-1.786,-1.786,-1.786,-1.786,-1.786,-1.786,-1.786,-1.786,-1.786,-1.786,-1.786,-1.786,-1.786,-1.786,-1.786,-1.786,-1.7935,-1.8077,-1.8077,-1.8145,-1.8301,-1.8301,-1.8233,-1.8077,-1.7935,-1.786,-1.786,-1.786,-1.786,0.0,0.0,0.0,0.0,0.0,0.0,0.0,0.0,0.0,0.0,0.0,0.0,0.0,0.0,0.0,0.0,0.0,0.0,0.0,0.0,0.0,0.0,0.0,0.0,0.0,0.0,0.0,0.0,0.0,0.0,0.0,0.0,0.0,0.0,0.0,0.0,0.0,0.0,0.0,0.0,0.0,0.0,0.0,0.0,0.0,0.0,0.0,0.0,0.0,0.0,0.0,-0.0466,-0.4914,-1.1695,-1.8694,-1.8674,-1.864,-1.862,-1.862,-1.862,-1.864,-1.8728,-1.8762,-1.8762,-1.8762,-1.8654,-1.8498,-1.8355,-1.8213,-1.8057,-1.7901,-1.786,-1.786,-1.786,-1.786,-1.786,-1.786,-1.786,-1.786,-1.786,-1.786,-1.786,-1.786,-1.786,-1.786,-1.786,-1.786,-1.786,-1.786,-1.786,-1.786,-1.786,-1.786,-1.786,-1.786,-1.786,-1.7901,-1.8002,-1.8002,-1.8077,-1.8233,-1.8233,-1.8301,-1.8464,-1.8375,-1.8247,-1.8091,-1.8036,-1.7948,-1.786,-1.786,-1.786,0.0,0.0,0.0,0.0,0.0,0.0,0.0,0.0,0.0,0.0,0.0,0.0,0.0,0.0,0.0,0.0,0.0,0.0,0.0,0.0,0.0,0.0,0.0,0.0,0.0,0.0,0.0,0.0,0.0,0.0,0.0,0.0,0.0,0.0,0.0,0.0,0.0,0.0,0.0,0.0,0.0,0.0,0.0,0.0,0.0,0.0,0.0,0.0,0.0,0.0,0.0,0.0,0.0,-0.6299,-1.578,-1.7659,-1.8545,-1.8464,-1.8464,-1.8464,-1.8477,-1.8586,-1.862,-1.862,-1.862,-1.8511,-1.8355,-1.8267,-1.8124,-1.7989,-1.7901,-1.786,-1.786,-1.786,-1.786,-1.786,-1.786,-1.786,-1.786,-1.786,-1.786,-1.786,-1.786,-1.786,-1.786,-1.786,-1.786,-1.786,-1.786,-1.786,-1.786,-1.786,-1.786,-1.788,-1.7935,-1.7935,-1.8002,-1.8158,-1.8165,-1.8233,-1.8389,-1.8389,-1.8464,-1.8599,-1.8511,-1.8389,-1.8233,-1.8145,-1.8036,-1.7935,-1.788,-1.786,0.0,0.0,0.0,0.0,0.0,0.0,0.0,0.0,0.0,0.0,0.0,0.0,0.0,0.0,0.0,0.0,0.0,0.0,0.0,0.0,0.0,0.0,0.0,0.0,0.0,0.0,0.0,0.0,0.0,0.0,0.0,0.0,0.0,0.0,0.0,0.0,0.0,0.0,0.0,0.0,0.0,0.0,0.0,0.0,0.0,0.0,0.0,0.0,0.0,0.0,0.0,0.0,0.0,-0.3499,-0.9488,-1.6004,-1.8477,-1.8321,-1.8321,-1.8321,-1.8321,-1.8321,-1.8321,-1.8321,-1.8321,-1.8213,-1.8091,-1.8091,-1.7989,-1.786,-1.786,-1.786,-1.786,-1.786,-1.786,-1.786,-1.786,-1.786,-1.786,-1.786,-1.786,-1.786,-1.786,-1.786,-1.786,-1.786,-1.786,-1.786,-1.786,-1.786,-1.786,-1.786,-1.788,-1.7935,-1.8091,-1.8091,-1.8158,-1.8321,-1.8321,-1.8389,-1.8531,-1.8531,-1.8599,-1.8762,-1.8762,-1.8694,-1.8531,-1.8247,-1.8091,-1.8091,-1.7935,-1.786,0.0,0.0,0.0,0.0,0.0,0.0,0.0,0.0,0.0,0.0,0.0,0.0,0.0,0.0,0.0,0.0,0.0,0.0,0.0,0.0,0.0,0.0,0.0,0.0,0.0,0.0,0.0,0.0,0.0,0.0,0.0,0.0,0.0,0.0,0.0,0.0,0.0,0.0,0.0,0.0,0.0,0.0,0.0,0.0,0.0,0.0,0.0,0.0,0.0,0.0,0.0,0.0,0.0,-0.0924,-0.3643,-1.417,-1.8054,-1.8199,-1.8165,-1.8158,-1.8179,-1.8287,-1.8321,-1.8321,-1.8321,-1.8213,-1.8091,-1.8091,-1.7989,-1.786,-1.786,-1.786,-1.786,-1.786,-1.786,-1.786,-1.786,-1.786,-1.786,-1.786,-1.786,-1.786,-1.786,-1.786,-1.786,-1.786,-1.786,-1.786,-1.786,-1.7968,-1.8023,-1.8023,-1.8124,-1.8213,-1.8247,-1.8247,-1.8321,-1.8464,-1.8477,-1.8552,-1.8694,-1.8694,-1.8728,-1.8762,-1.8762,-1.8742,-1.8694,-1.8409,-1.8199,-1.8091,-1.7935,-1.786,0.0,0.0,0.0,0.0,0.0,0.0,0.0,0.0,0.0,0.0,0.0,0.0,0.0,0.0,0.0,0.0,0.0,0.0,0.0,0.0,0.0,0.0,0.0,0.0,0.0,0.0,0.0,0.0,0.0,0.0,0.0,0.0,0.0,0.0,0.0,0.0,0.0,0.0,0.0,0.0,0.0,0.0,0.0,0.0,0.0,0.0,0.0,0.0,0.0,0.0,0.0,0.0,0.0,0.0,-0.0906,-0.7926,-1.3573,-1.8057,-1.8036,-1.8023,-1.8002,-1.8111,-1.8124,-1.8124,-1.8124,-1.8077,-1.8002,-1.8002,-1.7935,-1.786,-1.786,-1.786,-1.786,-1.786,-1.786,-1.786,-1.786,-1.786,-1.786,-1.786,-1.786,-1.786,-1.786,-1.786,-1.788,-1.7948,-1.7948,-1.7989,-1.8036,-1.8124,-1.8179,-1.8179,-1.8267,-1.8335,-1.8409,-1.8409,-1.8477,-1.862,-1.862,-1.8674,-1.8762,-1.8762,-1.8762,-1.8762,-1.8762,-1.8708,-1.8586,-1.8409,-1.8213,-1.7989,-1.7901,-1.786,0.0,0.0,0.0,0.0,0.0,0.0,0.0,0.0,0.0,0.0,0.0,0.0,0.0,0.0,0.0,0.0,0.0,0.0,0.0,0.0,0.0,0.0,0.0,0.0,0.0,0.0,0.0,0.0,0.0,0.0,0.0,0.0,0.0,0.0,0.0,0.0,0.0,0.0,0.0,0.0,0.0,0.0,0.0,0.0,0.0,0.0,0.0,0.0,0.0,0.0,0.0,0.0,0.0,0.0,0.0,0.0,-0.6745,-1.6138,-1.751,-1.7948,-1.7914,-1.7914,-1.7914,-1.7914,-1.7914,-1.7914,-1.7914,-1.7914,-1.7914,-1.7914,-1.7914,-1.7914,-1.7914,-1.7914,-1.7914,-1.7914,-1.7914,-1.7914,-1.7914,-1.7914,-1.7901,-1.7901,-1.7914,-1.7914,-1.7968,-1.8091,-1.8111,-1.8165,-1.8301,-1.8335,-1.8335,-1.8335,-1.8355,-1.8423,-1.8552,-1.8552,-1.862,-1.8762,-1.8762,-1.8762,-1.8762,-1.8762,-1.8762,-1.8762,-1.8762,-1.862,-1.8321,-1.8321,-1.8158,-1.786,-1.786,-1.786,0.0,0.0,0.0,0.0,0.0,0.0,0.0,0.0,0.0,0.0,0.0,0.0,0.0,0.0,0.0,0.0,0.0,0.0,0.0,0.0,0.0,0.0,0.0,0.0,0.0,0.0,0.0,0.0,0.0,0.0,0.0,0.0,0.0,0.0,0.0,0.0,0.0,0.0,0.0,0.0,0.0,0.0,0.0,0.0,0.0,0.0,0.0,0.0,0.0,0.0,0.0,0.0,0.0,0.0,0.0,0.0,-0.1573,-0.4966,-1.4494,-1.8001,-1.8054,-1.8054,-1.8267,-1.8233,-1.8233,-1.8233,-1.8233,-1.8233,-1.8233,-1.8233,-1.8233,-1.8233,-1.8233,-1.8233,-1.8233,-1.8233,-1.8233,-1.8233,-1.8233,-1.8233,-1.8124,-1.8091,-1.8213,-1.8233,-1.8247,-1.8267,-1.8267,-1.8287,-1.8321,-1.8423,-1.8498,-1.8498,-1.8599,-1.8694,-1.8708,-1.8708,-1.8728,-1.8762,-1.8762,-1.8762,-1.8762,-1.8762,-1.8762,-1.8762,-1.8762,-1.862,-1.8321,-1.8321,-1.8158,-1.786,-1.786,-1.786,0.0,0.0,0.0,0.0,0.0,0.0,0.0,0.0,0.0,0.0,0.0,0.0,0.0,0.0,0.0,0.0,0.0,0.0,0.0,0.0,0.0,0.0,0.0,0.0,0.0,0.0,0.0,0.0,0.0,0.0,0.0,0.0,0.0,0.0,0.0,0.0,0.0,0.0,0.0,0.0,0.0,0.0,0.0,0.0,0.0,0.0,0.0,0.0,0.0,0.0,0.0,0.0,0.0,0.0,0.0,0.0,0.0,-0.0911,-0.6837,-1.0971,-1.3989,-1.725,-1.8389,-1.8355,-1.8355,-1.8355,-1.8355,-1.8321,-1.8342,-1.8355,-1.8321,-1.8321,-1.8321,-1.8321,-1.8321,-1.8321,-1.8321,-1.8321,-1.8335,-1.8409,-1.8355,-1.8321,-1.8321,-1.8321,-1.8335,-1.8409,-1.8423,-1.8464,-1.8531,-1.8599,-1.864,-1.864,-1.8708,-1.8762,-1.8762,-1.8762,-1.8762,-1.8762,-1.8762,-1.8762,-1.8762,-1.8762,-1.8762,-1.8762,-1.8762,-1.862,-1.8321,-1.8321,-1.8158,-1.786,-1.786,-1.786,0.0,0.0,0.0,0.0,0.0,0.0,0.0,0.0,0.0,0.0,0.0,0.0,0.0,0.0,0.0,0.0,0.0,0.0,0.0,0.0,0.0,0.0,0.0,0.0,0.0,0.0,0.0,0.0,0.0,0.0,0.0,0.0,0.0,0.0,0.0,0.0,0.0,0.0,0.0,0.0,0.0,0.0,0.0,0.0,0.0,0.0,0.0,0.0,0.0,0.0,0.0,0.0,0.0,0.0,0.0,0.0,0.0,0.0,0.0,-0.3217,-0.8287,-1.4563,-1.7588,-1.8498,-1.8498,-1.8498,-1.8007,-1.6807,-1.7523,-1.8477,-1.8443,-1.8423,-1.8423,-1.8423,-1.8423,-1.8423,-1.8423,-1.8423,-1.8443,-1.8552,-1.8586,-1.8531,-1.8423,-1.8409,-1.8443,-1.8565,-1.8586,-1.862,-1.8742,-1.8762,-1.8762,-1.8762,-1.8762,-1.8762,-1.8762,-1.8762,-1.8762,-1.8762,-1.8762,-1.8762,-1.8762,-1.8762,-1.8762,-1.8762,-1.8762,-1.862,-1.8321,-1.8321,-1.8158,-1.786,-1.786,-1.786,0.0,0.0,0.0,0.0,0.0,0.0,0.0,0.0,0.0,0.0,0.0,0.0,0.0,0.0,0.0,0.0,0.0,0.0,0.0,0.0,0.0,0.0,0.0,0.0,0.0,0.0,0.0,0.0,0.0,0.0,0.0,0.0,0.0,0.0,0.0,0.0,0.0,0.0,0.0,0.0,0.0,0.0,0.0,0.0,0.0,0.0,0.0,0.0,0.0,0.0,0.0,0.0,0.0,0.0,0.0,0.0,0.0,0.0,0.0,-0.0466,-0.2107,-0.8444,-1.4103,-1.885,-1.885,-1.8843,-1.7645,-1.1932,-1.4533,-1.8843,-1.883,-1.883,-1.883,-1.883,-1.883,-1.883,-1.8776,-1.8776,-1.8762,-1.8742,-1.8742,-1.8728,-1.8708,-1.8708,-1.8708,-1.8728,-1.8742,-1.8742,-1.8762,-1.8762,-1.8762,-1.8762,-1.8762,-1.8762,-1.8762,-1.8762,-1.8762,-1.8762,-1.8762,-1.8762,-1.8762,-1.8762,-1.8762,-1.8762,-1.8762,-1.862,-1.8321,-1.8321,-1.8158,-1.786,-1.786,-1.786,0.0,0.0,0.0,0.0,0.0,0.0,0.0,0.0,0.0,0.0,0.0,0.0,0.0,0.0,0.0,0.0,0.0,0.0,0.0,0.0,0.0,0.0,0.0,0.0,0.0,0.0,0.0,0.0,0.0,0.0,0.0,0.0,0.0,0.0,0.0,0.0,0.0,0.0,0.0,0.0,0.0,0.0,0.0,0.0,0.0,0.0,0.0,0.0,0.0,0.0,0.0,0.0,0.0,0.0,0.0,0.0,0.0,0.0,0.0,0.0,-0.047,-0.3055,-0.5634,-0.8687,-1.2214,-1.58,-1.7493,-1.1265,-0.8681,-0.869,-1.2452,-1.3402,-1.3402,-1.3402,-1.3402,-1.3402,-1.3387,-1.6215,-1.883,-1.8816,-1.8782,-1.8762,-1.8762,-1.8762,-1.8762,-1.8762,-1.8762,-1.8762,-1.8762,-1.8762,-1.8762,-1.8762,-1.8762,-1.8762,-1.8762,-1.8762,-1.8762,-1.8762,-1.8762,-1.8762,-1.8762,-1.8762,-1.8762,-1.8762,-1.8762,-1.862,-1.8321,-1.8321,-1.8158,-1.786,-1.786,-1.786,0.0,0.0,0.0,0.0,0.0,0.0,0.0,0.0,0.0,0.0,0.0,0.0,0.0,0.0,0.0,0.0,0.0,0.0,0.0,0.0,0.0,0.0,0.0,0.0,0.0,0.0,0.0,0.0,0.0,0.0,0.0,0.0,0.0,0.0,0.0,0.0,0.0,0.0,0.0,0.0,0.0,0.0,0.0,0.0,0.0,0.0,0.0,0.0,0.0,0.0,0.0,0.0,0.0,0.0,0.0,0.0,0.0,0.0,0.0,0.0,0.0,0.0,0.0,-0.094,-0.54,-1.0121,-1.2745,-0.8224,-0.3522,-0.094,-0.5634,-0.6804,-0.6804,-0.6804,-0.6804,-0.6804,-0.6797,-1.0322,-1.4565,-1.8131,-1.883,-1.8796,-1.8782,-1.8762,-1.8762,-1.8762,-1.8762,-1.8762,-1.8762,-1.8762,-1.8762,-1.8762,-1.8762,-1.8762,-1.8762,-1.8762,-1.8762,-1.8762,-1.8762,-1.8762,-1.8762,-1.8762,-1.8762,-1.8762,-1.8762,-1.862,-1.8321,-1.8321,-1.8158,-1.786,-1.786,-1.786,0.0,0.0,0.0,1.2956,0.0,0.0,0.0,0.0,0.0,0.0,0.0,0.0,0.0,0.0,0.0,0.0,0.0,0.0,0.0,0.0,0.0,0.0,0.0,0.0,0.0,0.0,0.0,0.0,0.0,0.0,0.0,0.0,0.0,0.0,0.0,0.0,0.0,0.0,0.0,0.0,0.0,0.0,0.0,0.0,0.0,0.0,0.0,0.0,0.0,0.0,0.0,0.0,0.0,0.0,0.0,0.0,0.0,0.0,0.0,0.0,0.0,0.0,0.0,-0.0,-0.0236,-0.0471,-0.0471,-0.0471,-0.0236,-0.0,-0.0236,-0.0236,-0.0236,-0.0236,-0.0236,-0.0235,-0.0235,-0.047,-0.4223,-1.6496,-1.8898,-1.8884,-1.883,-1.8796,-1.8762,-1.8762,-1.8762,-1.8762,-1.8762,-1.8762,-1.8762,-1.8762,-1.8762,-1.8762,-1.8762,-1.8762,-1.8762,-1.8762,-1.8762,-1.8762,-1.8762,-1.8762,-1.8762,-1.8762,-1.8762,-1.862,-1.8321,-1.8321,-1.8158,-1.786,-1.786,-1.786,0.0,0.0,1.2729,1.3901,0.0,0.0,0.0,0.0,0.0,0.0,0.0,0.0,0.0,0.0,0.0,0.0,0.0,0.0,0.0,0.0,0.0,0.0,0.0,0.0,0.0,0.0,0.0,0.0,0.0,0.0,0.0,0.0,0.0,0.0,0.0,0.0,0.0,0.0,0.0,0.0,0.0,0.0,0.0,0.0,0.0,0.0,0.0,0.0,0.0,0.0,0.0,0.0,0.0,0.0,0.0,0.0,0.0,0.0,0.0,0.0,0.0,0.0,0.0,0.0,0.0,0.0,0.0,0.0,0.0,0.0,0.0,0.0,0.0,0.0,0.0,0.0,0.0,0.0,-0.1174,-0.5634,-0.9624,-1.2686,-1.2677,-1.5965,-1.8796,-1.8762,-1.8762,-1.8762,-1.8762,-1.8762,-1.8762,-1.8762,-1.8762,-1.8762,-1.8762,-1.8762,-1.8762,-1.8762,-1.8762,-1.8762,-1.8762,-1.8762,-1.8762,-1.8762,-1.8762,-1.862,-1.8321,-1.8321,-1.8158,-1.786,-1.786,-1.786,1.6968,1.7509,0.0,1.5167,0.738,0.0,0.0,0.0,0.0,0.0,0.0,0.0,0.0,0.0,0.0,0.0,0.0,0.0,0.0,0.0,0.0,0.0,0.0,0.0,0.0,0.0,0.0,0.0,0.0,0.0,0.0,0.0,0.0,0.0,0.0,0.0,0.0,0.0,0.0,0.0,0.0,0.0,0.0,0.0,0.0,0.0,0.0,0.0,0.0,0.0,0.0,0.0,0.0,0.0,0.0,0.0,0.0,0.0,0.0,0.0,0.0,0.0,0.0,0.0,0.0,0.0,0.0,0.0,0.0,0.0,0.0,0.0,0.0,0.0,0.0,0.0,0.0,0.0,0.0,0.0,-0.3288,-0.6809,-0.8925,-1.4591,-1.8864,-1.8796,-1.8782,-1.8762,-1.8762,-1.8762,-1.8762,-1.8762,-1.8762,-1.8762,-1.8762,-1.8762,-1.8762,-1.8762,-1.8762,-1.8762,-1.8762,-1.8762,-1.8708,-1.8606,-1.8708,-1.8565,-1.8158,-1.8267,-1.8158,-1.786,-1.786,-1.786]}]]